<?xml version="1.0" encoding="UTF-8" standalone="no" ?>
<gpx xmlns="http://www.topografix.com/GPX/1/1" xmlns:xsi="http://www.w3.org/2001/XMLSchema-instance" xsi:schemaLocation="http://www.topografix.com/GPX/1/1 http://www.topografix.com/GPX/1/1/gpx.xsd" version="1.1" creator="VisuGPX - https://www.visugpx.com">
  <metadata>
    <name>En passant par la meouge</name>
    <desc><![CDATA[Joli circuit passant par la provence haute Alpine et Dromoise]]></desc>
  </metadata>
  <trk>
    <name><![CDATA[N°10 25/02/2011]]></name>
    <trkseg>
      <trkpt lat="44.3156" lon="5.82351">
        <ele>504.348877</ele>
        <time>2011-02-25T09:48:00Z</time>
      </trkpt>
      <trkpt lat="44.31552" lon="5.82361">
        <ele>510.116699</ele>
        <time>2011-02-25T09:48:21Z</time>
      </trkpt>
      <trkpt lat="44.31551" lon="5.82362">
        <ele>513.481445</ele>
        <time>2011-02-25T09:48:23Z</time>
      </trkpt>
      <trkpt lat="44.31551" lon="5.82362">
        <ele>516.845947</ele>
        <time>2011-02-25T09:48:25Z</time>
      </trkpt>
      <trkpt lat="44.3155" lon="5.82362">
        <ele>521.652588</ele>
        <time>2011-02-25T09:48:27Z</time>
      </trkpt>
      <trkpt lat="44.31553" lon="5.8236">
        <ele>525.978394</ele>
        <time>2011-02-25T09:48:30Z</time>
      </trkpt>
      <trkpt lat="44.31554" lon="5.8236">
        <ele>529.34314</ele>
        <time>2011-02-25T09:48:32Z</time>
      </trkpt>
      <trkpt lat="44.31554" lon="5.8236">
        <ele>533.188354</ele>
        <time>2011-02-25T09:48:35Z</time>
      </trkpt>
      <trkpt lat="44.31554" lon="5.8236">
        <ele>537.514282</ele>
        <time>2011-02-25T09:48:39Z</time>
      </trkpt>
      <trkpt lat="44.31554" lon="5.8236">
        <ele>540.878906</ele>
        <time>2011-02-25T09:48:41Z</time>
      </trkpt>
      <trkpt lat="44.31554" lon="5.8236">
        <ele>541.359497</ele>
        <time>2011-02-25T09:48:42Z</time>
      </trkpt>
      <trkpt lat="44.31554" lon="5.8236">
        <ele>544.724243</ele>
        <time>2011-02-25T09:48:45Z</time>
      </trkpt>
      <trkpt lat="44.31554" lon="5.8236">
        <ele>544.724243</ele>
        <time>2011-02-25T09:48:46Z</time>
      </trkpt>
      <trkpt lat="44.31554" lon="5.8236">
        <ele>548.088867</ele>
        <time>2011-02-25T09:48:49Z</time>
      </trkpt>
      <trkpt lat="44.31554" lon="5.8236">
        <ele>549.050049</ele>
        <time>2011-02-25T09:48:51Z</time>
      </trkpt>
      <trkpt lat="44.31554" lon="5.8236">
        <ele>552.414551</ele>
        <time>2011-02-25T09:48:55Z</time>
      </trkpt>
      <trkpt lat="44.31553" lon="5.8236">
        <ele>555.779297</ele>
        <time>2011-02-25T09:48:59Z</time>
      </trkpt>
      <trkpt lat="44.31553" lon="5.82359">
        <ele>558.66333</ele>
        <time>2011-02-25T09:49:07Z</time>
      </trkpt>
      <trkpt lat="44.31553" lon="5.82359">
        <ele>562.028076</ele>
        <time>2011-02-25T09:49:29Z</time>
      </trkpt>
      <trkpt lat="44.31553" lon="5.8236">
        <ele>563.469971</ele>
        <time>2011-02-25T09:49:40Z</time>
      </trkpt>
      <trkpt lat="44.31546" lon="5.8236">
        <ele>565.392578</ele>
        <time>2011-02-25T09:49:44Z</time>
      </trkpt>
      <trkpt lat="44.31536" lon="5.82358">
        <ele>566.35376</ele>
        <time>2011-02-25T09:49:48Z</time>
      </trkpt>
      <trkpt lat="44.31533" lon="5.82356">
        <ele>564.911865</ele>
        <time>2011-02-25T09:49:49Z</time>
      </trkpt>
      <trkpt lat="44.31528" lon="5.82344">
        <ele>564.431152</ele>
        <time>2011-02-25T09:49:53Z</time>
      </trkpt>
      <trkpt lat="44.31519" lon="5.82337">
        <ele>565.392578</ele>
        <time>2011-02-25T09:49:57Z</time>
      </trkpt>
      <trkpt lat="44.31515" lon="5.82325">
        <ele>566.834473</ele>
        <time>2011-02-25T09:50:01Z</time>
      </trkpt>
      <trkpt lat="44.31512" lon="5.82309">
        <ele>565.392578</ele>
        <time>2011-02-25T09:50:05Z</time>
      </trkpt>
      <trkpt lat="44.3151" lon="5.82301">
        <ele>566.834473</ele>
        <time>2011-02-25T09:50:07Z</time>
      </trkpt>
      <trkpt lat="44.31503" lon="5.82281">
        <ele>566.35376</ele>
        <time>2011-02-25T09:50:13Z</time>
      </trkpt>
      <trkpt lat="44.31488" lon="5.82221">
        <ele>567.795654</ele>
        <time>2011-02-25T09:50:28Z</time>
      </trkpt>
      <trkpt lat="44.31478" lon="5.82183">
        <ele>569.718506</ele>
        <time>2011-02-25T09:50:41Z</time>
      </trkpt>
      <trkpt lat="44.31477" lon="5.82181">
        <ele>568.276367</ele>
        <time>2011-02-25T09:50:49Z</time>
      </trkpt>
      <trkpt lat="44.3147" lon="5.82181">
        <ele>569.237793</ele>
        <time>2011-02-25T09:50:53Z</time>
      </trkpt>
      <trkpt lat="44.31436" lon="5.82199">
        <ele>566.834473</ele>
        <time>2011-02-25T09:51:05Z</time>
      </trkpt>
      <trkpt lat="44.31399" lon="5.82222">
        <ele>566.35376</ele>
        <time>2011-02-25T09:51:20Z</time>
      </trkpt>
      <trkpt lat="44.31399" lon="5.82231">
        <ele>566.834473</ele>
        <time>2011-02-25T09:51:28Z</time>
      </trkpt>
      <trkpt lat="44.314" lon="5.82232">
        <ele>567.315186</ele>
        <time>2011-02-25T09:51:34Z</time>
      </trkpt>
      <trkpt lat="44.31397" lon="5.82234">
        <ele>567.315186</ele>
        <time>2011-02-25T09:51:37Z</time>
      </trkpt>
      <trkpt lat="44.31396" lon="5.82238">
        <ele>567.315186</ele>
        <time>2011-02-25T09:51:45Z</time>
      </trkpt>
      <trkpt lat="44.31394" lon="5.82249">
        <ele>566.834473</ele>
        <time>2011-02-25T09:51:50Z</time>
      </trkpt>
      <trkpt lat="44.3136" lon="5.82281">
        <ele>564.431152</ele>
        <time>2011-02-25T09:52:02Z</time>
      </trkpt>
      <trkpt lat="44.31343" lon="5.82271">
        <ele>564.911865</ele>
        <time>2011-02-25T09:52:07Z</time>
      </trkpt>
      <trkpt lat="44.31321" lon="5.82269">
        <ele>562.989258</ele>
        <time>2011-02-25T09:52:11Z</time>
      </trkpt>
      <trkpt lat="44.31308" lon="5.82269">
        <ele>561.06665</ele>
        <time>2011-02-25T09:52:13Z</time>
      </trkpt>
      <trkpt lat="44.31292" lon="5.82267">
        <ele>559.144043</ele>
        <time>2011-02-25T09:52:15Z</time>
      </trkpt>
      <trkpt lat="44.31268" lon="5.82268">
        <ele>556.740723</ele>
        <time>2011-02-25T09:52:18Z</time>
      </trkpt>
      <trkpt lat="44.31171" lon="5.8228">
        <ele>554.817871</ele>
        <time>2011-02-25T09:52:31Z</time>
      </trkpt>
      <trkpt lat="44.31152" lon="5.8227">
        <ele>555.298584</ele>
        <time>2011-02-25T09:52:35Z</time>
      </trkpt>
      <trkpt lat="44.31135" lon="5.8225">
        <ele>553.856689</ele>
        <time>2011-02-25T09:52:39Z</time>
      </trkpt>
      <trkpt lat="44.31104" lon="5.82215">
        <ele>552.414551</ele>
        <time>2011-02-25T09:52:45Z</time>
      </trkpt>
      <trkpt lat="44.31095" lon="5.82202">
        <ele>550.972656</ele>
        <time>2011-02-25T09:52:47Z</time>
      </trkpt>
      <trkpt lat="44.31059" lon="5.82154">
        <ele>552.414551</ele>
        <time>2011-02-25T09:52:55Z</time>
      </trkpt>
      <trkpt lat="44.31037" lon="5.82124">
        <ele>549.050049</ele>
        <time>2011-02-25T09:53:00Z</time>
      </trkpt>
      <trkpt lat="44.31023" lon="5.82109">
        <ele>552.895264</ele>
        <time>2011-02-25T09:53:03Z</time>
      </trkpt>
      <trkpt lat="44.31019" lon="5.82104">
        <ele>552.895264</ele>
        <time>2011-02-25T09:53:04Z</time>
      </trkpt>
      <trkpt lat="44.30991" lon="5.82069">
        <ele>553.375977</ele>
        <time>2011-02-25T09:53:10Z</time>
      </trkpt>
      <trkpt lat="44.30976" lon="5.82057">
        <ele>551.934082</ele>
        <time>2011-02-25T09:53:13Z</time>
      </trkpt>
      <trkpt lat="44.30909" lon="5.82047">
        <ele>553.856689</ele>
        <time>2011-02-25T09:53:25Z</time>
      </trkpt>
      <trkpt lat="44.30894" lon="5.82049">
        <ele>554.817871</ele>
        <time>2011-02-25T09:53:28Z</time>
      </trkpt>
      <trkpt lat="44.30798" lon="5.8207">
        <ele>558.182861</ele>
        <time>2011-02-25T09:53:49Z</time>
      </trkpt>
      <trkpt lat="44.30779" lon="5.82078">
        <ele>557.702148</ele>
        <time>2011-02-25T09:53:53Z</time>
      </trkpt>
      <trkpt lat="44.30761" lon="5.8209">
        <ele>557.702148</ele>
        <time>2011-02-25T09:53:57Z</time>
      </trkpt>
      <trkpt lat="44.30748" lon="5.82109">
        <ele>558.66333</ele>
        <time>2011-02-25T09:54:01Z</time>
      </trkpt>
      <trkpt lat="44.30739" lon="5.82126">
        <ele>557.221436</ele>
        <time>2011-02-25T09:54:04Z</time>
      </trkpt>
      <trkpt lat="44.30723" lon="5.82171">
        <ele>560.105225</ele>
        <time>2011-02-25T09:54:11Z</time>
      </trkpt>
      <trkpt lat="44.30724" lon="5.82205">
        <ele>558.182861</ele>
        <time>2011-02-25T09:54:16Z</time>
      </trkpt>
      <trkpt lat="44.30722" lon="5.82214">
        <ele>560.585938</ele>
        <time>2011-02-25T09:54:18Z</time>
      </trkpt>
      <trkpt lat="44.30711" lon="5.82253">
        <ele>561.547363</ele>
        <time>2011-02-25T09:54:22Z</time>
      </trkpt>
      <trkpt lat="44.30697" lon="5.82228">
        <ele>558.66333</ele>
        <time>2011-02-25T09:54:28Z</time>
      </trkpt>
      <trkpt lat="44.30705" lon="5.82215">
        <ele>561.547363</ele>
        <time>2011-02-25T09:54:32Z</time>
      </trkpt>
      <trkpt lat="44.30716" lon="5.8219">
        <ele>562.028076</ele>
        <time>2011-02-25T09:54:39Z</time>
      </trkpt>
      <trkpt lat="44.30718" lon="5.82184">
        <ele>560.105225</ele>
        <time>2011-02-25T09:54:41Z</time>
      </trkpt>
      <trkpt lat="44.3072" lon="5.82178">
        <ele>563.950439</ele>
        <time>2011-02-25T09:54:43Z</time>
      </trkpt>
      <trkpt lat="44.30721" lon="5.82174">
        <ele>563.950439</ele>
        <time>2011-02-25T09:54:44Z</time>
      </trkpt>
      <trkpt lat="44.30736" lon="5.82136">
        <ele>567.315186</ele>
        <time>2011-02-25T09:54:58Z</time>
      </trkpt>
      <trkpt lat="44.3071" lon="5.82067">
        <ele>566.35376</ele>
        <time>2011-02-25T09:55:16Z</time>
      </trkpt>
      <trkpt lat="44.30708" lon="5.8205">
        <ele>569.237793</ele>
        <time>2011-02-25T09:55:22Z</time>
      </trkpt>
      <trkpt lat="44.30709" lon="5.81989">
        <ele>571.640869</ele>
        <time>2011-02-25T09:55:42Z</time>
      </trkpt>
      <trkpt lat="44.30711" lon="5.81977">
        <ele>573.083252</ele>
        <time>2011-02-25T09:55:46Z</time>
      </trkpt>
      <trkpt lat="44.30713" lon="5.8196">
        <ele>571.1604</ele>
        <time>2011-02-25T09:55:52Z</time>
      </trkpt>
      <trkpt lat="44.30719" lon="5.81935">
        <ele>574.525146</ele>
        <time>2011-02-25T09:56:01Z</time>
      </trkpt>
      <trkpt lat="44.30719" lon="5.81932">
        <ele>574.525146</ele>
        <time>2011-02-25T09:56:02Z</time>
      </trkpt>
      <trkpt lat="44.30729" lon="5.81878">
        <ele>577.889648</ele>
        <time>2011-02-25T09:56:20Z</time>
      </trkpt>
      <trkpt lat="44.3074" lon="5.81839">
        <ele>580.292969</ele>
        <time>2011-02-25T09:56:34Z</time>
      </trkpt>
      <trkpt lat="44.30745" lon="5.81822">
        <ele>581.734863</ele>
        <time>2011-02-25T09:56:40Z</time>
      </trkpt>
      <trkpt lat="44.30761" lon="5.81763">
        <ele>583.657471</ele>
        <time>2011-02-25T09:57:01Z</time>
      </trkpt>
      <trkpt lat="44.30771" lon="5.81732">
        <ele>586.541504</ele>
        <time>2011-02-25T09:57:12Z</time>
      </trkpt>
      <trkpt lat="44.30789" lon="5.81684">
        <ele>587.502686</ele>
        <time>2011-02-25T09:57:31Z</time>
      </trkpt>
      <trkpt lat="44.3079" lon="5.81679">
        <ele>589.425537</ele>
        <time>2011-02-25T09:57:33Z</time>
      </trkpt>
      <trkpt lat="44.30797" lon="5.81643">
        <ele>591.348145</ele>
        <time>2011-02-25T09:57:46Z</time>
      </trkpt>
      <trkpt lat="44.30805" lon="5.81588">
        <ele>594.712646</ele>
        <time>2011-02-25T09:58:06Z</time>
      </trkpt>
      <trkpt lat="44.30814" lon="5.81531">
        <ele>597.59668</ele>
        <time>2011-02-25T09:58:27Z</time>
      </trkpt>
      <trkpt lat="44.30823" lon="5.8148">
        <ele>600.961182</ele>
        <time>2011-02-25T09:58:46Z</time>
      </trkpt>
      <trkpt lat="44.30835" lon="5.81425">
        <ele>603.845215</ele>
        <time>2011-02-25T09:59:07Z</time>
      </trkpt>
      <trkpt lat="44.30839" lon="5.8137">
        <ele>605.768066</ele>
        <time>2011-02-25T09:59:27Z</time>
      </trkpt>
      <trkpt lat="44.30856" lon="5.81318">
        <ele>608.171387</ele>
        <time>2011-02-25T09:59:46Z</time>
      </trkpt>
      <trkpt lat="44.30875" lon="5.81254">
        <ele>608.651855</ele>
        <time>2011-02-25T10:00:06Z</time>
      </trkpt>
      <trkpt lat="44.30894" lon="5.81186">
        <ele>609.613281</ele>
        <time>2011-02-25T10:00:24Z</time>
      </trkpt>
      <trkpt lat="44.30922" lon="5.81089">
        <ele>608.651855</ele>
        <time>2011-02-25T10:00:44Z</time>
      </trkpt>
      <trkpt lat="44.30952" lon="5.81005">
        <ele>609.613281</ele>
        <time>2011-02-25T10:01:01Z</time>
      </trkpt>
      <trkpt lat="44.30968" lon="5.80973">
        <ele>611.535889</ele>
        <time>2011-02-25T10:01:11Z</time>
      </trkpt>
      <trkpt lat="44.30996" lon="5.80913">
        <ele>614.900391</ele>
        <time>2011-02-25T10:01:31Z</time>
      </trkpt>
      <trkpt lat="44.30997" lon="5.80909">
        <ele>614.900391</ele>
        <time>2011-02-25T10:01:32Z</time>
      </trkpt>
      <trkpt lat="44.3101" lon="5.80833">
        <ele>615.861816</ele>
        <time>2011-02-25T10:01:51Z</time>
      </trkpt>
      <trkpt lat="44.31039" lon="5.80767">
        <ele>619.707031</ele>
        <time>2011-02-25T10:02:10Z</time>
      </trkpt>
      <trkpt lat="44.3104" lon="5.80764">
        <ele>619.707031</ele>
        <time>2011-02-25T10:02:11Z</time>
      </trkpt>
      <trkpt lat="44.31064" lon="5.80687">
        <ele>621.14917</ele>
        <time>2011-02-25T10:02:31Z</time>
      </trkpt>
      <trkpt lat="44.31088" lon="5.80599">
        <ele>620.187744</ele>
        <time>2011-02-25T10:02:51Z</time>
      </trkpt>
      <trkpt lat="44.31096" lon="5.8056">
        <ele>618.745605</ele>
        <time>2011-02-25T10:02:57Z</time>
      </trkpt>
      <trkpt lat="44.31118" lon="5.80483">
        <ele>620.668457</ele>
        <time>2011-02-25T10:03:09Z</time>
      </trkpt>
      <trkpt lat="44.31119" lon="5.80406">
        <ele>619.226318</ele>
        <time>2011-02-25T10:03:24Z</time>
      </trkpt>
      <trkpt lat="44.31117" lon="5.80316">
        <ele>617.78418</ele>
        <time>2011-02-25T10:03:39Z</time>
      </trkpt>
      <trkpt lat="44.31117" lon="5.80309">
        <ele>618.264893</ele>
        <time>2011-02-25T10:03:40Z</time>
      </trkpt>
      <trkpt lat="44.3113" lon="5.80271">
        <ele>615.861816</ele>
        <time>2011-02-25T10:03:46Z</time>
      </trkpt>
      <trkpt lat="44.31153" lon="5.80222">
        <ele>612.016602</ele>
        <time>2011-02-25T10:03:54Z</time>
      </trkpt>
      <trkpt lat="44.31156" lon="5.80215">
        <ele>612.016602</ele>
        <time>2011-02-25T10:03:55Z</time>
      </trkpt>
      <trkpt lat="44.31168" lon="5.80184">
        <ele>610.09375</ele>
        <time>2011-02-25T10:03:59Z</time>
      </trkpt>
      <trkpt lat="44.31186" lon="5.80122">
        <ele>609.132568</ele>
        <time>2011-02-25T10:04:06Z</time>
      </trkpt>
      <trkpt lat="44.31207" lon="5.80087">
        <ele>607.209961</ele>
        <time>2011-02-25T10:04:11Z</time>
      </trkpt>
      <trkpt lat="44.31211" lon="5.80081">
        <ele>608.171387</ele>
        <time>2011-02-25T10:04:12Z</time>
      </trkpt>
      <trkpt lat="44.31224" lon="5.80051">
        <ele>609.613281</ele>
        <time>2011-02-25T10:04:17Z</time>
      </trkpt>
      <trkpt lat="44.31228" lon="5.80032">
        <ele>608.171387</ele>
        <time>2011-02-25T10:04:20Z</time>
      </trkpt>
      <trkpt lat="44.31228" lon="5.79991">
        <ele>608.171387</ele>
        <time>2011-02-25T10:04:26Z</time>
      </trkpt>
      <trkpt lat="44.31238" lon="5.79956">
        <ele>609.132568</ele>
        <time>2011-02-25T10:04:31Z</time>
      </trkpt>
      <trkpt lat="44.31286" lon="5.79892">
        <ele>607.690674</ele>
        <time>2011-02-25T10:04:45Z</time>
      </trkpt>
      <trkpt lat="44.3134" lon="5.79809">
        <ele>605.287354</ele>
        <time>2011-02-25T10:05:00Z</time>
      </trkpt>
      <trkpt lat="44.31346" lon="5.798">
        <ele>606.729248</ele>
        <time>2011-02-25T10:05:02Z</time>
      </trkpt>
      <trkpt lat="44.31393" lon="5.79721">
        <ele>610.09375</ele>
        <time>2011-02-25T10:05:20Z</time>
      </trkpt>
      <trkpt lat="44.31395" lon="5.79716">
        <ele>610.09375</ele>
        <time>2011-02-25T10:05:21Z</time>
      </trkpt>
      <trkpt lat="44.31396" lon="5.79711">
        <ele>610.574463</ele>
        <time>2011-02-25T10:05:22Z</time>
      </trkpt>
      <trkpt lat="44.31407" lon="5.79676">
        <ele>608.171387</ele>
        <time>2011-02-25T10:05:28Z</time>
      </trkpt>
      <trkpt lat="44.31412" lon="5.7966">
        <ele>606.729248</ele>
        <time>2011-02-25T10:05:30Z</time>
      </trkpt>
      <trkpt lat="44.31416" lon="5.79642">
        <ele>605.287354</ele>
        <time>2011-02-25T10:05:32Z</time>
      </trkpt>
      <trkpt lat="44.3142" lon="5.79624">
        <ele>601.922607</ele>
        <time>2011-02-25T10:05:34Z</time>
      </trkpt>
      <trkpt lat="44.31423" lon="5.79614">
        <ele>601.922607</ele>
        <time>2011-02-25T10:05:35Z</time>
      </trkpt>
      <trkpt lat="44.31443" lon="5.79534">
        <ele>598.077393</ele>
        <time>2011-02-25T10:05:43Z</time>
      </trkpt>
      <trkpt lat="44.31445" lon="5.79525">
        <ele>598.077393</ele>
        <time>2011-02-25T10:05:44Z</time>
      </trkpt>
      <trkpt lat="44.3145" lon="5.79505">
        <ele>597.115967</ele>
        <time>2011-02-25T10:05:46Z</time>
      </trkpt>
      <trkpt lat="44.31458" lon="5.79476">
        <ele>595.674072</ele>
        <time>2011-02-25T10:05:49Z</time>
      </trkpt>
      <trkpt lat="44.3146" lon="5.79455">
        <ele>592.790283</ele>
        <time>2011-02-25T10:05:51Z</time>
      </trkpt>
      <trkpt lat="44.31462" lon="5.79434">
        <ele>590.867432</ele>
        <time>2011-02-25T10:05:53Z</time>
      </trkpt>
      <trkpt lat="44.3146" lon="5.79388">
        <ele>589.425537</ele>
        <time>2011-02-25T10:05:58Z</time>
      </trkpt>
      <trkpt lat="44.31456" lon="5.79348">
        <ele>587.021973</ele>
        <time>2011-02-25T10:06:02Z</time>
      </trkpt>
      <trkpt lat="44.31465" lon="5.79281">
        <ele>582.215576</ele>
        <time>2011-02-25T10:06:08Z</time>
      </trkpt>
      <trkpt lat="44.31467" lon="5.7927">
        <ele>582.215576</ele>
        <time>2011-02-25T10:06:09Z</time>
      </trkpt>
      <trkpt lat="44.31472" lon="5.79247">
        <ele>581.734863</ele>
        <time>2011-02-25T10:06:11Z</time>
      </trkpt>
      <trkpt lat="44.3149" lon="5.79205">
        <ele>581.734863</ele>
        <time>2011-02-25T10:06:15Z</time>
      </trkpt>
      <trkpt lat="44.31509" lon="5.79162">
        <ele>579.812256</ele>
        <time>2011-02-25T10:06:19Z</time>
      </trkpt>
      <trkpt lat="44.31517" lon="5.7914">
        <ele>578.370361</ele>
        <time>2011-02-25T10:06:21Z</time>
      </trkpt>
      <trkpt lat="44.31553" lon="5.79031">
        <ele>579.812256</ele>
        <time>2011-02-25T10:06:33Z</time>
      </trkpt>
      <trkpt lat="44.31565" lon="5.79001">
        <ele>581.254395</ele>
        <time>2011-02-25T10:06:38Z</time>
      </trkpt>
      <trkpt lat="44.31579" lon="5.78912">
        <ele>583.657471</ele>
        <time>2011-02-25T10:06:56Z</time>
      </trkpt>
      <trkpt lat="44.31589" lon="5.78837">
        <ele>587.021973</ele>
        <time>2011-02-25T10:07:16Z</time>
      </trkpt>
      <trkpt lat="44.31595" lon="5.78793">
        <ele>590.386963</ele>
        <time>2011-02-25T10:07:31Z</time>
      </trkpt>
      <trkpt lat="44.31596" lon="5.78747">
        <ele>593.270752</ele>
        <time>2011-02-25T10:07:46Z</time>
      </trkpt>
      <trkpt lat="44.31599" lon="5.78687">
        <ele>596.154785</ele>
        <time>2011-02-25T10:08:06Z</time>
      </trkpt>
      <trkpt lat="44.31599" lon="5.78624">
        <ele>599.519287</ele>
        <time>2011-02-25T10:08:26Z</time>
      </trkpt>
      <trkpt lat="44.31605" lon="5.78568">
        <ele>598.077393</ele>
        <time>2011-02-25T10:08:41Z</time>
      </trkpt>
      <trkpt lat="44.31628" lon="5.78545">
        <ele>597.115967</ele>
        <time>2011-02-25T10:08:46Z</time>
      </trkpt>
      <trkpt lat="44.31647" lon="5.78538">
        <ele>594.232178</ele>
        <time>2011-02-25T10:08:49Z</time>
      </trkpt>
      <trkpt lat="44.31703" lon="5.78512">
        <ele>590.386963</ele>
        <time>2011-02-25T10:08:57Z</time>
      </trkpt>
      <trkpt lat="44.31711" lon="5.7851">
        <ele>590.386963</ele>
        <time>2011-02-25T10:08:58Z</time>
      </trkpt>
      <trkpt lat="44.31724" lon="5.78503">
        <ele>590.386963</ele>
        <time>2011-02-25T10:09:00Z</time>
      </trkpt>
      <trkpt lat="44.31749" lon="5.78475">
        <ele>589.425537</ele>
        <time>2011-02-25T10:09:05Z</time>
      </trkpt>
      <trkpt lat="44.31758" lon="5.78461">
        <ele>592.790283</ele>
        <time>2011-02-25T10:09:08Z</time>
      </trkpt>
      <trkpt lat="44.3176" lon="5.78457">
        <ele>592.790283</ele>
        <time>2011-02-25T10:09:09Z</time>
      </trkpt>
      <trkpt lat="44.31785" lon="5.78413">
        <ele>594.712646</ele>
        <time>2011-02-25T10:09:21Z</time>
      </trkpt>
      <trkpt lat="44.318" lon="5.78382">
        <ele>591.348145</ele>
        <time>2011-02-25T10:09:27Z</time>
      </trkpt>
      <trkpt lat="44.31803" lon="5.78376">
        <ele>591.348145</ele>
        <time>2011-02-25T10:09:28Z</time>
      </trkpt>
      <trkpt lat="44.31807" lon="5.7837">
        <ele>591.348145</ele>
        <time>2011-02-25T10:09:29Z</time>
      </trkpt>
      <trkpt lat="44.31815" lon="5.78317">
        <ele>589.425537</ele>
        <time>2011-02-25T10:09:35Z</time>
      </trkpt>
      <trkpt lat="44.31812" lon="5.78299">
        <ele>587.021973</ele>
        <time>2011-02-25T10:09:37Z</time>
      </trkpt>
      <trkpt lat="44.31812" lon="5.78283">
        <ele>585.099609</ele>
        <time>2011-02-25T10:09:39Z</time>
      </trkpt>
      <trkpt lat="44.31841" lon="5.78266">
        <ele>587.502686</ele>
        <time>2011-02-25T10:09:45Z</time>
      </trkpt>
      <trkpt lat="44.31863" lon="5.78283">
        <ele>590.867432</ele>
        <time>2011-02-25T10:09:54Z</time>
      </trkpt>
      <trkpt lat="44.31896" lon="5.78293">
        <ele>591.828857</ele>
        <time>2011-02-25T10:10:10Z</time>
      </trkpt>
      <trkpt lat="44.31908" lon="5.78302">
        <ele>593.270752</ele>
        <time>2011-02-25T10:10:16Z</time>
      </trkpt>
      <trkpt lat="44.31932" lon="5.78308">
        <ele>594.712646</ele>
        <time>2011-02-25T10:10:28Z</time>
      </trkpt>
      <trkpt lat="44.31975" lon="5.78286">
        <ele>596.635498</ele>
        <time>2011-02-25T10:10:48Z</time>
      </trkpt>
      <trkpt lat="44.32026" lon="5.78241">
        <ele>596.635498</ele>
        <time>2011-02-25T10:11:05Z</time>
      </trkpt>
      <trkpt lat="44.32102" lon="5.78163">
        <ele>598.557861</ele>
        <time>2011-02-25T10:11:32Z</time>
      </trkpt>
      <trkpt lat="44.32193" lon="5.78078">
        <ele>600.480713</ele>
        <time>2011-02-25T10:12:04Z</time>
      </trkpt>
      <trkpt lat="44.32272" lon="5.78028">
        <ele>600</ele>
        <time>2011-02-25T10:12:27Z</time>
      </trkpt>
      <trkpt lat="44.32344" lon="5.77983">
        <ele>596.154785</ele>
        <time>2011-02-25T10:12:45Z</time>
      </trkpt>
      <trkpt lat="44.32348" lon="5.77981">
        <ele>596.154785</ele>
        <time>2011-02-25T10:12:46Z</time>
      </trkpt>
      <trkpt lat="44.32398" lon="5.77952">
        <ele>595.674072</ele>
        <time>2011-02-25T10:12:59Z</time>
      </trkpt>
      <trkpt lat="44.3245" lon="5.77917">
        <ele>595.193359</ele>
        <time>2011-02-25T10:13:14Z</time>
      </trkpt>
      <trkpt lat="44.32462" lon="5.77908">
        <ele>593.751465</ele>
        <time>2011-02-25T10:13:18Z</time>
      </trkpt>
      <trkpt lat="44.3247" lon="5.77903">
        <ele>593.270752</ele>
        <time>2011-02-25T10:13:21Z</time>
      </trkpt>
      <trkpt lat="44.32476" lon="5.77894">
        <ele>595.674072</ele>
        <time>2011-02-25T10:13:23Z</time>
      </trkpt>
      <trkpt lat="44.32474" lon="5.77887">
        <ele>598.557861</ele>
        <time>2011-02-25T10:13:25Z</time>
      </trkpt>
      <trkpt lat="44.32471" lon="5.77876">
        <ele>600</ele>
        <time>2011-02-25T10:13:28Z</time>
      </trkpt>
      <trkpt lat="44.32466" lon="5.77859">
        <ele>600</ele>
        <time>2011-02-25T10:13:42Z</time>
      </trkpt>
      <trkpt lat="44.32466" lon="5.77859">
        <ele>600.961182</ele>
        <time>2011-02-25T10:14:09Z</time>
      </trkpt>
      <trkpt lat="44.32466" lon="5.77859">
        <ele>600.961182</ele>
        <time>2011-02-25T10:14:16Z</time>
      </trkpt>
      <trkpt lat="44.32466" lon="5.77859">
        <ele>600</ele>
        <time>2011-02-25T10:14:38Z</time>
      </trkpt>
      <trkpt lat="44.32466" lon="5.77859">
        <ele>601.922607</ele>
        <time>2011-02-25T10:14:49Z</time>
      </trkpt>
      <trkpt lat="44.32466" lon="5.77859">
        <ele>599.038574</ele>
        <time>2011-02-25T10:15:18Z</time>
      </trkpt>
      <trkpt lat="44.32466" lon="5.77859">
        <ele>601.441895</ele>
        <time>2011-02-25T10:15:20Z</time>
      </trkpt>
      <trkpt lat="44.32466" lon="5.77859">
        <ele>600.480713</ele>
        <time>2011-02-25T10:15:35Z</time>
      </trkpt>
      <trkpt lat="44.32466" lon="5.77859">
        <ele>602.883789</ele>
        <time>2011-02-25T10:15:52Z</time>
      </trkpt>
      <trkpt lat="44.32466" lon="5.77859">
        <ele>600</ele>
        <time>2011-02-25T10:16:09Z</time>
      </trkpt>
      <trkpt lat="44.32466" lon="5.77859">
        <ele>599.519287</ele>
        <time>2011-02-25T10:16:42Z</time>
      </trkpt>
      <trkpt lat="44.32466" lon="5.77859">
        <ele>600.961182</ele>
        <time>2011-02-25T10:16:44Z</time>
      </trkpt>
      <trkpt lat="44.32466" lon="5.77859">
        <ele>602.403076</ele>
        <time>2011-02-25T10:16:46Z</time>
      </trkpt>
      <trkpt lat="44.32466" lon="5.77859">
        <ele>600.961182</ele>
        <time>2011-02-25T10:16:48Z</time>
      </trkpt>
      <trkpt lat="44.32466" lon="5.77859">
        <ele>602.883789</ele>
        <time>2011-02-25T10:16:53Z</time>
      </trkpt>
      <trkpt lat="44.32466" lon="5.77859">
        <ele>603.364502</ele>
        <time>2011-02-25T10:17:07Z</time>
      </trkpt>
      <trkpt lat="44.32466" lon="5.77859">
        <ele>601.922607</ele>
        <time>2011-02-25T10:17:14Z</time>
      </trkpt>
      <trkpt lat="44.32466" lon="5.77859">
        <ele>603.364502</ele>
        <time>2011-02-25T10:17:28Z</time>
      </trkpt>
      <trkpt lat="44.32466" lon="5.77859">
        <ele>602.883789</ele>
        <time>2011-02-25T10:17:37Z</time>
      </trkpt>
      <trkpt lat="44.3247" lon="5.77872">
        <ele>600.480713</ele>
        <time>2011-02-25T10:17:41Z</time>
      </trkpt>
      <trkpt lat="44.32474" lon="5.77889">
        <ele>601.922607</ele>
        <time>2011-02-25T10:17:45Z</time>
      </trkpt>
      <trkpt lat="44.32484" lon="5.77891">
        <ele>597.59668</ele>
        <time>2011-02-25T10:17:49Z</time>
      </trkpt>
      <trkpt lat="44.32487" lon="5.77889">
        <ele>597.59668</ele>
        <time>2011-02-25T10:17:50Z</time>
      </trkpt>
      <trkpt lat="44.32541" lon="5.77839">
        <ele>598.077393</ele>
        <time>2011-02-25T10:18:08Z</time>
      </trkpt>
      <trkpt lat="44.32584" lon="5.77801">
        <ele>599.038574</ele>
        <time>2011-02-25T10:18:21Z</time>
      </trkpt>
      <trkpt lat="44.32641" lon="5.77737">
        <ele>598.077393</ele>
        <time>2011-02-25T10:18:40Z</time>
      </trkpt>
      <trkpt lat="44.32671" lon="5.7765">
        <ele>598.077393</ele>
        <time>2011-02-25T10:18:59Z</time>
      </trkpt>
      <trkpt lat="44.32689" lon="5.776">
        <ele>596.154785</ele>
        <time>2011-02-25T10:19:12Z</time>
      </trkpt>
      <trkpt lat="44.32741" lon="5.77585">
        <ele>595.193359</ele>
        <time>2011-02-25T10:19:24Z</time>
      </trkpt>
      <trkpt lat="44.32764" lon="5.77577">
        <ele>597.59668</ele>
        <time>2011-02-25T10:19:31Z</time>
      </trkpt>
      <trkpt lat="44.32772" lon="5.77575">
        <ele>596.154785</ele>
        <time>2011-02-25T10:19:33Z</time>
      </trkpt>
      <trkpt lat="44.3281" lon="5.77582">
        <ele>595.674072</ele>
        <time>2011-02-25T10:19:42Z</time>
      </trkpt>
      <trkpt lat="44.32815" lon="5.77584">
        <ele>596.154785</ele>
        <time>2011-02-25T10:19:43Z</time>
      </trkpt>
      <trkpt lat="44.3289" lon="5.77592">
        <ele>594.712646</ele>
        <time>2011-02-25T10:20:00Z</time>
      </trkpt>
      <trkpt lat="44.3294" lon="5.77595">
        <ele>592.790283</ele>
        <time>2011-02-25T10:20:12Z</time>
      </trkpt>
      <trkpt lat="44.32944" lon="5.77595">
        <ele>592.790283</ele>
        <time>2011-02-25T10:20:13Z</time>
      </trkpt>
      <trkpt lat="44.3298" lon="5.77595">
        <ele>593.751465</ele>
        <time>2011-02-25T10:20:22Z</time>
      </trkpt>
      <trkpt lat="44.32987" lon="5.77595">
        <ele>591.348145</ele>
        <time>2011-02-25T10:20:24Z</time>
      </trkpt>
      <trkpt lat="44.32998" lon="5.77594">
        <ele>587.502686</ele>
        <time>2011-02-25T10:20:27Z</time>
      </trkpt>
      <trkpt lat="44.33002" lon="5.77594">
        <ele>587.502686</ele>
        <time>2011-02-25T10:20:28Z</time>
      </trkpt>
      <trkpt lat="44.33015" lon="5.77593">
        <ele>591.828857</ele>
        <time>2011-02-25T10:20:31Z</time>
      </trkpt>
      <trkpt lat="44.33024" lon="5.77593">
        <ele>590.386963</ele>
        <time>2011-02-25T10:20:33Z</time>
      </trkpt>
      <trkpt lat="44.3305" lon="5.77592">
        <ele>589.425537</ele>
        <time>2011-02-25T10:20:38Z</time>
      </trkpt>
      <trkpt lat="44.3306" lon="5.77591">
        <ele>587.021973</ele>
        <time>2011-02-25T10:20:40Z</time>
      </trkpt>
      <trkpt lat="44.33069" lon="5.77591">
        <ele>589.425537</ele>
        <time>2011-02-25T10:20:42Z</time>
      </trkpt>
      <trkpt lat="44.33089" lon="5.77591">
        <ele>587.983398</ele>
        <time>2011-02-25T10:20:47Z</time>
      </trkpt>
      <trkpt lat="44.33096" lon="5.77591">
        <ele>586.541504</ele>
        <time>2011-02-25T10:20:49Z</time>
      </trkpt>
      <trkpt lat="44.33103" lon="5.77591">
        <ele>591.828857</ele>
        <time>2011-02-25T10:20:51Z</time>
      </trkpt>
      <trkpt lat="44.33106" lon="5.77591">
        <ele>591.828857</ele>
        <time>2011-02-25T10:20:52Z</time>
      </trkpt>
      <trkpt lat="44.33152" lon="5.77569">
        <ele>592.30957</ele>
        <time>2011-02-25T10:21:07Z</time>
      </trkpt>
      <trkpt lat="44.33157" lon="5.77565">
        <ele>594.232178</ele>
        <time>2011-02-25T10:21:09Z</time>
      </trkpt>
      <trkpt lat="44.33172" lon="5.77556">
        <ele>589.90625</ele>
        <time>2011-02-25T10:21:14Z</time>
      </trkpt>
      <trkpt lat="44.33175" lon="5.77554">
        <ele>589.90625</ele>
        <time>2011-02-25T10:21:15Z</time>
      </trkpt>
      <trkpt lat="44.33195" lon="5.77535">
        <ele>588.464355</ele>
        <time>2011-02-25T10:21:22Z</time>
      </trkpt>
      <trkpt lat="44.33201" lon="5.77531">
        <ele>587.502686</ele>
        <time>2011-02-25T10:21:24Z</time>
      </trkpt>
      <trkpt lat="44.3321" lon="5.77523">
        <ele>590.386963</ele>
        <time>2011-02-25T10:21:27Z</time>
      </trkpt>
      <trkpt lat="44.33212" lon="5.7752">
        <ele>590.386963</ele>
        <time>2011-02-25T10:21:28Z</time>
      </trkpt>
      <trkpt lat="44.33218" lon="5.77514">
        <ele>588.464355</ele>
        <time>2011-02-25T10:21:30Z</time>
      </trkpt>
      <trkpt lat="44.3323" lon="5.77505">
        <ele>587.021973</ele>
        <time>2011-02-25T10:21:34Z</time>
      </trkpt>
      <trkpt lat="44.33277" lon="5.77497">
        <ele>590.386963</ele>
        <time>2011-02-25T10:21:48Z</time>
      </trkpt>
      <trkpt lat="44.33299" lon="5.77497">
        <ele>591.828857</ele>
        <time>2011-02-25T10:21:55Z</time>
      </trkpt>
      <trkpt lat="44.33316" lon="5.77497">
        <ele>593.751465</ele>
        <time>2011-02-25T10:22:00Z</time>
      </trkpt>
      <trkpt lat="44.33341" lon="5.77497">
        <ele>594.232178</ele>
        <time>2011-02-25T10:22:08Z</time>
      </trkpt>
      <trkpt lat="44.33374" lon="5.77499">
        <ele>594.232178</ele>
        <time>2011-02-25T10:22:20Z</time>
      </trkpt>
      <trkpt lat="44.3338" lon="5.77499">
        <ele>594.712646</ele>
        <time>2011-02-25T10:22:23Z</time>
      </trkpt>
      <trkpt lat="44.33424" lon="5.77507">
        <ele>595.674072</ele>
        <time>2011-02-25T10:22:35Z</time>
      </trkpt>
      <trkpt lat="44.33461" lon="5.77516">
        <ele>595.674072</ele>
        <time>2011-02-25T10:22:44Z</time>
      </trkpt>
      <trkpt lat="44.33529" lon="5.77527">
        <ele>596.635498</ele>
        <time>2011-02-25T10:23:03Z</time>
      </trkpt>
      <trkpt lat="44.33557" lon="5.77536">
        <ele>600</ele>
        <time>2011-02-25T10:23:15Z</time>
      </trkpt>
      <trkpt lat="44.33594" lon="5.77527">
        <ele>602.403076</ele>
        <time>2011-02-25T10:23:33Z</time>
      </trkpt>
      <trkpt lat="44.33627" lon="5.775">
        <ele>604.806641</ele>
        <time>2011-02-25T10:23:50Z</time>
      </trkpt>
      <trkpt lat="44.33667" lon="5.77515">
        <ele>607.209961</ele>
        <time>2011-02-25T10:24:09Z</time>
      </trkpt>
      <trkpt lat="44.33684" lon="5.77522">
        <ele>611.535889</ele>
        <time>2011-02-25T10:24:18Z</time>
      </trkpt>
      <trkpt lat="44.33686" lon="5.77522">
        <ele>611.535889</ele>
        <time>2011-02-25T10:24:19Z</time>
      </trkpt>
      <trkpt lat="44.33697" lon="5.77527">
        <ele>613.458496</ele>
        <time>2011-02-25T10:24:25Z</time>
      </trkpt>
      <trkpt lat="44.33714" lon="5.77533">
        <ele>613.938965</ele>
        <time>2011-02-25T10:24:34Z</time>
      </trkpt>
      <trkpt lat="44.33738" lon="5.77544">
        <ele>616.822998</ele>
        <time>2011-02-25T10:24:47Z</time>
      </trkpt>
      <trkpt lat="44.33754" lon="5.77558">
        <ele>618.745605</ele>
        <time>2011-02-25T10:24:57Z</time>
      </trkpt>
      <trkpt lat="44.33779" lon="5.77574">
        <ele>622.110352</ele>
        <time>2011-02-25T10:25:12Z</time>
      </trkpt>
      <trkpt lat="44.33782" lon="5.77576">
        <ele>622.591064</ele>
        <time>2011-02-25T10:25:14Z</time>
      </trkpt>
      <trkpt lat="44.33825" lon="5.77608">
        <ele>624.032959</ele>
        <time>2011-02-25T10:25:34Z</time>
      </trkpt>
      <trkpt lat="44.33862" lon="5.77649">
        <ele>624.994385</ele>
        <time>2011-02-25T10:25:53Z</time>
      </trkpt>
      <trkpt lat="44.33894" lon="5.7766">
        <ele>625.955566</ele>
        <time>2011-02-25T10:26:06Z</time>
      </trkpt>
      <trkpt lat="44.33933" lon="5.77648">
        <ele>625.474854</ele>
        <time>2011-02-25T10:26:23Z</time>
      </trkpt>
      <trkpt lat="44.33966" lon="5.77614">
        <ele>627.878174</ele>
        <time>2011-02-25T10:26:41Z</time>
      </trkpt>
      <trkpt lat="44.33995" lon="5.77552">
        <ele>630.281494</ele>
        <time>2011-02-25T10:27:03Z</time>
      </trkpt>
      <trkpt lat="44.34011" lon="5.77515">
        <ele>629.320068</ele>
        <time>2011-02-25T10:27:16Z</time>
      </trkpt>
      <trkpt lat="44.34006" lon="5.77487">
        <ele>628.8396</ele>
        <time>2011-02-25T10:27:24Z</time>
      </trkpt>
      <trkpt lat="44.33997" lon="5.77456">
        <ele>624.032959</ele>
        <time>2011-02-25T10:27:30Z</time>
      </trkpt>
      <trkpt lat="44.33994" lon="5.77449">
        <ele>624.032959</ele>
        <time>2011-02-25T10:27:31Z</time>
      </trkpt>
      <trkpt lat="44.33986" lon="5.77425">
        <ele>623.071777</ele>
        <time>2011-02-25T10:27:34Z</time>
      </trkpt>
      <trkpt lat="44.3398" lon="5.77392">
        <ele>620.668457</ele>
        <time>2011-02-25T10:27:38Z</time>
      </trkpt>
      <trkpt lat="44.33982" lon="5.77383">
        <ele>618.745605</ele>
        <time>2011-02-25T10:27:39Z</time>
      </trkpt>
      <trkpt lat="44.33985" lon="5.77356">
        <ele>616.822998</ele>
        <time>2011-02-25T10:27:42Z</time>
      </trkpt>
      <trkpt lat="44.33986" lon="5.77348">
        <ele>615.381104</ele>
        <time>2011-02-25T10:27:43Z</time>
      </trkpt>
      <trkpt lat="44.33988" lon="5.77332">
        <ele>618.745605</ele>
        <time>2011-02-25T10:27:45Z</time>
      </trkpt>
      <trkpt lat="44.33988" lon="5.77325">
        <ele>615.381104</ele>
        <time>2011-02-25T10:27:46Z</time>
      </trkpt>
      <trkpt lat="44.33988" lon="5.77318">
        <ele>615.381104</ele>
        <time>2011-02-25T10:27:47Z</time>
      </trkpt>
      <trkpt lat="44.33979" lon="5.77277">
        <ele>614.900391</ele>
        <time>2011-02-25T10:27:52Z</time>
      </trkpt>
      <trkpt lat="44.33977" lon="5.77258">
        <ele>612.49707</ele>
        <time>2011-02-25T10:27:54Z</time>
      </trkpt>
      <trkpt lat="44.33977" lon="5.77238">
        <ele>611.055176</ele>
        <time>2011-02-25T10:27:56Z</time>
      </trkpt>
      <trkpt lat="44.33979" lon="5.77219">
        <ele>609.613281</ele>
        <time>2011-02-25T10:27:58Z</time>
      </trkpt>
      <trkpt lat="44.33979" lon="5.77192">
        <ele>608.171387</ele>
        <time>2011-02-25T10:28:01Z</time>
      </trkpt>
      <trkpt lat="44.33978" lon="5.77172">
        <ele>606.248535</ele>
        <time>2011-02-25T10:28:03Z</time>
      </trkpt>
      <trkpt lat="44.33977" lon="5.77121">
        <ele>604.326172</ele>
        <time>2011-02-25T10:28:08Z</time>
      </trkpt>
      <trkpt lat="44.3398" lon="5.77076">
        <ele>601.441895</ele>
        <time>2011-02-25T10:28:12Z</time>
      </trkpt>
      <trkpt lat="44.33984" lon="5.77041">
        <ele>598.557861</ele>
        <time>2011-02-25T10:28:15Z</time>
      </trkpt>
      <trkpt lat="44.33987" lon="5.77017">
        <ele>596.635498</ele>
        <time>2011-02-25T10:28:17Z</time>
      </trkpt>
      <trkpt lat="44.33991" lon="5.76991">
        <ele>595.193359</ele>
        <time>2011-02-25T10:28:19Z</time>
      </trkpt>
      <trkpt lat="44.33995" lon="5.76965">
        <ele>591.348145</ele>
        <time>2011-02-25T10:28:21Z</time>
      </trkpt>
      <trkpt lat="44.33996" lon="5.76952">
        <ele>591.348145</ele>
        <time>2011-02-25T10:28:22Z</time>
      </trkpt>
      <trkpt lat="44.3402" lon="5.7683">
        <ele>591.348145</ele>
        <time>2011-02-25T10:28:33Z</time>
      </trkpt>
      <trkpt lat="44.34024" lon="5.76789">
        <ele>590.867432</ele>
        <time>2011-02-25T10:28:37Z</time>
      </trkpt>
      <trkpt lat="44.34017" lon="5.76744">
        <ele>593.270752</ele>
        <time>2011-02-25T10:28:42Z</time>
      </trkpt>
      <trkpt lat="44.34016" lon="5.76736">
        <ele>593.751465</ele>
        <time>2011-02-25T10:28:43Z</time>
      </trkpt>
      <trkpt lat="44.34031" lon="5.76684">
        <ele>589.425537</ele>
        <time>2011-02-25T10:28:51Z</time>
      </trkpt>
      <trkpt lat="44.34051" lon="5.76672">
        <ele>589.425537</ele>
        <time>2011-02-25T10:28:55Z</time>
      </trkpt>
      <trkpt lat="44.34064" lon="5.76663">
        <ele>592.30957</ele>
        <time>2011-02-25T10:28:59Z</time>
      </trkpt>
      <trkpt lat="44.34059" lon="5.76648">
        <ele>593.270752</ele>
        <time>2011-02-25T10:29:01Z</time>
      </trkpt>
      <trkpt lat="44.34047" lon="5.76624">
        <ele>592.30957</ele>
        <time>2011-02-25T10:29:08Z</time>
      </trkpt>
      <trkpt lat="44.34037" lon="5.76599">
        <ele>594.232178</ele>
        <time>2011-02-25T10:29:15Z</time>
      </trkpt>
      <trkpt lat="44.34044" lon="5.76541">
        <ele>593.751465</ele>
        <time>2011-02-25T10:29:30Z</time>
      </trkpt>
      <trkpt lat="44.34078" lon="5.76473">
        <ele>593.751465</ele>
        <time>2011-02-25T10:29:47Z</time>
      </trkpt>
      <trkpt lat="44.34084" lon="5.76462">
        <ele>595.674072</ele>
        <time>2011-02-25T10:29:50Z</time>
      </trkpt>
      <trkpt lat="44.34089" lon="5.76455">
        <ele>594.712646</ele>
        <time>2011-02-25T10:29:52Z</time>
      </trkpt>
      <trkpt lat="44.34125" lon="5.76381">
        <ele>596.154785</ele>
        <time>2011-02-25T10:30:11Z</time>
      </trkpt>
      <trkpt lat="44.34125" lon="5.76381">
        <ele>594.712646</ele>
        <time>2011-02-25T10:30:13Z</time>
      </trkpt>
      <trkpt lat="44.3413" lon="5.76381">
        <ele>592.30957</ele>
        <time>2011-02-25T10:30:15Z</time>
      </trkpt>
      <trkpt lat="44.34135" lon="5.76377">
        <ele>594.232178</ele>
        <time>2011-02-25T10:30:17Z</time>
      </trkpt>
      <trkpt lat="44.34134" lon="5.76351">
        <ele>595.193359</ele>
        <time>2011-02-25T10:30:25Z</time>
      </trkpt>
      <trkpt lat="44.34128" lon="5.76349">
        <ele>595.674072</ele>
        <time>2011-02-25T10:30:33Z</time>
      </trkpt>
      <trkpt lat="44.34128" lon="5.76349">
        <ele>595.674072</ele>
        <time>2011-02-25T10:30:39Z</time>
      </trkpt>
      <trkpt lat="44.34128" lon="5.76349">
        <ele>593.270752</ele>
        <time>2011-02-25T10:30:44Z</time>
      </trkpt>
      <trkpt lat="44.34128" lon="5.76349">
        <ele>597.115967</ele>
        <time>2011-02-25T10:30:45Z</time>
      </trkpt>
      <trkpt lat="44.34128" lon="5.76349">
        <ele>597.115967</ele>
        <time>2011-02-25T10:30:46Z</time>
      </trkpt>
      <trkpt lat="44.34128" lon="5.76349">
        <ele>595.674072</ele>
        <time>2011-02-25T10:30:48Z</time>
      </trkpt>
      <trkpt lat="44.34128" lon="5.76349">
        <ele>596.635498</ele>
        <time>2011-02-25T10:31:11Z</time>
      </trkpt>
      <trkpt lat="44.34128" lon="5.76349">
        <ele>594.712646</ele>
        <time>2011-02-25T10:31:17Z</time>
      </trkpt>
      <trkpt lat="44.34128" lon="5.76349">
        <ele>596.635498</ele>
        <time>2011-02-25T10:31:30Z</time>
      </trkpt>
      <trkpt lat="44.34128" lon="5.76349">
        <ele>596.635498</ele>
        <time>2011-02-25T10:31:38Z</time>
      </trkpt>
      <trkpt lat="44.34128" lon="5.76349">
        <ele>598.077393</ele>
        <time>2011-02-25T10:32:04Z</time>
      </trkpt>
      <trkpt lat="44.34128" lon="5.76349">
        <ele>596.635498</ele>
        <time>2011-02-25T10:32:08Z</time>
      </trkpt>
      <trkpt lat="44.34128" lon="5.76349">
        <ele>596.635498</ele>
        <time>2011-02-25T10:32:09Z</time>
      </trkpt>
      <trkpt lat="44.34118" lon="5.76346">
        <ele>598.077393</ele>
        <time>2011-02-25T10:32:24Z</time>
      </trkpt>
      <trkpt lat="44.34118" lon="5.76346">
        <ele>599.038574</ele>
        <time>2011-02-25T10:32:38Z</time>
      </trkpt>
      <trkpt lat="44.34118" lon="5.76346">
        <ele>598.557861</ele>
        <time>2011-02-25T10:32:49Z</time>
      </trkpt>
      <trkpt lat="44.34115" lon="5.7634">
        <ele>598.557861</ele>
        <time>2011-02-25T10:32:54Z</time>
      </trkpt>
      <trkpt lat="44.34109" lon="5.76326">
        <ele>597.59668</ele>
        <time>2011-02-25T10:32:58Z</time>
      </trkpt>
      <trkpt lat="44.34085" lon="5.76275">
        <ele>598.557861</ele>
        <time>2011-02-25T10:33:14Z</time>
      </trkpt>
      <trkpt lat="44.34052" lon="5.76206">
        <ele>600.480713</ele>
        <time>2011-02-25T10:33:32Z</time>
      </trkpt>
      <trkpt lat="44.34014" lon="5.76128">
        <ele>601.441895</ele>
        <time>2011-02-25T10:33:48Z</time>
      </trkpt>
      <trkpt lat="44.33956" lon="5.76012">
        <ele>601.441895</ele>
        <time>2011-02-25T10:34:09Z</time>
      </trkpt>
      <trkpt lat="44.33944" lon="5.75989">
        <ele>603.364502</ele>
        <time>2011-02-25T10:34:13Z</time>
      </trkpt>
      <trkpt lat="44.33887" lon="5.75874">
        <ele>603.845215</ele>
        <time>2011-02-25T10:34:34Z</time>
      </trkpt>
      <trkpt lat="44.33862" lon="5.75831">
        <ele>605.768066</ele>
        <time>2011-02-25T10:34:43Z</time>
      </trkpt>
      <trkpt lat="44.33804" lon="5.75759">
        <ele>605.768066</ele>
        <time>2011-02-25T10:34:59Z</time>
      </trkpt>
      <trkpt lat="44.33718" lon="5.75663">
        <ele>607.690674</ele>
        <time>2011-02-25T10:35:21Z</time>
      </trkpt>
      <trkpt lat="44.33703" lon="5.75632">
        <ele>606.729248</ele>
        <time>2011-02-25T10:35:26Z</time>
      </trkpt>
      <trkpt lat="44.33655" lon="5.75513">
        <ele>607.209961</ele>
        <time>2011-02-25T10:35:44Z</time>
      </trkpt>
      <trkpt lat="44.33594" lon="5.75455">
        <ele>608.171387</ele>
        <time>2011-02-25T10:35:58Z</time>
      </trkpt>
      <trkpt lat="44.33582" lon="5.75443">
        <ele>608.651855</ele>
        <time>2011-02-25T10:36:01Z</time>
      </trkpt>
      <trkpt lat="44.33538" lon="5.75392">
        <ele>611.535889</ele>
        <time>2011-02-25T10:36:15Z</time>
      </trkpt>
      <trkpt lat="44.33489" lon="5.75334">
        <ele>615.381104</ele>
        <time>2011-02-25T10:36:33Z</time>
      </trkpt>
      <trkpt lat="44.3339" lon="5.75232">
        <ele>617.78418</ele>
        <time>2011-02-25T10:37:04Z</time>
      </trkpt>
      <trkpt lat="44.33299" lon="5.7517">
        <ele>616.822998</ele>
        <time>2011-02-25T10:37:23Z</time>
      </trkpt>
      <trkpt lat="44.33199" lon="5.75099">
        <ele>619.707031</ele>
        <time>2011-02-25T10:37:41Z</time>
      </trkpt>
      <trkpt lat="44.33129" lon="5.75036">
        <ele>622.591064</ele>
        <time>2011-02-25T10:38:02Z</time>
      </trkpt>
      <trkpt lat="44.33093" lon="5.74957">
        <ele>623.55249</ele>
        <time>2011-02-25T10:38:18Z</time>
      </trkpt>
      <trkpt lat="44.33047" lon="5.74858">
        <ele>625.474854</ele>
        <time>2011-02-25T10:38:37Z</time>
      </trkpt>
      <trkpt lat="44.32923" lon="5.74727">
        <ele>625.955566</ele>
        <time>2011-02-25T10:39:07Z</time>
      </trkpt>
      <trkpt lat="44.32828" lon="5.74626">
        <ele>628.358887</ele>
        <time>2011-02-25T10:39:32Z</time>
      </trkpt>
      <trkpt lat="44.32745" lon="5.74559">
        <ele>627.878174</ele>
        <time>2011-02-25T10:39:51Z</time>
      </trkpt>
      <trkpt lat="44.32669" lon="5.74494">
        <ele>631.24292</ele>
        <time>2011-02-25T10:40:11Z</time>
      </trkpt>
      <trkpt lat="44.326" lon="5.74395">
        <ele>633.165283</ele>
        <time>2011-02-25T10:40:34Z</time>
      </trkpt>
      <trkpt lat="44.32525" lon="5.74296">
        <ele>634.126709</ele>
        <time>2011-02-25T10:40:56Z</time>
      </trkpt>
      <trkpt lat="44.32462" lon="5.74214">
        <ele>635.088135</ele>
        <time>2011-02-25T10:41:14Z</time>
      </trkpt>
      <trkpt lat="44.32427" lon="5.74149">
        <ele>631.723389</ele>
        <time>2011-02-25T10:41:23Z</time>
      </trkpt>
      <trkpt lat="44.32363" lon="5.7403">
        <ele>632.684814</ele>
        <time>2011-02-25T10:41:38Z</time>
      </trkpt>
      <trkpt lat="44.32328" lon="5.73962">
        <ele>635.088135</ele>
        <time>2011-02-25T10:41:51Z</time>
      </trkpt>
      <trkpt lat="44.32287" lon="5.7387">
        <ele>637.972168</ele>
        <time>2011-02-25T10:42:13Z</time>
      </trkpt>
      <trkpt lat="44.32251" lon="5.73775">
        <ele>638.452881</ele>
        <time>2011-02-25T10:42:33Z</time>
      </trkpt>
      <trkpt lat="44.32233" lon="5.7372">
        <ele>638.452881</ele>
        <time>2011-02-25T10:42:44Z</time>
      </trkpt>
      <trkpt lat="44.32189" lon="5.73592">
        <ele>638.933594</ele>
        <time>2011-02-25T10:43:06Z</time>
      </trkpt>
      <trkpt lat="44.32148" lon="5.73475">
        <ele>640.855957</ele>
        <time>2011-02-25T10:43:29Z</time>
      </trkpt>
      <trkpt lat="44.32105" lon="5.73357">
        <ele>641.817383</ele>
        <time>2011-02-25T10:43:51Z</time>
      </trkpt>
      <trkpt lat="44.32069" lon="5.73225">
        <ele>641.817383</ele>
        <time>2011-02-25T10:44:10Z</time>
      </trkpt>
      <trkpt lat="44.32059" lon="5.73147">
        <ele>642.778809</ele>
        <time>2011-02-25T10:44:22Z</time>
      </trkpt>
      <trkpt lat="44.32041" lon="5.73003">
        <ele>643.259277</ele>
        <time>2011-02-25T10:44:45Z</time>
      </trkpt>
      <trkpt lat="44.32037" lon="5.72974">
        <ele>643.73999</ele>
        <time>2011-02-25T10:44:50Z</time>
      </trkpt>
      <trkpt lat="44.32015" lon="5.72814">
        <ele>645.662598</ele>
        <time>2011-02-25T10:45:17Z</time>
      </trkpt>
      <trkpt lat="44.32002" lon="5.72716">
        <ele>648.065918</ele>
        <time>2011-02-25T10:45:35Z</time>
      </trkpt>
      <trkpt lat="44.31982" lon="5.72573">
        <ele>650.469238</ele>
        <time>2011-02-25T10:46:01Z</time>
      </trkpt>
      <trkpt lat="44.31979" lon="5.72557">
        <ele>650.469238</ele>
        <time>2011-02-25T10:46:04Z</time>
      </trkpt>
      <trkpt lat="44.31961" lon="5.72508">
        <ele>650.949707</ele>
        <time>2011-02-25T10:46:13Z</time>
      </trkpt>
      <trkpt lat="44.31933" lon="5.72446">
        <ele>651.43042</ele>
        <time>2011-02-25T10:46:25Z</time>
      </trkpt>
      <trkpt lat="44.31926" lon="5.7243">
        <ele>651.911133</ele>
        <time>2011-02-25T10:46:28Z</time>
      </trkpt>
      <trkpt lat="44.3189" lon="5.72353">
        <ele>653.353271</ele>
        <time>2011-02-25T10:46:45Z</time>
      </trkpt>
      <trkpt lat="44.31864" lon="5.7225">
        <ele>654.314697</ele>
        <time>2011-02-25T10:47:04Z</time>
      </trkpt>
      <trkpt lat="44.31831" lon="5.72115">
        <ele>655.756592</ele>
        <time>2011-02-25T10:47:28Z</time>
      </trkpt>
      <trkpt lat="44.31799" lon="5.7201">
        <ele>657.198486</ele>
        <time>2011-02-25T10:47:48Z</time>
      </trkpt>
      <trkpt lat="44.31772" lon="5.71946">
        <ele>657.198486</ele>
        <time>2011-02-25T10:48:00Z</time>
      </trkpt>
      <trkpt lat="44.31764" lon="5.71901">
        <ele>657.679199</ele>
        <time>2011-02-25T10:48:07Z</time>
      </trkpt>
      <trkpt lat="44.31752" lon="5.71752">
        <ele>660.082275</ele>
        <time>2011-02-25T10:48:32Z</time>
      </trkpt>
      <trkpt lat="44.31732" lon="5.71678">
        <ele>660.562988</ele>
        <time>2011-02-25T10:48:45Z</time>
      </trkpt>
      <trkpt lat="44.31676" lon="5.71573">
        <ele>659.601807</ele>
        <time>2011-02-25T10:49:03Z</time>
      </trkpt>
      <trkpt lat="44.31627" lon="5.71448">
        <ele>659.601807</ele>
        <time>2011-02-25T10:49:23Z</time>
      </trkpt>
      <trkpt lat="44.31599" lon="5.71345">
        <ele>660.562988</ele>
        <time>2011-02-25T10:49:41Z</time>
      </trkpt>
      <trkpt lat="44.31583" lon="5.71259">
        <ele>662.966309</ele>
        <time>2011-02-25T10:49:59Z</time>
      </trkpt>
      <trkpt lat="44.31562" lon="5.71153">
        <ele>663.92749</ele>
        <time>2011-02-25T10:50:20Z</time>
      </trkpt>
      <trkpt lat="44.31542" lon="5.71076">
        <ele>666.330811</ele>
        <time>2011-02-25T10:50:38Z</time>
      </trkpt>
      <trkpt lat="44.31535" lon="5.70982">
        <ele>667.772705</ele>
        <time>2011-02-25T10:50:58Z</time>
      </trkpt>
      <trkpt lat="44.3155" lon="5.70887">
        <ele>667.772705</ele>
        <time>2011-02-25T10:51:17Z</time>
      </trkpt>
      <trkpt lat="44.31563" lon="5.70777">
        <ele>670.656982</ele>
        <time>2011-02-25T10:51:41Z</time>
      </trkpt>
      <trkpt lat="44.31556" lon="5.70685">
        <ele>674.021484</ele>
        <time>2011-02-25T10:52:03Z</time>
      </trkpt>
      <trkpt lat="44.31532" lon="5.70618">
        <ele>675.944092</ele>
        <time>2011-02-25T10:52:22Z</time>
      </trkpt>
      <trkpt lat="44.31501" lon="5.70552">
        <ele>677.866699</ele>
        <time>2011-02-25T10:52:42Z</time>
      </trkpt>
      <trkpt lat="44.31479" lon="5.70449">
        <ele>679.308594</ele>
        <time>2011-02-25T10:53:06Z</time>
      </trkpt>
      <trkpt lat="44.31451" lon="5.70381">
        <ele>680.750732</ele>
        <time>2011-02-25T10:53:23Z</time>
      </trkpt>
      <trkpt lat="44.31428" lon="5.70301">
        <ele>682.67334</ele>
        <time>2011-02-25T10:53:43Z</time>
      </trkpt>
      <trkpt lat="44.31425" lon="5.70227">
        <ele>684.596191</ele>
        <time>2011-02-25T10:54:01Z</time>
      </trkpt>
      <trkpt lat="44.31404" lon="5.70139">
        <ele>687.47998</ele>
        <time>2011-02-25T10:54:24Z</time>
      </trkpt>
      <trkpt lat="44.3138" lon="5.70073">
        <ele>689.402588</ele>
        <time>2011-02-25T10:54:42Z</time>
      </trkpt>
      <trkpt lat="44.31364" lon="5.69992">
        <ele>688.441406</ele>
        <time>2011-02-25T10:54:59Z</time>
      </trkpt>
      <trkpt lat="44.31359" lon="5.69966">
        <ele>688.441406</ele>
        <time>2011-02-25T10:55:03Z</time>
      </trkpt>
      <trkpt lat="44.31335" lon="5.69856">
        <ele>686.999268</ele>
        <time>2011-02-25T10:55:19Z</time>
      </trkpt>
      <trkpt lat="44.31332" lon="5.69844">
        <ele>686.518799</ele>
        <time>2011-02-25T10:55:21Z</time>
      </trkpt>
      <trkpt lat="44.31325" lon="5.69775">
        <ele>686.518799</ele>
        <time>2011-02-25T10:55:31Z</time>
      </trkpt>
      <trkpt lat="44.3133" lon="5.69644">
        <ele>686.999268</ele>
        <time>2011-02-25T10:55:52Z</time>
      </trkpt>
      <trkpt lat="44.31338" lon="5.6953">
        <ele>687.47998</ele>
        <time>2011-02-25T10:56:12Z</time>
      </trkpt>
      <trkpt lat="44.3134" lon="5.69524">
        <ele>687.47998</ele>
        <time>2011-02-25T10:56:13Z</time>
      </trkpt>
      <trkpt lat="44.31356" lon="5.69446">
        <ele>686.038086</ele>
        <time>2011-02-25T10:56:25Z</time>
      </trkpt>
      <trkpt lat="44.31354" lon="5.69348">
        <ele>685.076904</ele>
        <time>2011-02-25T10:56:40Z</time>
      </trkpt>
      <trkpt lat="44.31352" lon="5.69303">
        <ele>685.557373</ele>
        <time>2011-02-25T10:56:48Z</time>
      </trkpt>
      <trkpt lat="44.31344" lon="5.69258">
        <ele>684.115479</ele>
        <time>2011-02-25T10:56:57Z</time>
      </trkpt>
      <trkpt lat="44.31329" lon="5.6924">
        <ele>682.67334</ele>
        <time>2011-02-25T10:57:01Z</time>
      </trkpt>
      <trkpt lat="44.3135" lon="5.69204">
        <ele>680.750732</ele>
        <time>2011-02-25T10:57:04Z</time>
      </trkpt>
      <trkpt lat="44.31345" lon="5.69184">
        <ele>680.750732</ele>
        <time>2011-02-25T10:57:08Z</time>
      </trkpt>
      <trkpt lat="44.31315" lon="5.69112">
        <ele>681.711914</ele>
        <time>2011-02-25T10:57:18Z</time>
      </trkpt>
      <trkpt lat="44.31302" lon="5.69045">
        <ele>683.634521</ele>
        <time>2011-02-25T10:57:32Z</time>
      </trkpt>
      <trkpt lat="44.31304" lon="5.69007">
        <ele>685.076904</ele>
        <time>2011-02-25T10:57:43Z</time>
      </trkpt>
      <trkpt lat="44.31323" lon="5.68938">
        <ele>684.596191</ele>
        <time>2011-02-25T10:57:59Z</time>
      </trkpt>
      <trkpt lat="44.31352" lon="5.68899">
        <ele>684.596191</ele>
        <time>2011-02-25T10:58:12Z</time>
      </trkpt>
      <trkpt lat="44.31417" lon="5.68852">
        <ele>684.596191</ele>
        <time>2011-02-25T10:58:32Z</time>
      </trkpt>
      <trkpt lat="44.31464" lon="5.68798">
        <ele>686.518799</ele>
        <time>2011-02-25T10:58:50Z</time>
      </trkpt>
      <trkpt lat="44.3149" lon="5.68695">
        <ele>688.922119</ele>
        <time>2011-02-25T10:59:12Z</time>
      </trkpt>
      <trkpt lat="44.31488" lon="5.68601">
        <ele>690.364014</ele>
        <time>2011-02-25T10:59:30Z</time>
      </trkpt>
      <trkpt lat="44.31488" lon="5.68472">
        <ele>691.325195</ele>
        <time>2011-02-25T10:59:54Z</time>
      </trkpt>
      <trkpt lat="44.31453" lon="5.68399">
        <ele>693.247803</ele>
        <time>2011-02-25T11:00:11Z</time>
      </trkpt>
      <trkpt lat="44.31408" lon="5.68292">
        <ele>694.209229</ele>
        <time>2011-02-25T11:00:33Z</time>
      </trkpt>
      <trkpt lat="44.31398" lon="5.68206">
        <ele>695.17041</ele>
        <time>2011-02-25T11:00:50Z</time>
      </trkpt>
      <trkpt lat="44.31408" lon="5.68133">
        <ele>695.651123</ele>
        <time>2011-02-25T11:01:07Z</time>
      </trkpt>
      <trkpt lat="44.31412" lon="5.68127">
        <ele>694.209229</ele>
        <time>2011-02-25T11:01:09Z</time>
      </trkpt>
      <trkpt lat="44.31405" lon="5.68104">
        <ele>695.17041</ele>
        <time>2011-02-25T11:01:19Z</time>
      </trkpt>
      <trkpt lat="44.31405" lon="5.68104">
        <ele>696.131836</ele>
        <time>2011-02-25T11:01:29Z</time>
      </trkpt>
      <trkpt lat="44.31405" lon="5.68104">
        <ele>696.612549</ele>
        <time>2011-02-25T11:01:34Z</time>
      </trkpt>
      <trkpt lat="44.31405" lon="5.68104">
        <ele>698.534912</ele>
        <time>2011-02-25T11:02:14Z</time>
      </trkpt>
      <trkpt lat="44.31405" lon="5.68104">
        <ele>696.131836</ele>
        <time>2011-02-25T11:02:22Z</time>
      </trkpt>
      <trkpt lat="44.31405" lon="5.68104">
        <ele>698.054443</ele>
        <time>2011-02-25T11:02:26Z</time>
      </trkpt>
      <trkpt lat="44.31405" lon="5.68104">
        <ele>696.612549</ele>
        <time>2011-02-25T11:03:06Z</time>
      </trkpt>
      <trkpt lat="44.31405" lon="5.68104">
        <ele>695.17041</ele>
        <time>2011-02-25T11:03:16Z</time>
      </trkpt>
      <trkpt lat="44.31405" lon="5.68104">
        <ele>697.093018</ele>
        <time>2011-02-25T11:03:21Z</time>
      </trkpt>
      <trkpt lat="44.31405" lon="5.68104">
        <ele>695.651123</ele>
        <time>2011-02-25T11:03:54Z</time>
      </trkpt>
      <trkpt lat="44.31405" lon="5.68104">
        <ele>696.131836</ele>
        <time>2011-02-25T11:04:28Z</time>
      </trkpt>
      <trkpt lat="44.31405" lon="5.68104">
        <ele>697.093018</ele>
        <time>2011-02-25T11:05:22Z</time>
      </trkpt>
      <trkpt lat="44.31405" lon="5.68104">
        <ele>697.57373</ele>
        <time>2011-02-25T11:06:04Z</time>
      </trkpt>
      <trkpt lat="44.31405" lon="5.68104">
        <ele>697.093018</ele>
        <time>2011-02-25T11:06:51Z</time>
      </trkpt>
      <trkpt lat="44.31405" lon="5.68104">
        <ele>699.977051</ele>
        <time>2011-02-25T11:07:17Z</time>
      </trkpt>
      <trkpt lat="44.31405" lon="5.68104">
        <ele>699.015625</ele>
        <time>2011-02-25T11:07:42Z</time>
      </trkpt>
      <trkpt lat="44.31405" lon="5.68104">
        <ele>700.458008</ele>
        <time>2011-02-25T11:07:44Z</time>
      </trkpt>
      <trkpt lat="44.31405" lon="5.68104">
        <ele>697.57373</ele>
        <time>2011-02-25T11:07:50Z</time>
      </trkpt>
      <trkpt lat="44.31405" lon="5.68104">
        <ele>699.496338</ele>
        <time>2011-02-25T11:08:13Z</time>
      </trkpt>
      <trkpt lat="44.31405" lon="5.68104">
        <ele>699.496338</ele>
        <time>2011-02-25T11:08:24Z</time>
      </trkpt>
      <trkpt lat="44.31405" lon="5.68104">
        <ele>699.015625</ele>
        <time>2011-02-25T11:08:38Z</time>
      </trkpt>
      <trkpt lat="44.31406" lon="5.6809">
        <ele>697.093018</ele>
        <time>2011-02-25T11:08:42Z</time>
      </trkpt>
      <trkpt lat="44.31408" lon="5.68023">
        <ele>697.093018</ele>
        <time>2011-02-25T11:08:55Z</time>
      </trkpt>
      <trkpt lat="44.31408" lon="5.68018">
        <ele>697.093018</ele>
        <time>2011-02-25T11:08:56Z</time>
      </trkpt>
      <trkpt lat="44.3141" lon="5.67918">
        <ele>697.093018</ele>
        <time>2011-02-25T11:09:14Z</time>
      </trkpt>
      <trkpt lat="44.3141" lon="5.67906">
        <ele>699.496338</ele>
        <time>2011-02-25T11:09:16Z</time>
      </trkpt>
      <trkpt lat="44.3141" lon="5.67883">
        <ele>696.131836</ele>
        <time>2011-02-25T11:09:20Z</time>
      </trkpt>
      <trkpt lat="44.3141" lon="5.67878">
        <ele>696.131836</ele>
        <time>2011-02-25T11:09:21Z</time>
      </trkpt>
      <trkpt lat="44.31407" lon="5.67823">
        <ele>693.728516</ele>
        <time>2011-02-25T11:09:31Z</time>
      </trkpt>
      <trkpt lat="44.31407" lon="5.67817">
        <ele>697.093018</ele>
        <time>2011-02-25T11:09:32Z</time>
      </trkpt>
      <trkpt lat="44.31406" lon="5.67812">
        <ele>697.093018</ele>
        <time>2011-02-25T11:09:33Z</time>
      </trkpt>
      <trkpt lat="44.31401" lon="5.67737">
        <ele>699.977051</ele>
        <time>2011-02-25T11:09:48Z</time>
      </trkpt>
      <trkpt lat="44.31401" lon="5.67731">
        <ele>699.977051</ele>
        <time>2011-02-25T11:09:49Z</time>
      </trkpt>
      <trkpt lat="44.31397" lon="5.67691">
        <ele>699.977051</ele>
        <time>2011-02-25T11:09:56Z</time>
      </trkpt>
      <trkpt lat="44.31396" lon="5.67678">
        <ele>700.458008</ele>
        <time>2011-02-25T11:09:58Z</time>
      </trkpt>
      <trkpt lat="44.31389" lon="5.67602">
        <ele>699.496338</ele>
        <time>2011-02-25T11:10:10Z</time>
      </trkpt>
      <trkpt lat="44.31378" lon="5.67539">
        <ele>702.380371</ele>
        <time>2011-02-25T11:10:21Z</time>
      </trkpt>
      <trkpt lat="44.31345" lon="5.67461">
        <ele>704.303223</ele>
        <time>2011-02-25T11:10:39Z</time>
      </trkpt>
      <trkpt lat="44.3129" lon="5.67353">
        <ele>704.783691</ele>
        <time>2011-02-25T11:11:04Z</time>
      </trkpt>
      <trkpt lat="44.31268" lon="5.67322">
        <ele>707.667725</ele>
        <time>2011-02-25T11:11:12Z</time>
      </trkpt>
      <trkpt lat="44.3126" lon="5.67311">
        <ele>709.109619</ele>
        <time>2011-02-25T11:11:15Z</time>
      </trkpt>
      <trkpt lat="44.31207" lon="5.67255">
        <ele>708.148438</ele>
        <time>2011-02-25T11:11:34Z</time>
      </trkpt>
      <trkpt lat="44.31166" lon="5.67198">
        <ele>709.109619</ele>
        <time>2011-02-25T11:11:51Z</time>
      </trkpt>
      <trkpt lat="44.31134" lon="5.67178">
        <ele>709.590332</ele>
        <time>2011-02-25T11:12:00Z</time>
      </trkpt>
      <trkpt lat="44.31076" lon="5.6714">
        <ele>710.070801</ele>
        <time>2011-02-25T11:12:16Z</time>
      </trkpt>
      <trkpt lat="44.31052" lon="5.67122">
        <ele>710.070801</ele>
        <time>2011-02-25T11:12:22Z</time>
      </trkpt>
      <trkpt lat="44.30977" lon="5.67029">
        <ele>709.590332</ele>
        <time>2011-02-25T11:12:45Z</time>
      </trkpt>
      <trkpt lat="44.30929" lon="5.66943">
        <ele>711.993652</ele>
        <time>2011-02-25T11:13:05Z</time>
      </trkpt>
      <trkpt lat="44.30876" lon="5.66857">
        <ele>713.916016</ele>
        <time>2011-02-25T11:13:27Z</time>
      </trkpt>
      <trkpt lat="44.30821" lon="5.66801">
        <ele>714.396729</ele>
        <time>2011-02-25T11:13:46Z</time>
      </trkpt>
      <trkpt lat="44.30745" lon="5.66733">
        <ele>714.877441</ele>
        <time>2011-02-25T11:14:07Z</time>
      </trkpt>
      <trkpt lat="44.30674" lon="5.66695">
        <ele>714.877441</ele>
        <time>2011-02-25T11:14:23Z</time>
      </trkpt>
      <trkpt lat="44.30602" lon="5.66607">
        <ele>715.358154</ele>
        <time>2011-02-25T11:14:43Z</time>
      </trkpt>
      <trkpt lat="44.30548" lon="5.66553">
        <ele>716.800293</ele>
        <time>2011-02-25T11:15:00Z</time>
      </trkpt>
      <trkpt lat="44.30531" lon="5.66548">
        <ele>716.800293</ele>
        <time>2011-02-25T11:15:04Z</time>
      </trkpt>
      <trkpt lat="44.30435" lon="5.66557">
        <ele>716.31958</ele>
        <time>2011-02-25T11:15:25Z</time>
      </trkpt>
      <trkpt lat="44.30412" lon="5.66549">
        <ele>717.281006</ele>
        <time>2011-02-25T11:15:31Z</time>
      </trkpt>
      <trkpt lat="44.3036" lon="5.66506">
        <ele>719.203613</ele>
        <time>2011-02-25T11:15:49Z</time>
      </trkpt>
      <trkpt lat="44.30309" lon="5.66443">
        <ele>720.645508</ele>
        <time>2011-02-25T11:16:09Z</time>
      </trkpt>
      <trkpt lat="44.30288" lon="5.66363">
        <ele>724.01001</ele>
        <time>2011-02-25T11:16:27Z</time>
      </trkpt>
      <trkpt lat="44.30279" lon="5.66301">
        <ele>726.894043</ele>
        <time>2011-02-25T11:16:42Z</time>
      </trkpt>
      <trkpt lat="44.30263" lon="5.66253">
        <ele>726.894043</ele>
        <time>2011-02-25T11:16:55Z</time>
      </trkpt>
      <trkpt lat="44.30231" lon="5.66195">
        <ele>728.81665</ele>
        <time>2011-02-25T11:17:12Z</time>
      </trkpt>
      <trkpt lat="44.30194" lon="5.66126">
        <ele>730.258545</ele>
        <time>2011-02-25T11:17:32Z</time>
      </trkpt>
      <trkpt lat="44.30168" lon="5.66036">
        <ele>732.662109</ele>
        <time>2011-02-25T11:17:54Z</time>
      </trkpt>
      <trkpt lat="44.3014" lon="5.65945">
        <ele>735.06543</ele>
        <time>2011-02-25T11:18:16Z</time>
      </trkpt>
      <trkpt lat="44.30105" lon="5.65867">
        <ele>736.026611</ele>
        <time>2011-02-25T11:18:36Z</time>
      </trkpt>
      <trkpt lat="44.30079" lon="5.65799">
        <ele>738.429932</ele>
        <time>2011-02-25T11:18:53Z</time>
      </trkpt>
      <trkpt lat="44.30054" lon="5.65723">
        <ele>741.313721</ele>
        <time>2011-02-25T11:19:11Z</time>
      </trkpt>
      <trkpt lat="44.30023" lon="5.65628">
        <ele>742.275146</ele>
        <time>2011-02-25T11:19:34Z</time>
      </trkpt>
      <trkpt lat="44.30014" lon="5.65608">
        <ele>739.871826</ele>
        <time>2011-02-25T11:19:39Z</time>
      </trkpt>
      <trkpt lat="44.30011" lon="5.656">
        <ele>742.275146</ele>
        <time>2011-02-25T11:19:41Z</time>
      </trkpt>
      <trkpt lat="44.29997" lon="5.65565">
        <ele>740.352539</ele>
        <time>2011-02-25T11:19:50Z</time>
      </trkpt>
      <trkpt lat="44.29966" lon="5.65487">
        <ele>743.717041</ele>
        <time>2011-02-25T11:20:10Z</time>
      </trkpt>
      <trkpt lat="44.2993" lon="5.65397">
        <ele>745.639648</ele>
        <time>2011-02-25T11:20:32Z</time>
      </trkpt>
      <trkpt lat="44.29909" lon="5.65344">
        <ele>744.678223</ele>
        <time>2011-02-25T11:20:45Z</time>
      </trkpt>
      <trkpt lat="44.29903" lon="5.65329">
        <ele>745.158936</ele>
        <time>2011-02-25T11:20:49Z</time>
      </trkpt>
      <trkpt lat="44.29883" lon="5.65281">
        <ele>747.081543</ele>
        <time>2011-02-25T11:21:02Z</time>
      </trkpt>
      <trkpt lat="44.29859" lon="5.65225">
        <ele>750.446533</ele>
        <time>2011-02-25T11:21:17Z</time>
      </trkpt>
      <trkpt lat="44.2985" lon="5.65205">
        <ele>745.158936</ele>
        <time>2011-02-25T11:21:22Z</time>
      </trkpt>
      <trkpt lat="44.29849" lon="5.65202">
        <ele>745.158936</ele>
        <time>2011-02-25T11:21:23Z</time>
      </trkpt>
      <trkpt lat="44.29842" lon="5.65188">
        <ele>747.081543</ele>
        <time>2011-02-25T11:21:27Z</time>
      </trkpt>
      <trkpt lat="44.2983" lon="5.65162">
        <ele>749.96582</ele>
        <time>2011-02-25T11:21:34Z</time>
      </trkpt>
      <trkpt lat="44.29813" lon="5.65122">
        <ele>749.004395</ele>
        <time>2011-02-25T11:21:44Z</time>
      </trkpt>
      <trkpt lat="44.29803" lon="5.65099">
        <ele>746.601074</ele>
        <time>2011-02-25T11:21:50Z</time>
      </trkpt>
      <trkpt lat="44.29787" lon="5.65061">
        <ele>749.96582</ele>
        <time>2011-02-25T11:21:59Z</time>
      </trkpt>
      <trkpt lat="44.29752" lon="5.64977">
        <ele>750.446533</ele>
        <time>2011-02-25T11:22:17Z</time>
      </trkpt>
      <trkpt lat="44.29709" lon="5.64876">
        <ele>751.407715</ele>
        <time>2011-02-25T11:22:39Z</time>
      </trkpt>
      <trkpt lat="44.29683" lon="5.64802">
        <ele>752.368896</ele>
        <time>2011-02-25T11:22:55Z</time>
      </trkpt>
      <trkpt lat="44.29679" lon="5.64784">
        <ele>750.927002</ele>
        <time>2011-02-25T11:22:59Z</time>
      </trkpt>
      <trkpt lat="44.29677" lon="5.64769">
        <ele>749.485107</ele>
        <time>2011-02-25T11:23:02Z</time>
      </trkpt>
      <trkpt lat="44.2968" lon="5.64718">
        <ele>750.927002</ele>
        <time>2011-02-25T11:23:12Z</time>
      </trkpt>
      <trkpt lat="44.29678" lon="5.64698">
        <ele>750.446533</ele>
        <time>2011-02-25T11:23:15Z</time>
      </trkpt>
      <trkpt lat="44.29663" lon="5.64665">
        <ele>751.407715</ele>
        <time>2011-02-25T11:23:22Z</time>
      </trkpt>
      <trkpt lat="44.29623" lon="5.64608">
        <ele>750.446533</ele>
        <time>2011-02-25T11:23:38Z</time>
      </trkpt>
      <trkpt lat="44.29613" lon="5.64559">
        <ele>749.96582</ele>
        <time>2011-02-25T11:23:48Z</time>
      </trkpt>
      <trkpt lat="44.29607" lon="5.64527">
        <ele>752.368896</ele>
        <time>2011-02-25T11:23:55Z</time>
      </trkpt>
      <trkpt lat="44.296" lon="5.64485">
        <ele>752.368896</ele>
        <time>2011-02-25T11:24:04Z</time>
      </trkpt>
      <trkpt lat="44.29581" lon="5.64425">
        <ele>755.733643</ele>
        <time>2011-02-25T11:24:16Z</time>
      </trkpt>
      <trkpt lat="44.29567" lon="5.64384">
        <ele>754.291748</ele>
        <time>2011-02-25T11:24:24Z</time>
      </trkpt>
      <trkpt lat="44.2952" lon="5.64282">
        <ele>751.407715</ele>
        <time>2011-02-25T11:24:43Z</time>
      </trkpt>
      <trkpt lat="44.29509" lon="5.64259">
        <ele>752.368896</ele>
        <time>2011-02-25T11:24:47Z</time>
      </trkpt>
      <trkpt lat="44.2948" lon="5.64217">
        <ele>752.849609</ele>
        <time>2011-02-25T11:24:55Z</time>
      </trkpt>
      <trkpt lat="44.29466" lon="5.64193">
        <ele>752.849609</ele>
        <time>2011-02-25T11:24:59Z</time>
      </trkpt>
      <trkpt lat="44.29458" lon="5.64163">
        <ele>752.849609</ele>
        <time>2011-02-25T11:25:03Z</time>
      </trkpt>
      <trkpt lat="44.29436" lon="5.64033">
        <ele>752.849609</ele>
        <time>2011-02-25T11:25:19Z</time>
      </trkpt>
      <trkpt lat="44.29414" lon="5.63978">
        <ele>753.330322</ele>
        <time>2011-02-25T11:25:29Z</time>
      </trkpt>
      <trkpt lat="44.29384" lon="5.63932">
        <ele>753.811035</ele>
        <time>2011-02-25T11:25:46Z</time>
      </trkpt>
      <trkpt lat="44.29375" lon="5.63921">
        <ele>753.330322</ele>
        <time>2011-02-25T11:25:59Z</time>
      </trkpt>
      <trkpt lat="44.29353" lon="5.639">
        <ele>753.811035</ele>
        <time>2011-02-25T11:26:21Z</time>
      </trkpt>
      <trkpt lat="44.2935" lon="5.63896">
        <ele>753.330322</ele>
        <time>2011-02-25T11:26:43Z</time>
      </trkpt>
      <trkpt lat="44.2932" lon="5.63852">
        <ele>753.330322</ele>
        <time>2011-02-25T11:27:01Z</time>
      </trkpt>
      <trkpt lat="44.29294" lon="5.63815">
        <ele>754.772217</ele>
        <time>2011-02-25T11:27:24Z</time>
      </trkpt>
      <trkpt lat="44.29284" lon="5.638">
        <ele>754.772217</ele>
        <time>2011-02-25T11:27:32Z</time>
      </trkpt>
      <trkpt lat="44.29273" lon="5.63762">
        <ele>755.25293</ele>
        <time>2011-02-25T11:27:55Z</time>
      </trkpt>
      <trkpt lat="44.29274" lon="5.6373">
        <ele>755.25293</ele>
        <time>2011-02-25T11:28:07Z</time>
      </trkpt>
      <trkpt lat="44.29276" lon="5.63679">
        <ele>756.214111</ele>
        <time>2011-02-25T11:28:16Z</time>
      </trkpt>
      <trkpt lat="44.29273" lon="5.63652">
        <ele>756.694824</ele>
        <time>2011-02-25T11:28:21Z</time>
      </trkpt>
      <trkpt lat="44.29267" lon="5.6363">
        <ele>756.694824</ele>
        <time>2011-02-25T11:28:25Z</time>
      </trkpt>
      <trkpt lat="44.29263" lon="5.63619">
        <ele>756.694824</ele>
        <time>2011-02-25T11:28:27Z</time>
      </trkpt>
      <trkpt lat="44.29227" lon="5.63571">
        <ele>757.175537</ele>
        <time>2011-02-25T11:28:38Z</time>
      </trkpt>
      <trkpt lat="44.29169" lon="5.63449">
        <ele>759.578857</ele>
        <time>2011-02-25T11:28:59Z</time>
      </trkpt>
      <trkpt lat="44.29156" lon="5.63373">
        <ele>760.540039</ele>
        <time>2011-02-25T11:29:11Z</time>
      </trkpt>
      <trkpt lat="44.29145" lon="5.63255">
        <ele>761.501465</ele>
        <time>2011-02-25T11:29:29Z</time>
      </trkpt>
      <trkpt lat="44.29157" lon="5.63176">
        <ele>761.982178</ele>
        <time>2011-02-25T11:29:41Z</time>
      </trkpt>
      <trkpt lat="44.29156" lon="5.6308">
        <ele>763.424072</ele>
        <time>2011-02-25T11:29:59Z</time>
      </trkpt>
      <trkpt lat="44.29148" lon="5.62979">
        <ele>766.788818</ele>
        <time>2011-02-25T11:30:20Z</time>
      </trkpt>
      <trkpt lat="44.29136" lon="5.62886">
        <ele>767.75</ele>
        <time>2011-02-25T11:30:39Z</time>
      </trkpt>
      <trkpt lat="44.29101" lon="5.62809">
        <ele>771.595215</ele>
        <time>2011-02-25T11:30:57Z</time>
      </trkpt>
      <trkpt lat="44.29062" lon="5.62741">
        <ele>773.037354</ele>
        <time>2011-02-25T11:31:14Z</time>
      </trkpt>
      <trkpt lat="44.2906" lon="5.62736">
        <ele>773.037354</ele>
        <time>2011-02-25T11:31:15Z</time>
      </trkpt>
      <trkpt lat="44.29028" lon="5.62663">
        <ele>773.037354</ele>
        <time>2011-02-25T11:31:28Z</time>
      </trkpt>
      <trkpt lat="44.28981" lon="5.62541">
        <ele>774.479248</ele>
        <time>2011-02-25T11:31:50Z</time>
      </trkpt>
      <trkpt lat="44.2896" lon="5.62429">
        <ele>775.44043</ele>
        <time>2011-02-25T11:32:09Z</time>
      </trkpt>
      <trkpt lat="44.28926" lon="5.62293">
        <ele>777.363281</ele>
        <time>2011-02-25T11:32:33Z</time>
      </trkpt>
      <trkpt lat="44.289" lon="5.62168">
        <ele>778.324463</ele>
        <time>2011-02-25T11:32:56Z</time>
      </trkpt>
      <trkpt lat="44.28896" lon="5.62086">
        <ele>782.169922</ele>
        <time>2011-02-25T11:33:14Z</time>
      </trkpt>
      <trkpt lat="44.28914" lon="5.62001">
        <ele>782.169922</ele>
        <time>2011-02-25T11:33:34Z</time>
      </trkpt>
      <trkpt lat="44.2896" lon="5.61941">
        <ele>782.650635</ele>
        <time>2011-02-25T11:33:54Z</time>
      </trkpt>
      <trkpt lat="44.29047" lon="5.61871">
        <ele>785.053955</ele>
        <time>2011-02-25T11:34:24Z</time>
      </trkpt>
      <trkpt lat="44.29095" lon="5.61833">
        <ele>786.976318</ele>
        <time>2011-02-25T11:34:41Z</time>
      </trkpt>
      <trkpt lat="44.29155" lon="5.61787">
        <ele>789.860352</ele>
        <time>2011-02-25T11:35:02Z</time>
      </trkpt>
      <trkpt lat="44.29196" lon="5.61753">
        <ele>787.457031</ele>
        <time>2011-02-25T11:35:17Z</time>
      </trkpt>
      <trkpt lat="44.29212" lon="5.6173">
        <ele>790.821533</ele>
        <time>2011-02-25T11:35:24Z</time>
      </trkpt>
      <trkpt lat="44.29215" lon="5.61726">
        <ele>790.821533</ele>
        <time>2011-02-25T11:35:25Z</time>
      </trkpt>
      <trkpt lat="44.2924" lon="5.61626">
        <ele>791.782959</ele>
        <time>2011-02-25T11:35:46Z</time>
      </trkpt>
      <trkpt lat="44.29267" lon="5.61505">
        <ele>793.224854</ele>
        <time>2011-02-25T11:36:10Z</time>
      </trkpt>
      <trkpt lat="44.29272" lon="5.61397">
        <ele>794.666748</ele>
        <time>2011-02-25T11:36:30Z</time>
      </trkpt>
      <trkpt lat="44.29271" lon="5.61308">
        <ele>795.628174</ele>
        <time>2011-02-25T11:36:48Z</time>
      </trkpt>
      <trkpt lat="44.29271" lon="5.61269">
        <ele>795.628174</ele>
        <time>2011-02-25T11:36:55Z</time>
      </trkpt>
      <trkpt lat="44.29267" lon="5.61127">
        <ele>796.109131</ele>
        <time>2011-02-25T11:37:21Z</time>
      </trkpt>
      <trkpt lat="44.29253" lon="5.61022">
        <ele>796.589844</ele>
        <time>2011-02-25T11:37:41Z</time>
      </trkpt>
      <trkpt lat="44.2924" lon="5.6092">
        <ele>797.070313</ele>
        <time>2011-02-25T11:38:02Z</time>
      </trkpt>
      <trkpt lat="44.29236" lon="5.60888">
        <ele>798.031738</ele>
        <time>2011-02-25T11:38:09Z</time>
      </trkpt>
      <trkpt lat="44.29221" lon="5.60776">
        <ele>800.435059</ele>
        <time>2011-02-25T11:38:34Z</time>
      </trkpt>
      <trkpt lat="44.29217" lon="5.60678">
        <ele>803.318848</ele>
        <time>2011-02-25T11:38:58Z</time>
      </trkpt>
      <trkpt lat="44.29226" lon="5.6061">
        <ele>806.68335</ele>
        <time>2011-02-25T11:39:15Z</time>
      </trkpt>
      <trkpt lat="44.29244" lon="5.60518">
        <ele>807.164063</ele>
        <time>2011-02-25T11:39:38Z</time>
      </trkpt>
      <trkpt lat="44.29251" lon="5.60436">
        <ele>808.125488</ele>
        <time>2011-02-25T11:39:56Z</time>
      </trkpt>
      <trkpt lat="44.29234" lon="5.60356">
        <ele>811.009277</ele>
        <time>2011-02-25T11:40:17Z</time>
      </trkpt>
      <trkpt lat="44.2922" lon="5.60272">
        <ele>811.970703</ele>
        <time>2011-02-25T11:40:37Z</time>
      </trkpt>
      <trkpt lat="44.29192" lon="5.602">
        <ele>813.412842</ele>
        <time>2011-02-25T11:40:56Z</time>
      </trkpt>
      <trkpt lat="44.29151" lon="5.60119">
        <ele>814.374023</ele>
        <time>2011-02-25T11:41:19Z</time>
      </trkpt>
      <trkpt lat="44.29126" lon="5.6004">
        <ele>816.777344</ele>
        <time>2011-02-25T11:41:39Z</time>
      </trkpt>
      <trkpt lat="44.29125" lon="5.59935">
        <ele>820.141846</ele>
        <time>2011-02-25T11:42:04Z</time>
      </trkpt>
      <trkpt lat="44.29132" lon="5.59877">
        <ele>822.545166</ele>
        <time>2011-02-25T11:42:18Z</time>
      </trkpt>
      <trkpt lat="44.29158" lon="5.59798">
        <ele>825.428955</ele>
        <time>2011-02-25T11:42:40Z</time>
      </trkpt>
      <trkpt lat="44.29176" lon="5.59774">
        <ele>826.871094</ele>
        <time>2011-02-25T11:42:49Z</time>
      </trkpt>
      <trkpt lat="44.29216" lon="5.59723">
        <ele>827.832275</ele>
        <time>2011-02-25T11:43:07Z</time>
      </trkpt>
      <trkpt lat="44.29259" lon="5.5966">
        <ele>827.351807</ele>
        <time>2011-02-25T11:43:24Z</time>
      </trkpt>
      <trkpt lat="44.2928" lon="5.59615">
        <ele>828.313232</ele>
        <time>2011-02-25T11:43:37Z</time>
      </trkpt>
      <trkpt lat="44.29248" lon="5.59586">
        <ele>829.274414</ele>
        <time>2011-02-25T11:43:49Z</time>
      </trkpt>
      <trkpt lat="44.29231" lon="5.59582">
        <ele>828.313232</ele>
        <time>2011-02-25T11:43:54Z</time>
      </trkpt>
      <trkpt lat="44.29211" lon="5.59568">
        <ele>826.390381</ele>
        <time>2011-02-25T11:43:59Z</time>
      </trkpt>
      <trkpt lat="44.29206" lon="5.59566">
        <ele>825.428955</ele>
        <time>2011-02-25T11:44:00Z</time>
      </trkpt>
      <trkpt lat="44.29176" lon="5.59566">
        <ele>827.351807</ele>
        <time>2011-02-25T11:44:06Z</time>
      </trkpt>
      <trkpt lat="44.29163" lon="5.59571">
        <ele>826.871094</ele>
        <time>2011-02-25T11:44:14Z</time>
      </trkpt>
      <trkpt lat="44.29163" lon="5.59571">
        <ele>826.390381</ele>
        <time>2011-02-25T11:44:36Z</time>
      </trkpt>
      <trkpt lat="44.29163" lon="5.59571">
        <ele>827.351807</ele>
        <time>2011-02-25T11:46:12Z</time>
      </trkpt>
      <trkpt lat="44.29163" lon="5.59571">
        <ele>827.351807</ele>
        <time>2011-02-25T11:46:18Z</time>
      </trkpt>
      <trkpt lat="44.29163" lon="5.59571">
        <ele>827.351807</ele>
        <time>2011-02-25T11:46:29Z</time>
      </trkpt>
      <trkpt lat="44.29163" lon="5.59571">
        <ele>824.948486</ele>
        <time>2011-02-25T11:46:35Z</time>
      </trkpt>
      <trkpt lat="44.29163" lon="5.59571">
        <ele>826.871094</ele>
        <time>2011-02-25T11:46:39Z</time>
      </trkpt>
      <trkpt lat="44.29163" lon="5.59571">
        <ele>825.909668</ele>
        <time>2011-02-25T11:46:54Z</time>
      </trkpt>
      <trkpt lat="44.29163" lon="5.59571">
        <ele>824.467773</ele>
        <time>2011-02-25T11:46:58Z</time>
      </trkpt>
      <trkpt lat="44.29163" lon="5.59571">
        <ele>827.351807</ele>
        <time>2011-02-25T11:47:00Z</time>
      </trkpt>
      <trkpt lat="44.29163" lon="5.59571">
        <ele>827.351807</ele>
        <time>2011-02-25T11:47:19Z</time>
      </trkpt>
      <trkpt lat="44.29163" lon="5.59571">
        <ele>827.351807</ele>
        <time>2011-02-25T11:47:34Z</time>
      </trkpt>
      <trkpt lat="44.29163" lon="5.59571">
        <ele>827.832275</ele>
        <time>2011-02-25T11:47:40Z</time>
      </trkpt>
      <trkpt lat="44.29163" lon="5.59571">
        <ele>824.948486</ele>
        <time>2011-02-25T11:47:50Z</time>
      </trkpt>
      <trkpt lat="44.29163" lon="5.59571">
        <ele>827.832275</ele>
        <time>2011-02-25T11:47:52Z</time>
      </trkpt>
      <trkpt lat="44.29163" lon="5.59571">
        <ele>825.909668</ele>
        <time>2011-02-25T11:47:54Z</time>
      </trkpt>
      <trkpt lat="44.29163" lon="5.59571">
        <ele>827.832275</ele>
        <time>2011-02-25T11:48:15Z</time>
      </trkpt>
      <trkpt lat="44.29163" lon="5.59571">
        <ele>827.351807</ele>
        <time>2011-02-25T11:49:10Z</time>
      </trkpt>
      <trkpt lat="44.29163" lon="5.59571">
        <ele>827.832275</ele>
        <time>2011-02-25T11:49:43Z</time>
      </trkpt>
      <trkpt lat="44.29163" lon="5.59571">
        <ele>828.313232</ele>
        <time>2011-02-25T11:49:49Z</time>
      </trkpt>
      <trkpt lat="44.29163" lon="5.59571">
        <ele>826.390381</ele>
        <time>2011-02-25T11:49:51Z</time>
      </trkpt>
      <trkpt lat="44.29163" lon="5.59571">
        <ele>826.871094</ele>
        <time>2011-02-25T11:50:54Z</time>
      </trkpt>
      <trkpt lat="44.29163" lon="5.59571">
        <ele>826.871094</ele>
        <time>2011-02-25T11:52:43Z</time>
      </trkpt>
      <trkpt lat="44.29163" lon="5.59571">
        <ele>825.909668</ele>
        <time>2011-02-25T11:54:34Z</time>
      </trkpt>
      <trkpt lat="44.29163" lon="5.59571">
        <ele>826.871094</ele>
        <time>2011-02-25T11:54:55Z</time>
      </trkpt>
      <trkpt lat="44.29163" lon="5.59571">
        <ele>826.390381</ele>
        <time>2011-02-25T11:56:50Z</time>
      </trkpt>
      <trkpt lat="44.29141" lon="5.59585">
        <ele>827.351807</ele>
        <time>2011-02-25T11:56:56Z</time>
      </trkpt>
      <trkpt lat="44.29128" lon="5.59602">
        <ele>825.909668</ele>
        <time>2011-02-25T11:57:00Z</time>
      </trkpt>
      <trkpt lat="44.29089" lon="5.59666">
        <ele>823.025879</ele>
        <time>2011-02-25T11:57:13Z</time>
      </trkpt>
      <trkpt lat="44.29076" lon="5.59696">
        <ele>822.064453</ele>
        <time>2011-02-25T11:57:19Z</time>
      </trkpt>
      <trkpt lat="44.29037" lon="5.59716">
        <ele>822.545166</ele>
        <time>2011-02-25T11:57:30Z</time>
      </trkpt>
      <trkpt lat="44.28987" lon="5.59687">
        <ele>824.948486</ele>
        <time>2011-02-25T11:57:48Z</time>
      </trkpt>
      <trkpt lat="44.28938" lon="5.59663">
        <ele>826.871094</ele>
        <time>2011-02-25T11:58:06Z</time>
      </trkpt>
      <trkpt lat="44.28897" lon="5.59656">
        <ele>829.274414</ele>
        <time>2011-02-25T11:58:23Z</time>
      </trkpt>
      <trkpt lat="44.28862" lon="5.59684">
        <ele>832.158447</ele>
        <time>2011-02-25T11:58:41Z</time>
      </trkpt>
      <trkpt lat="44.28835" lon="5.59686">
        <ele>834.561768</ele>
        <time>2011-02-25T11:58:54Z</time>
      </trkpt>
      <trkpt lat="44.28809" lon="5.59654">
        <ele>837.92627</ele>
        <time>2011-02-25T11:59:11Z</time>
      </trkpt>
      <trkpt lat="44.28781" lon="5.5962">
        <ele>840.810059</ele>
        <time>2011-02-25T11:59:30Z</time>
      </trkpt>
      <trkpt lat="44.28761" lon="5.59573">
        <ele>843.213379</ele>
        <time>2011-02-25T11:59:50Z</time>
      </trkpt>
      <trkpt lat="44.28741" lon="5.59524">
        <ele>845.13623</ele>
        <time>2011-02-25T12:00:11Z</time>
      </trkpt>
      <trkpt lat="44.28724" lon="5.59509">
        <ele>847.539551</ele>
        <time>2011-02-25T12:00:22Z</time>
      </trkpt>
      <trkpt lat="44.28692" lon="5.59496">
        <ele>850.423584</ele>
        <time>2011-02-25T12:00:40Z</time>
      </trkpt>
      <trkpt lat="44.28654" lon="5.59484">
        <ele>855.22998</ele>
        <time>2011-02-25T12:01:00Z</time>
      </trkpt>
      <trkpt lat="44.28652" lon="5.59484">
        <ele>854.268799</ele>
        <time>2011-02-25T12:01:01Z</time>
      </trkpt>
      <trkpt lat="44.28601" lon="5.59483">
        <ele>855.710693</ele>
        <time>2011-02-25T12:01:29Z</time>
      </trkpt>
      <trkpt lat="44.2858" lon="5.59482">
        <ele>858.114014</ele>
        <time>2011-02-25T12:01:39Z</time>
      </trkpt>
      <trkpt lat="44.28592" lon="5.59498">
        <ele>859.555908</ele>
        <time>2011-02-25T12:01:48Z</time>
      </trkpt>
      <trkpt lat="44.28642" lon="5.59503">
        <ele>860.517334</ele>
        <time>2011-02-25T12:02:11Z</time>
      </trkpt>
      <trkpt lat="44.28681" lon="5.59526">
        <ele>862.920654</ele>
        <time>2011-02-25T12:02:29Z</time>
      </trkpt>
      <trkpt lat="44.28705" lon="5.59572">
        <ele>864.843262</ele>
        <time>2011-02-25T12:02:49Z</time>
      </trkpt>
      <trkpt lat="44.28704" lon="5.59578">
        <ele>865.323975</ele>
        <time>2011-02-25T12:02:51Z</time>
      </trkpt>
      <trkpt lat="44.28682" lon="5.59621">
        <ele>868.688477</ele>
        <time>2011-02-25T12:03:09Z</time>
      </trkpt>
      <trkpt lat="44.28684" lon="5.59677">
        <ele>871.091797</ele>
        <time>2011-02-25T12:03:29Z</time>
      </trkpt>
      <trkpt lat="44.28696" lon="5.59736">
        <ele>873.495117</ele>
        <time>2011-02-25T12:03:51Z</time>
      </trkpt>
      <trkpt lat="44.28698" lon="5.59746">
        <ele>873.975586</ele>
        <time>2011-02-25T12:03:55Z</time>
      </trkpt>
      <trkpt lat="44.28687" lon="5.5975">
        <ele>874.456299</ele>
        <time>2011-02-25T12:04:01Z</time>
      </trkpt>
      <trkpt lat="44.28665" lon="5.59699">
        <ele>878.301758</ele>
        <time>2011-02-25T12:04:23Z</time>
      </trkpt>
      <trkpt lat="44.28645" lon="5.59661">
        <ele>881.185791</ele>
        <time>2011-02-25T12:04:41Z</time>
      </trkpt>
      <trkpt lat="44.28608" lon="5.59637">
        <ele>884.550293</ele>
        <time>2011-02-25T12:05:03Z</time>
      </trkpt>
      <trkpt lat="44.2859" lon="5.59605">
        <ele>887.434082</ele>
        <time>2011-02-25T12:05:19Z</time>
      </trkpt>
      <trkpt lat="44.28566" lon="5.59575">
        <ele>890.318115</ele>
        <time>2011-02-25T12:05:38Z</time>
      </trkpt>
      <trkpt lat="44.28531" lon="5.59575">
        <ele>893.202148</ele>
        <time>2011-02-25T12:05:59Z</time>
      </trkpt>
      <trkpt lat="44.28497" lon="5.59582">
        <ele>896.566895</ele>
        <time>2011-02-25T12:06:18Z</time>
      </trkpt>
      <trkpt lat="44.2846" lon="5.59595">
        <ele>899.931396</ele>
        <time>2011-02-25T12:06:39Z</time>
      </trkpt>
      <trkpt lat="44.28421" lon="5.59609">
        <ele>903.295898</ele>
        <time>2011-02-25T12:07:02Z</time>
      </trkpt>
      <trkpt lat="44.28386" lon="5.59616">
        <ele>905.699219</ele>
        <time>2011-02-25T12:07:21Z</time>
      </trkpt>
      <trkpt lat="44.28348" lon="5.59608">
        <ele>909.063965</ele>
        <time>2011-02-25T12:07:42Z</time>
      </trkpt>
      <trkpt lat="44.28314" lon="5.59602">
        <ele>911.947998</ele>
        <time>2011-02-25T12:08:00Z</time>
      </trkpt>
      <trkpt lat="44.28283" lon="5.59599">
        <ele>915.793213</ele>
        <time>2011-02-25T12:08:18Z</time>
      </trkpt>
      <trkpt lat="44.28281" lon="5.596">
        <ele>915.793213</ele>
        <time>2011-02-25T12:08:19Z</time>
      </trkpt>
      <trkpt lat="44.28256" lon="5.59627">
        <ele>919.157715</ele>
        <time>2011-02-25T12:08:37Z</time>
      </trkpt>
      <trkpt lat="44.28241" lon="5.59667">
        <ele>921.080322</ele>
        <time>2011-02-25T12:08:54Z</time>
      </trkpt>
      <trkpt lat="44.28214" lon="5.59706">
        <ele>924.445068</ele>
        <time>2011-02-25T12:09:15Z</time>
      </trkpt>
      <trkpt lat="44.28199" lon="5.59723">
        <ele>926.367676</ele>
        <time>2011-02-25T12:09:25Z</time>
      </trkpt>
      <trkpt lat="44.28165" lon="5.59762">
        <ele>929.251465</ele>
        <time>2011-02-25T12:09:49Z</time>
      </trkpt>
      <trkpt lat="44.28134" lon="5.59805">
        <ele>932.616211</ele>
        <time>2011-02-25T12:10:14Z</time>
      </trkpt>
      <trkpt lat="44.28096" lon="5.5982">
        <ele>935.5</ele>
        <time>2011-02-25T12:10:35Z</time>
      </trkpt>
      <trkpt lat="44.28068" lon="5.5985">
        <ele>938.864746</ele>
        <time>2011-02-25T12:10:54Z</time>
      </trkpt>
      <trkpt lat="44.28037" lon="5.5988">
        <ele>941.268066</ele>
        <time>2011-02-25T12:11:15Z</time>
      </trkpt>
      <trkpt lat="44.27998" lon="5.59901">
        <ele>943.671387</ele>
        <time>2011-02-25T12:11:38Z</time>
      </trkpt>
      <trkpt lat="44.27987" lon="5.59942">
        <ele>946.55542</ele>
        <time>2011-02-25T12:11:55Z</time>
      </trkpt>
      <trkpt lat="44.27975" lon="5.59995">
        <ele>949.439209</ele>
        <time>2011-02-25T12:12:16Z</time>
      </trkpt>
      <trkpt lat="44.27953" lon="5.60034">
        <ele>951.361816</ele>
        <time>2011-02-25T12:12:34Z</time>
      </trkpt>
      <trkpt lat="44.27917" lon="5.60052">
        <ele>954.726318</ele>
        <time>2011-02-25T12:12:54Z</time>
      </trkpt>
      <trkpt lat="44.27907" lon="5.60058">
        <ele>954.726318</ele>
        <time>2011-02-25T12:13:00Z</time>
      </trkpt>
      <trkpt lat="44.27873" lon="5.60088">
        <ele>957.610596</ele>
        <time>2011-02-25T12:13:20Z</time>
      </trkpt>
      <trkpt lat="44.27855" lon="5.60107">
        <ele>956.64917</ele>
        <time>2011-02-25T12:13:31Z</time>
      </trkpt>
      <trkpt lat="44.27842" lon="5.6012">
        <ele>960.013672</ele>
        <time>2011-02-25T12:13:39Z</time>
      </trkpt>
      <trkpt lat="44.27811" lon="5.60138">
        <ele>961.936523</ele>
        <time>2011-02-25T12:13:56Z</time>
      </trkpt>
      <trkpt lat="44.27763" lon="5.60131">
        <ele>963.858887</ele>
        <time>2011-02-25T12:14:19Z</time>
      </trkpt>
      <trkpt lat="44.27739" lon="5.60147">
        <ele>967.704102</ele>
        <time>2011-02-25T12:14:33Z</time>
      </trkpt>
      <trkpt lat="44.27737" lon="5.60148">
        <ele>967.704102</ele>
        <time>2011-02-25T12:14:34Z</time>
      </trkpt>
      <trkpt lat="44.27702" lon="5.6018">
        <ele>969.626953</ele>
        <time>2011-02-25T12:14:56Z</time>
      </trkpt>
      <trkpt lat="44.2771" lon="5.60216">
        <ele>972.030273</ele>
        <time>2011-02-25T12:15:10Z</time>
      </trkpt>
      <trkpt lat="44.27721" lon="5.60225">
        <ele>973.472412</ele>
        <time>2011-02-25T12:15:17Z</time>
      </trkpt>
      <trkpt lat="44.27739" lon="5.60261">
        <ele>974.433594</ele>
        <time>2011-02-25T12:15:33Z</time>
      </trkpt>
      <trkpt lat="44.27721" lon="5.60276">
        <ele>975.875488</ele>
        <time>2011-02-25T12:15:44Z</time>
      </trkpt>
      <trkpt lat="44.27713" lon="5.60308">
        <ele>979.23999</ele>
        <time>2011-02-25T12:15:56Z</time>
      </trkpt>
      <trkpt lat="44.2772" lon="5.60357">
        <ele>981.162842</ele>
        <time>2011-02-25T12:16:15Z</time>
      </trkpt>
      <trkpt lat="44.2772" lon="5.604">
        <ele>983.565918</ele>
        <time>2011-02-25T12:16:31Z</time>
      </trkpt>
      <trkpt lat="44.27706" lon="5.60447">
        <ele>985.969238</ele>
        <time>2011-02-25T12:16:51Z</time>
      </trkpt>
      <trkpt lat="44.27672" lon="5.60476">
        <ele>989.333984</ele>
        <time>2011-02-25T12:17:13Z</time>
      </trkpt>
      <trkpt lat="44.27644" lon="5.60477">
        <ele>992.69873</ele>
        <time>2011-02-25T12:17:28Z</time>
      </trkpt>
      <trkpt lat="44.27643" lon="5.60477">
        <ele>992.69873</ele>
        <time>2011-02-25T12:17:29Z</time>
      </trkpt>
      <trkpt lat="44.27612" lon="5.60477">
        <ele>995.101807</ele>
        <time>2011-02-25T12:17:46Z</time>
      </trkpt>
      <trkpt lat="44.27572" lon="5.60474">
        <ele>997.505127</ele>
        <time>2011-02-25T12:18:07Z</time>
      </trkpt>
      <trkpt lat="44.27556" lon="5.60462">
        <ele>999.427734</ele>
        <time>2011-02-25T12:18:16Z</time>
      </trkpt>
      <trkpt lat="44.2754" lon="5.60449">
        <ele>1000.869629</ele>
        <time>2011-02-25T12:18:26Z</time>
      </trkpt>
      <trkpt lat="44.27507" lon="5.60438">
        <ele>1002.311523</ele>
        <time>2011-02-25T12:18:47Z</time>
      </trkpt>
      <trkpt lat="44.2751" lon="5.6047">
        <ele>1004.715088</ele>
        <time>2011-02-25T12:19:00Z</time>
      </trkpt>
      <trkpt lat="44.27505" lon="5.60505">
        <ele>1007.599121</ele>
        <time>2011-02-25T12:19:14Z</time>
      </trkpt>
      <trkpt lat="44.27492" lon="5.60557">
        <ele>1010.48291</ele>
        <time>2011-02-25T12:19:35Z</time>
      </trkpt>
      <trkpt lat="44.27471" lon="5.6061">
        <ele>1012.88623</ele>
        <time>2011-02-25T12:19:59Z</time>
      </trkpt>
      <trkpt lat="44.27442" lon="5.60628">
        <ele>1015.770264</ele>
        <time>2011-02-25T12:20:17Z</time>
      </trkpt>
      <trkpt lat="44.27427" lon="5.60664">
        <ele>1017.692627</ele>
        <time>2011-02-25T12:20:35Z</time>
      </trkpt>
      <trkpt lat="44.27411" lon="5.60703">
        <ele>1020.096191</ele>
        <time>2011-02-25T12:20:52Z</time>
      </trkpt>
      <trkpt lat="44.27382" lon="5.60715">
        <ele>1023.460938</ele>
        <time>2011-02-25T12:21:09Z</time>
      </trkpt>
      <trkpt lat="44.27348" lon="5.60729">
        <ele>1026.344727</ele>
        <time>2011-02-25T12:21:29Z</time>
      </trkpt>
      <trkpt lat="44.27322" lon="5.60773">
        <ele>1029.228516</ele>
        <time>2011-02-25T12:21:52Z</time>
      </trkpt>
      <trkpt lat="44.2731" lon="5.60817">
        <ele>1032.593262</ele>
        <time>2011-02-25T12:22:11Z</time>
      </trkpt>
      <trkpt lat="44.27321" lon="5.60835">
        <ele>1033.554443</ele>
        <time>2011-02-25T12:22:21Z</time>
      </trkpt>
      <trkpt lat="44.27324" lon="5.60855">
        <ele>1035.477051</ele>
        <time>2011-02-25T12:22:29Z</time>
      </trkpt>
      <trkpt lat="44.27303" lon="5.60886">
        <ele>1037.880615</ele>
        <time>2011-02-25T12:22:45Z</time>
      </trkpt>
      <trkpt lat="44.27292" lon="5.60907">
        <ele>1041.245117</ele>
        <time>2011-02-25T12:22:55Z</time>
      </trkpt>
      <trkpt lat="44.27276" lon="5.60952">
        <ele>1043.167725</ele>
        <time>2011-02-25T12:23:16Z</time>
      </trkpt>
      <trkpt lat="44.27249" lon="5.6097">
        <ele>1046.532471</ele>
        <time>2011-02-25T12:23:33Z</time>
      </trkpt>
      <trkpt lat="44.27226" lon="5.60978">
        <ele>1048.454834</ele>
        <time>2011-02-25T12:23:46Z</time>
      </trkpt>
      <trkpt lat="44.27189" lon="5.60995">
        <ele>1051.338867</ele>
        <time>2011-02-25T12:24:07Z</time>
      </trkpt>
      <trkpt lat="44.27153" lon="5.61015">
        <ele>1053.742432</ele>
        <time>2011-02-25T12:24:28Z</time>
      </trkpt>
      <trkpt lat="44.27124" lon="5.61033">
        <ele>1057.106934</ele>
        <time>2011-02-25T12:24:46Z</time>
      </trkpt>
      <trkpt lat="44.27121" lon="5.61034">
        <ele>1058.068359</ele>
        <time>2011-02-25T12:24:48Z</time>
      </trkpt>
      <trkpt lat="44.27092" lon="5.61051">
        <ele>1059.990723</ele>
        <time>2011-02-25T12:25:06Z</time>
      </trkpt>
      <trkpt lat="44.27081" lon="5.61057">
        <ele>1060.952148</ele>
        <time>2011-02-25T12:25:13Z</time>
      </trkpt>
      <trkpt lat="44.27037" lon="5.61068">
        <ele>1064.31665</ele>
        <time>2011-02-25T12:25:37Z</time>
      </trkpt>
      <trkpt lat="44.27035" lon="5.61069">
        <ele>1064.31665</ele>
        <time>2011-02-25T12:25:38Z</time>
      </trkpt>
      <trkpt lat="44.27025" lon="5.61072">
        <ele>1065.278076</ele>
        <time>2011-02-25T12:25:44Z</time>
      </trkpt>
      <trkpt lat="44.27013" lon="5.61078">
        <ele>1067.200684</ele>
        <time>2011-02-25T12:25:51Z</time>
      </trkpt>
      <trkpt lat="44.26983" lon="5.61106">
        <ele>1069.123535</ele>
        <time>2011-02-25T12:26:11Z</time>
      </trkpt>
      <trkpt lat="44.26981" lon="5.61107">
        <ele>1069.123535</ele>
        <time>2011-02-25T12:26:12Z</time>
      </trkpt>
      <trkpt lat="44.26954" lon="5.61128">
        <ele>1072.007324</ele>
        <time>2011-02-25T12:26:29Z</time>
      </trkpt>
      <trkpt lat="44.26919" lon="5.61162">
        <ele>1074.891357</ele>
        <time>2011-02-25T12:26:53Z</time>
      </trkpt>
      <trkpt lat="44.26912" lon="5.61171">
        <ele>1076.813965</ele>
        <time>2011-02-25T12:26:58Z</time>
      </trkpt>
      <trkpt lat="44.26904" lon="5.61179">
        <ele>1077.294678</ele>
        <time>2011-02-25T12:27:04Z</time>
      </trkpt>
      <trkpt lat="44.26871" lon="5.61204">
        <ele>1080.178467</ele>
        <time>2011-02-25T12:27:25Z</time>
      </trkpt>
      <trkpt lat="44.26865" lon="5.61207">
        <ele>1081.620361</ele>
        <time>2011-02-25T12:27:28Z</time>
      </trkpt>
      <trkpt lat="44.26837" lon="5.61233">
        <ele>1084.023926</ele>
        <time>2011-02-25T12:27:48Z</time>
      </trkpt>
      <trkpt lat="44.26805" lon="5.6129">
        <ele>1086.907715</ele>
        <time>2011-02-25T12:28:16Z</time>
      </trkpt>
      <trkpt lat="44.26786" lon="5.61318">
        <ele>1090.272461</ele>
        <time>2011-02-25T12:28:32Z</time>
      </trkpt>
      <trkpt lat="44.26762" lon="5.61347">
        <ele>1093.636963</ele>
        <time>2011-02-25T12:28:51Z</time>
      </trkpt>
      <trkpt lat="44.26743" lon="5.61369">
        <ele>1095.078857</ele>
        <time>2011-02-25T12:29:05Z</time>
      </trkpt>
      <trkpt lat="44.26716" lon="5.61401">
        <ele>1098.443359</ele>
        <time>2011-02-25T12:29:25Z</time>
      </trkpt>
      <trkpt lat="44.26687" lon="5.6143">
        <ele>1101.327637</ele>
        <time>2011-02-25T12:29:45Z</time>
      </trkpt>
      <trkpt lat="44.26649" lon="5.61453">
        <ele>1103.730957</ele>
        <time>2011-02-25T12:30:08Z</time>
      </trkpt>
      <trkpt lat="44.2662" lon="5.61476">
        <ele>1106.614746</ele>
        <time>2011-02-25T12:30:28Z</time>
      </trkpt>
      <trkpt lat="44.26598" lon="5.61512">
        <ele>1109.979248</ele>
        <time>2011-02-25T12:30:47Z</time>
      </trkpt>
      <trkpt lat="44.2658" lon="5.61548">
        <ele>1112.863281</ele>
        <time>2011-02-25T12:31:05Z</time>
      </trkpt>
      <trkpt lat="44.26565" lon="5.61596">
        <ele>1115.266602</ele>
        <time>2011-02-25T12:31:25Z</time>
      </trkpt>
      <trkpt lat="44.26552" lon="5.61649">
        <ele>1118.150635</ele>
        <time>2011-02-25T12:31:46Z</time>
      </trkpt>
      <trkpt lat="44.26546" lon="5.6171">
        <ele>1120.553955</ele>
        <time>2011-02-25T12:32:08Z</time>
      </trkpt>
      <trkpt lat="44.26553" lon="5.61762">
        <ele>1122.957275</ele>
        <time>2011-02-25T12:32:26Z</time>
      </trkpt>
      <trkpt lat="44.26541" lon="5.61798">
        <ele>1125.841064</ele>
        <time>2011-02-25T12:32:42Z</time>
      </trkpt>
      <trkpt lat="44.26535" lon="5.61802">
        <ele>1126.80249</ele>
        <time>2011-02-25T12:32:46Z</time>
      </trkpt>
      <trkpt lat="44.26494" lon="5.61811">
        <ele>1129.205566</ele>
        <time>2011-02-25T12:33:07Z</time>
      </trkpt>
      <trkpt lat="44.26488" lon="5.61817">
        <ele>1130.166992</ele>
        <time>2011-02-25T12:33:11Z</time>
      </trkpt>
      <trkpt lat="44.26478" lon="5.61832">
        <ele>1131.128418</ele>
        <time>2011-02-25T12:33:19Z</time>
      </trkpt>
      <trkpt lat="44.2646" lon="5.61864">
        <ele>1133.531738</ele>
        <time>2011-02-25T12:33:36Z</time>
      </trkpt>
      <trkpt lat="44.2645" lon="5.61888">
        <ele>1136.89624</ele>
        <time>2011-02-25T12:33:48Z</time>
      </trkpt>
      <trkpt lat="44.26435" lon="5.61937">
        <ele>1138.338379</ele>
        <time>2011-02-25T12:34:09Z</time>
      </trkpt>
      <trkpt lat="44.26429" lon="5.61955">
        <ele>1141.702881</ele>
        <time>2011-02-25T12:34:17Z</time>
      </trkpt>
      <trkpt lat="44.26428" lon="5.61957">
        <ele>1141.702881</ele>
        <time>2011-02-25T12:34:18Z</time>
      </trkpt>
      <trkpt lat="44.26416" lon="5.61987">
        <ele>1142.664307</ele>
        <time>2011-02-25T12:34:31Z</time>
      </trkpt>
      <trkpt lat="44.2638" lon="5.62017">
        <ele>1144.106201</ele>
        <time>2011-02-25T12:34:54Z</time>
      </trkpt>
      <trkpt lat="44.26371" lon="5.62026">
        <ele>1145.548096</ele>
        <time>2011-02-25T12:35:00Z</time>
      </trkpt>
      <trkpt lat="44.26357" lon="5.62039">
        <ele>1148.432129</ele>
        <time>2011-02-25T12:35:09Z</time>
      </trkpt>
      <trkpt lat="44.26331" lon="5.62064">
        <ele>1150.835449</ele>
        <time>2011-02-25T12:35:26Z</time>
      </trkpt>
      <trkpt lat="44.26319" lon="5.6208">
        <ele>1152.277344</ele>
        <time>2011-02-25T12:35:35Z</time>
      </trkpt>
      <trkpt lat="44.2631" lon="5.62091">
        <ele>1153.23877</ele>
        <time>2011-02-25T12:35:41Z</time>
      </trkpt>
      <trkpt lat="44.26292" lon="5.62114">
        <ele>1156.122559</ele>
        <time>2011-02-25T12:35:54Z</time>
      </trkpt>
      <trkpt lat="44.26265" lon="5.62163">
        <ele>1157.083984</ele>
        <time>2011-02-25T12:36:17Z</time>
      </trkpt>
      <trkpt lat="44.26251" lon="5.62191">
        <ele>1160.448486</ele>
        <time>2011-02-25T12:36:30Z</time>
      </trkpt>
      <trkpt lat="44.2624" lon="5.622">
        <ele>1162.371094</ele>
        <time>2011-02-25T12:36:38Z</time>
      </trkpt>
      <trkpt lat="44.26239" lon="5.622">
        <ele>1160.929199</ele>
        <time>2011-02-25T12:36:53Z</time>
      </trkpt>
      <trkpt lat="44.2624" lon="5.62198">
        <ele>1162.371094</ele>
        <time>2011-02-25T12:37:39Z</time>
      </trkpt>
      <trkpt lat="44.26239" lon="5.62198">
        <ele>1161.890625</ele>
        <time>2011-02-25T12:37:47Z</time>
      </trkpt>
      <trkpt lat="44.2624" lon="5.62197">
        <ele>1161.890625</ele>
        <time>2011-02-25T12:38:12Z</time>
      </trkpt>
      <trkpt lat="44.2624" lon="5.62197">
        <ele>1159.967773</ele>
        <time>2011-02-25T12:38:54Z</time>
      </trkpt>
      <trkpt lat="44.2624" lon="5.62197">
        <ele>1161.890625</ele>
        <time>2011-02-25T12:38:56Z</time>
      </trkpt>
      <trkpt lat="44.2624" lon="5.62198">
        <ele>1160.448486</ele>
        <time>2011-02-25T12:39:26Z</time>
      </trkpt>
      <trkpt lat="44.2624" lon="5.62198">
        <ele>1161.890625</ele>
        <time>2011-02-25T12:39:28Z</time>
      </trkpt>
      <trkpt lat="44.2624" lon="5.622">
        <ele>1162.851807</ele>
        <time>2011-02-25T12:39:32Z</time>
      </trkpt>
      <trkpt lat="44.2624" lon="5.622">
        <ele>1162.371094</ele>
        <time>2011-02-25T12:39:42Z</time>
      </trkpt>
      <trkpt lat="44.2624" lon="5.622">
        <ele>1161.409912</ele>
        <time>2011-02-25T12:40:04Z</time>
      </trkpt>
      <trkpt lat="44.2624" lon="5.622">
        <ele>1162.371094</ele>
        <time>2011-02-25T12:40:18Z</time>
      </trkpt>
      <trkpt lat="44.26205" lon="5.62181">
        <ele>1159.967773</ele>
        <time>2011-02-25T12:40:31Z</time>
      </trkpt>
      <trkpt lat="44.26193" lon="5.62173">
        <ele>1159.006592</ele>
        <time>2011-02-25T12:40:34Z</time>
      </trkpt>
      <trkpt lat="44.26184" lon="5.62167">
        <ele>1159.487305</ele>
        <time>2011-02-25T12:40:36Z</time>
      </trkpt>
      <trkpt lat="44.26205" lon="5.62155">
        <ele>1156.603271</ele>
        <time>2011-02-25T12:40:40Z</time>
      </trkpt>
      <trkpt lat="44.26185" lon="5.62148">
        <ele>1154.680664</ele>
        <time>2011-02-25T12:40:44Z</time>
      </trkpt>
      <trkpt lat="44.26201" lon="5.62152">
        <ele>1153.719482</ele>
        <time>2011-02-25T12:40:48Z</time>
      </trkpt>
      <trkpt lat="44.26222" lon="5.62121">
        <ele>1151.316162</ele>
        <time>2011-02-25T12:40:54Z</time>
      </trkpt>
      <trkpt lat="44.26223" lon="5.62112">
        <ele>1150.35498</ele>
        <time>2011-02-25T12:40:55Z</time>
      </trkpt>
      <trkpt lat="44.26227" lon="5.62091">
        <ele>1149.874268</ele>
        <time>2011-02-25T12:40:57Z</time>
      </trkpt>
      <trkpt lat="44.26229" lon="5.62049">
        <ele>1146.98999</ele>
        <time>2011-02-25T12:41:01Z</time>
      </trkpt>
      <trkpt lat="44.26223" lon="5.62016">
        <ele>1145.067383</ele>
        <time>2011-02-25T12:41:04Z</time>
      </trkpt>
      <trkpt lat="44.26216" lon="5.61994">
        <ele>1142.183594</ele>
        <time>2011-02-25T12:41:06Z</time>
      </trkpt>
      <trkpt lat="44.26213" lon="5.61982">
        <ele>1137.857666</ele>
        <time>2011-02-25T12:41:07Z</time>
      </trkpt>
      <trkpt lat="44.2621" lon="5.61972">
        <ele>1137.857666</ele>
        <time>2011-02-25T12:41:08Z</time>
      </trkpt>
      <trkpt lat="44.26196" lon="5.61931">
        <ele>1137.857666</ele>
        <time>2011-02-25T12:41:12Z</time>
      </trkpt>
      <trkpt lat="44.26188" lon="5.61886">
        <ele>1136.415771</ele>
        <time>2011-02-25T12:41:16Z</time>
      </trkpt>
      <trkpt lat="44.26188" lon="5.61868">
        <ele>1135.454346</ele>
        <time>2011-02-25T12:41:18Z</time>
      </trkpt>
      <trkpt lat="44.26181" lon="5.61839">
        <ele>1134.012451</ele>
        <time>2011-02-25T12:41:22Z</time>
      </trkpt>
      <trkpt lat="44.26173" lon="5.61822">
        <ele>1132.089844</ele>
        <time>2011-02-25T12:41:24Z</time>
      </trkpt>
      <trkpt lat="44.26152" lon="5.61787">
        <ele>1126.80249</ele>
        <time>2011-02-25T12:41:28Z</time>
      </trkpt>
      <trkpt lat="44.26139" lon="5.61769">
        <ele>1124.879883</ele>
        <time>2011-02-25T12:41:30Z</time>
      </trkpt>
      <trkpt lat="44.26123" lon="5.61745">
        <ele>1125.360352</ele>
        <time>2011-02-25T12:41:33Z</time>
      </trkpt>
      <trkpt lat="44.26104" lon="5.61726">
        <ele>1124.879883</ele>
        <time>2011-02-25T12:41:36Z</time>
      </trkpt>
      <trkpt lat="44.26091" lon="5.61718">
        <ele>1122.957275</ele>
        <time>2011-02-25T12:41:38Z</time>
      </trkpt>
      <trkpt lat="44.26077" lon="5.61715">
        <ele>1120.553955</ele>
        <time>2011-02-25T12:41:40Z</time>
      </trkpt>
      <trkpt lat="44.26063" lon="5.61712">
        <ele>1121.515137</ele>
        <time>2011-02-25T12:41:42Z</time>
      </trkpt>
      <trkpt lat="44.26045" lon="5.61696">
        <ele>1116.70874</ele>
        <time>2011-02-25T12:41:45Z</time>
      </trkpt>
      <trkpt lat="44.2604" lon="5.61687">
        <ele>1116.228027</ele>
        <time>2011-02-25T12:41:46Z</time>
      </trkpt>
      <trkpt lat="44.26026" lon="5.61664">
        <ele>1113.824463</ele>
        <time>2011-02-25T12:41:49Z</time>
      </trkpt>
      <trkpt lat="44.26003" lon="5.61644">
        <ele>1111.421387</ele>
        <time>2011-02-25T12:41:53Z</time>
      </trkpt>
      <trkpt lat="44.25995" lon="5.61641">
        <ele>1111.421387</ele>
        <time>2011-02-25T12:41:54Z</time>
      </trkpt>
      <trkpt lat="44.25979" lon="5.61633">
        <ele>1109.498779</ele>
        <time>2011-02-25T12:41:56Z</time>
      </trkpt>
      <trkpt lat="44.25955" lon="5.61645">
        <ele>1108.537354</ele>
        <time>2011-02-25T12:41:58Z</time>
      </trkpt>
      <trkpt lat="44.2592" lon="5.61644">
        <ele>1107.095459</ele>
        <time>2011-02-25T12:42:05Z</time>
      </trkpt>
      <trkpt lat="44.25902" lon="5.61661">
        <ele>1105.653564</ele>
        <time>2011-02-25T12:42:08Z</time>
      </trkpt>
      <trkpt lat="44.25912" lon="5.61691">
        <ele>1102.769531</ele>
        <time>2011-02-25T12:42:11Z</time>
      </trkpt>
      <trkpt lat="44.25869" lon="5.61691">
        <ele>1101.327637</ele>
        <time>2011-02-25T12:42:13Z</time>
      </trkpt>
      <trkpt lat="44.25833" lon="5.61697">
        <ele>1100.846924</ele>
        <time>2011-02-25T12:42:18Z</time>
      </trkpt>
      <trkpt lat="44.25817" lon="5.61693">
        <ele>1097.001465</ele>
        <time>2011-02-25T12:42:20Z</time>
      </trkpt>
      <trkpt lat="44.25809" lon="5.61693">
        <ele>1097.001465</ele>
        <time>2011-02-25T12:42:21Z</time>
      </trkpt>
      <trkpt lat="44.25782" lon="5.61697">
        <ele>1094.598145</ele>
        <time>2011-02-25T12:42:25Z</time>
      </trkpt>
      <trkpt lat="44.25772" lon="5.61701">
        <ele>1094.117676</ele>
        <time>2011-02-25T12:42:27Z</time>
      </trkpt>
      <trkpt lat="44.25777" lon="5.61721">
        <ele>1094.598145</ele>
        <time>2011-02-25T12:42:33Z</time>
      </trkpt>
      <trkpt lat="44.25782" lon="5.6172">
        <ele>1092.675781</ele>
        <time>2011-02-25T12:42:34Z</time>
      </trkpt>
      <trkpt lat="44.25796" lon="5.61717">
        <ele>1088.349854</ele>
        <time>2011-02-25T12:42:36Z</time>
      </trkpt>
      <trkpt lat="44.25825" lon="5.61731">
        <ele>1089.791748</ele>
        <time>2011-02-25T12:42:40Z</time>
      </trkpt>
      <trkpt lat="44.25838" lon="5.61742">
        <ele>1084.023926</ele>
        <time>2011-02-25T12:42:42Z</time>
      </trkpt>
      <trkpt lat="44.25845" lon="5.61748">
        <ele>1084.023926</ele>
        <time>2011-02-25T12:42:43Z</time>
      </trkpt>
      <trkpt lat="44.2586" lon="5.61755">
        <ele>1081.620361</ele>
        <time>2011-02-25T12:42:45Z</time>
      </trkpt>
      <trkpt lat="44.25876" lon="5.61755">
        <ele>1079.217041</ele>
        <time>2011-02-25T12:42:47Z</time>
      </trkpt>
      <trkpt lat="44.25891" lon="5.61754">
        <ele>1079.697754</ele>
        <time>2011-02-25T12:42:49Z</time>
      </trkpt>
      <trkpt lat="44.25905" lon="5.61749">
        <ele>1078.255859</ele>
        <time>2011-02-25T12:42:52Z</time>
      </trkpt>
      <trkpt lat="44.25917" lon="5.61738">
        <ele>1080.178467</ele>
        <time>2011-02-25T12:42:54Z</time>
      </trkpt>
      <trkpt lat="44.25932" lon="5.61786">
        <ele>1078.255859</ele>
        <time>2011-02-25T12:42:57Z</time>
      </trkpt>
      <trkpt lat="44.25935" lon="5.6181">
        <ele>1076.813965</ele>
        <time>2011-02-25T12:42:59Z</time>
      </trkpt>
      <trkpt lat="44.25935" lon="5.61822">
        <ele>1075.852539</ele>
        <time>2011-02-25T12:43:00Z</time>
      </trkpt>
      <trkpt lat="44.25937" lon="5.61886">
        <ele>1075.371826</ele>
        <time>2011-02-25T12:43:06Z</time>
      </trkpt>
      <trkpt lat="44.25943" lon="5.61906">
        <ele>1073.449463</ele>
        <time>2011-02-25T12:43:08Z</time>
      </trkpt>
      <trkpt lat="44.25946" lon="5.61917">
        <ele>1072.007324</ele>
        <time>2011-02-25T12:43:10Z</time>
      </trkpt>
      <trkpt lat="44.25952" lon="5.61925">
        <ele>1072.488037</ele>
        <time>2011-02-25T12:43:11Z</time>
      </trkpt>
      <trkpt lat="44.25946" lon="5.61959">
        <ele>1070.56543</ele>
        <time>2011-02-25T12:43:15Z</time>
      </trkpt>
      <trkpt lat="44.25935" lon="5.61969">
        <ele>1069.604248</ele>
        <time>2011-02-25T12:43:17Z</time>
      </trkpt>
      <trkpt lat="44.25921" lon="5.61984">
        <ele>1069.604248</ele>
        <time>2011-02-25T12:43:19Z</time>
      </trkpt>
      <trkpt lat="44.25911" lon="5.62007">
        <ele>1066.239258</ele>
        <time>2011-02-25T12:43:21Z</time>
      </trkpt>
      <trkpt lat="44.25898" lon="5.6203">
        <ele>1064.31665</ele>
        <time>2011-02-25T12:43:23Z</time>
      </trkpt>
      <trkpt lat="44.25879" lon="5.62067">
        <ele>1058.548828</ele>
        <time>2011-02-25T12:43:26Z</time>
      </trkpt>
      <trkpt lat="44.25872" lon="5.62078">
        <ele>1057.587646</ele>
        <time>2011-02-25T12:43:27Z</time>
      </trkpt>
      <trkpt lat="44.25851" lon="5.6211">
        <ele>1052.300293</ele>
        <time>2011-02-25T12:43:30Z</time>
      </trkpt>
      <trkpt lat="44.25842" lon="5.62118">
        <ele>1052.300293</ele>
        <time>2011-02-25T12:43:31Z</time>
      </trkpt>
      <trkpt lat="44.25827" lon="5.62134">
        <ele>1047.493652</ele>
        <time>2011-02-25T12:43:33Z</time>
      </trkpt>
      <trkpt lat="44.2582" lon="5.62142">
        <ele>1047.493652</ele>
        <time>2011-02-25T12:43:34Z</time>
      </trkpt>
      <trkpt lat="44.25801" lon="5.62161">
        <ele>1049.41626</ele>
        <time>2011-02-25T12:43:37Z</time>
      </trkpt>
      <trkpt lat="44.2578" lon="5.62167">
        <ele>1044.12915</ele>
        <time>2011-02-25T12:43:40Z</time>
      </trkpt>
      <trkpt lat="44.25772" lon="5.62166">
        <ele>1044.12915</ele>
        <time>2011-02-25T12:43:41Z</time>
      </trkpt>
      <trkpt lat="44.25764" lon="5.62165">
        <ele>1042.687256</ele>
        <time>2011-02-25T12:43:42Z</time>
      </trkpt>
      <trkpt lat="44.25733" lon="5.62154">
        <ele>1041.245117</ele>
        <time>2011-02-25T12:43:46Z</time>
      </trkpt>
      <trkpt lat="44.257" lon="5.62184">
        <ele>1037.399902</ele>
        <time>2011-02-25T12:43:53Z</time>
      </trkpt>
      <trkpt lat="44.25693" lon="5.62199">
        <ele>1035.957764</ele>
        <time>2011-02-25T12:43:55Z</time>
      </trkpt>
      <trkpt lat="44.25674" lon="5.62211">
        <ele>1036.438721</ele>
        <time>2011-02-25T12:44:02Z</time>
      </trkpt>
      <trkpt lat="44.25675" lon="5.62202">
        <ele>1035.957764</ele>
        <time>2011-02-25T12:44:04Z</time>
      </trkpt>
      <trkpt lat="44.2568" lon="5.6219">
        <ele>1034.515869</ele>
        <time>2011-02-25T12:44:06Z</time>
      </trkpt>
      <trkpt lat="44.25683" lon="5.62183">
        <ele>1031.631836</ele>
        <time>2011-02-25T12:44:07Z</time>
      </trkpt>
      <trkpt lat="44.25687" lon="5.62155">
        <ele>1025.864014</ele>
        <time>2011-02-25T12:44:10Z</time>
      </trkpt>
      <trkpt lat="44.25688" lon="5.62146">
        <ele>1025.864014</ele>
        <time>2011-02-25T12:44:11Z</time>
      </trkpt>
      <trkpt lat="44.25689" lon="5.62136">
        <ele>1026.825439</ele>
        <time>2011-02-25T12:44:12Z</time>
      </trkpt>
      <trkpt lat="44.25695" lon="5.62105">
        <ele>1025.383301</ele>
        <time>2011-02-25T12:44:15Z</time>
      </trkpt>
      <trkpt lat="44.25701" lon="5.62085">
        <ele>1021.057617</ele>
        <time>2011-02-25T12:44:17Z</time>
      </trkpt>
      <trkpt lat="44.25709" lon="5.62045">
        <ele>1018.654053</ele>
        <time>2011-02-25T12:44:21Z</time>
      </trkpt>
      <trkpt lat="44.2572" lon="5.62021">
        <ele>1016.250732</ele>
        <time>2011-02-25T12:44:24Z</time>
      </trkpt>
      <trkpt lat="44.25725" lon="5.62013">
        <ele>1016.250732</ele>
        <time>2011-02-25T12:44:25Z</time>
      </trkpt>
      <trkpt lat="44.25737" lon="5.61993">
        <ele>1018.17334</ele>
        <time>2011-02-25T12:44:28Z</time>
      </trkpt>
      <trkpt lat="44.2573" lon="5.61966">
        <ele>1016.731445</ele>
        <time>2011-02-25T12:44:34Z</time>
      </trkpt>
      <trkpt lat="44.25724" lon="5.61966">
        <ele>1016.731445</ele>
        <time>2011-02-25T12:44:35Z</time>
      </trkpt>
      <trkpt lat="44.25718" lon="5.61968">
        <ele>1016.731445</ele>
        <time>2011-02-25T12:44:36Z</time>
      </trkpt>
      <trkpt lat="44.25697" lon="5.61975">
        <ele>1012.88623</ele>
        <time>2011-02-25T12:44:39Z</time>
      </trkpt>
      <trkpt lat="44.25689" lon="5.61978">
        <ele>1012.88623</ele>
        <time>2011-02-25T12:44:40Z</time>
      </trkpt>
      <trkpt lat="44.25645" lon="5.61991">
        <ele>1004.715088</ele>
        <time>2011-02-25T12:44:45Z</time>
      </trkpt>
      <trkpt lat="44.25636" lon="5.61994">
        <ele>1005.676514</ele>
        <time>2011-02-25T12:44:46Z</time>
      </trkpt>
      <trkpt lat="44.25599" lon="5.6199">
        <ele>1003.753662</ele>
        <time>2011-02-25T12:44:50Z</time>
      </trkpt>
      <trkpt lat="44.25565" lon="5.61992">
        <ele>1002.792236</ele>
        <time>2011-02-25T12:44:54Z</time>
      </trkpt>
      <trkpt lat="44.25542" lon="5.61999">
        <ele>1001.350342</ele>
        <time>2011-02-25T12:44:57Z</time>
      </trkpt>
      <trkpt lat="44.25534" lon="5.62002">
        <ele>998.947021</ele>
        <time>2011-02-25T12:44:58Z</time>
      </trkpt>
      <trkpt lat="44.25507" lon="5.62">
        <ele>997.505127</ele>
        <time>2011-02-25T12:45:02Z</time>
      </trkpt>
      <trkpt lat="44.25496" lon="5.62016">
        <ele>995.58252</ele>
        <time>2011-02-25T12:45:08Z</time>
      </trkpt>
      <trkpt lat="44.255" lon="5.62021">
        <ele>995.58252</ele>
        <time>2011-02-25T12:45:09Z</time>
      </trkpt>
      <trkpt lat="44.25505" lon="5.62024">
        <ele>992.218018</ele>
        <time>2011-02-25T12:45:10Z</time>
      </trkpt>
      <trkpt lat="44.2551" lon="5.62026">
        <ele>992.218018</ele>
        <time>2011-02-25T12:45:11Z</time>
      </trkpt>
      <trkpt lat="44.25523" lon="5.62028">
        <ele>990.775879</ele>
        <time>2011-02-25T12:45:13Z</time>
      </trkpt>
      <trkpt lat="44.2553" lon="5.62028">
        <ele>988.372803</ele>
        <time>2011-02-25T12:45:14Z</time>
      </trkpt>
      <trkpt lat="44.25556" lon="5.62027">
        <ele>989.814697</ele>
        <time>2011-02-25T12:45:19Z</time>
      </trkpt>
      <trkpt lat="44.25546" lon="5.62047">
        <ele>989.814697</ele>
        <time>2011-02-25T12:45:25Z</time>
      </trkpt>
      <trkpt lat="44.25516" lon="5.6205">
        <ele>986.449951</ele>
        <time>2011-02-25T12:45:29Z</time>
      </trkpt>
      <trkpt lat="44.25499" lon="5.62051">
        <ele>982.604736</ele>
        <time>2011-02-25T12:45:31Z</time>
      </trkpt>
      <trkpt lat="44.25457" lon="5.62032">
        <ele>980.201416</ele>
        <time>2011-02-25T12:45:36Z</time>
      </trkpt>
      <trkpt lat="44.25448" lon="5.62027">
        <ele>976.356201</ele>
        <time>2011-02-25T12:45:37Z</time>
      </trkpt>
      <trkpt lat="44.2544" lon="5.62022">
        <ele>972.510986</ele>
        <time>2011-02-25T12:45:38Z</time>
      </trkpt>
      <trkpt lat="44.25432" lon="5.62017">
        <ele>972.510986</ele>
        <time>2011-02-25T12:45:39Z</time>
      </trkpt>
      <trkpt lat="44.25416" lon="5.62007">
        <ele>972.991699</ele>
        <time>2011-02-25T12:45:41Z</time>
      </trkpt>
      <trkpt lat="44.25403" lon="5.61999">
        <ele>974.433594</ele>
        <time>2011-02-25T12:45:43Z</time>
      </trkpt>
      <trkpt lat="44.25388" lon="5.61998">
        <ele>969.626953</ele>
        <time>2011-02-25T12:45:45Z</time>
      </trkpt>
      <trkpt lat="44.2538" lon="5.62001">
        <ele>969.626953</ele>
        <time>2011-02-25T12:45:46Z</time>
      </trkpt>
      <trkpt lat="44.25366" lon="5.62013">
        <ele>967.704102</ele>
        <time>2011-02-25T12:45:48Z</time>
      </trkpt>
      <trkpt lat="44.25352" lon="5.62027">
        <ele>967.704102</ele>
        <time>2011-02-25T12:45:50Z</time>
      </trkpt>
      <trkpt lat="44.25334" lon="5.62035">
        <ele>966.262207</ele>
        <time>2011-02-25T12:45:52Z</time>
      </trkpt>
      <trkpt lat="44.25315" lon="5.62037">
        <ele>965.301025</ele>
        <time>2011-02-25T12:45:54Z</time>
      </trkpt>
      <trkpt lat="44.25287" lon="5.62035">
        <ele>962.897705</ele>
        <time>2011-02-25T12:45:57Z</time>
      </trkpt>
      <trkpt lat="44.25278" lon="5.62034">
        <ele>961.455811</ele>
        <time>2011-02-25T12:45:58Z</time>
      </trkpt>
      <trkpt lat="44.25247" lon="5.62048">
        <ele>959.05249</ele>
        <time>2011-02-25T12:46:02Z</time>
      </trkpt>
      <trkpt lat="44.25209" lon="5.62047">
        <ele>955.687744</ele>
        <time>2011-02-25T12:46:07Z</time>
      </trkpt>
      <trkpt lat="44.25191" lon="5.62043">
        <ele>954.24585</ele>
        <time>2011-02-25T12:46:09Z</time>
      </trkpt>
      <trkpt lat="44.25174" lon="5.62041">
        <ele>952.322998</ele>
        <time>2011-02-25T12:46:11Z</time>
      </trkpt>
      <trkpt lat="44.25156" lon="5.62039">
        <ele>949.919922</ele>
        <time>2011-02-25T12:46:13Z</time>
      </trkpt>
      <trkpt lat="44.25098" lon="5.62047">
        <ele>947.035889</ele>
        <time>2011-02-25T12:46:21Z</time>
      </trkpt>
      <trkpt lat="44.25077" lon="5.62054">
        <ele>945.593994</ele>
        <time>2011-02-25T12:46:25Z</time>
      </trkpt>
      <trkpt lat="44.25067" lon="5.62093">
        <ele>944.1521</ele>
        <time>2011-02-25T12:46:31Z</time>
      </trkpt>
      <trkpt lat="44.25066" lon="5.62105">
        <ele>942.710205</ele>
        <time>2011-02-25T12:46:33Z</time>
      </trkpt>
      <trkpt lat="44.2505" lon="5.62202">
        <ele>943.190674</ele>
        <time>2011-02-25T12:46:48Z</time>
      </trkpt>
      <trkpt lat="44.25046" lon="5.62218">
        <ele>944.1521</ele>
        <time>2011-02-25T12:46:50Z</time>
      </trkpt>
      <trkpt lat="44.25034" lon="5.62262">
        <ele>942.710205</ele>
        <time>2011-02-25T12:46:55Z</time>
      </trkpt>
      <trkpt lat="44.25026" lon="5.62293">
        <ele>940.787354</ele>
        <time>2011-02-25T12:46:59Z</time>
      </trkpt>
      <trkpt lat="44.2501" lon="5.62366">
        <ele>940.787354</ele>
        <time>2011-02-25T12:47:07Z</time>
      </trkpt>
      <trkpt lat="44.25002" lon="5.62383">
        <ele>939.825928</ele>
        <time>2011-02-25T12:47:09Z</time>
      </trkpt>
      <trkpt lat="44.24994" lon="5.62398">
        <ele>937.90332</ele>
        <time>2011-02-25T12:47:11Z</time>
      </trkpt>
      <trkpt lat="44.24987" lon="5.62412">
        <ele>934.538818</ele>
        <time>2011-02-25T12:47:13Z</time>
      </trkpt>
      <trkpt lat="44.24983" lon="5.62419">
        <ele>934.538818</ele>
        <time>2011-02-25T12:47:14Z</time>
      </trkpt>
      <trkpt lat="44.24979" lon="5.62426">
        <ele>935.019531</ele>
        <time>2011-02-25T12:47:15Z</time>
      </trkpt>
      <trkpt lat="44.24959" lon="5.62443">
        <ele>935.980713</ele>
        <time>2011-02-25T12:47:19Z</time>
      </trkpt>
      <trkpt lat="44.24907" lon="5.62456">
        <ele>934.538818</ele>
        <time>2011-02-25T12:47:28Z</time>
      </trkpt>
      <trkpt lat="44.24892" lon="5.62494">
        <ele>931.654785</ele>
        <time>2011-02-25T12:47:36Z</time>
      </trkpt>
      <trkpt lat="44.24892" lon="5.62503">
        <ele>931.654785</ele>
        <time>2011-02-25T12:47:37Z</time>
      </trkpt>
      <trkpt lat="44.24893" lon="5.6252">
        <ele>929.732178</ele>
        <time>2011-02-25T12:47:39Z</time>
      </trkpt>
      <trkpt lat="44.24896" lon="5.62538">
        <ele>926.848389</ele>
        <time>2011-02-25T12:47:41Z</time>
      </trkpt>
      <trkpt lat="44.24903" lon="5.62579">
        <ele>923.483643</ele>
        <time>2011-02-25T12:47:45Z</time>
      </trkpt>
      <trkpt lat="44.24916" lon="5.62636">
        <ele>921.560791</ele>
        <time>2011-02-25T12:47:51Z</time>
      </trkpt>
      <trkpt lat="44.24924" lon="5.62664">
        <ele>922.522217</ele>
        <time>2011-02-25T12:47:55Z</time>
      </trkpt>
      <trkpt lat="44.2491" lon="5.62685">
        <ele>923.483643</ele>
        <time>2011-02-25T12:48:02Z</time>
      </trkpt>
      <trkpt lat="44.24898" lon="5.62676">
        <ele>922.041504</ele>
        <time>2011-02-25T12:48:05Z</time>
      </trkpt>
      <trkpt lat="44.24884" lon="5.62667">
        <ele>918.677002</ele>
        <time>2011-02-25T12:48:08Z</time>
      </trkpt>
      <trkpt lat="44.24878" lon="5.62664">
        <ele>918.677002</ele>
        <time>2011-02-25T12:48:09Z</time>
      </trkpt>
      <trkpt lat="44.24857" lon="5.6265">
        <ele>914.351074</ele>
        <time>2011-02-25T12:48:13Z</time>
      </trkpt>
      <trkpt lat="44.24851" lon="5.62646">
        <ele>914.351074</ele>
        <time>2011-02-25T12:48:14Z</time>
      </trkpt>
      <trkpt lat="44.24845" lon="5.62643">
        <ele>911.467285</ele>
        <time>2011-02-25T12:48:15Z</time>
      </trkpt>
      <trkpt lat="44.24839" lon="5.6264">
        <ele>911.467285</ele>
        <time>2011-02-25T12:48:16Z</time>
      </trkpt>
      <trkpt lat="44.24833" lon="5.62638">
        <ele>905.218506</ele>
        <time>2011-02-25T12:48:17Z</time>
      </trkpt>
      <trkpt lat="44.24828" lon="5.62635">
        <ele>905.218506</ele>
        <time>2011-02-25T12:48:18Z</time>
      </trkpt>
      <trkpt lat="44.24815" lon="5.62631">
        <ele>901.854004</ele>
        <time>2011-02-25T12:48:20Z</time>
      </trkpt>
      <trkpt lat="44.24809" lon="5.62628">
        <ele>901.854004</ele>
        <time>2011-02-25T12:48:21Z</time>
      </trkpt>
      <trkpt lat="44.24775" lon="5.62614">
        <ele>897.047363</ele>
        <time>2011-02-25T12:48:26Z</time>
      </trkpt>
      <trkpt lat="44.2475" lon="5.62598">
        <ele>898.489258</ele>
        <time>2011-02-25T12:48:30Z</time>
      </trkpt>
      <trkpt lat="44.24722" lon="5.62581">
        <ele>897.528076</ele>
        <time>2011-02-25T12:48:35Z</time>
      </trkpt>
      <trkpt lat="44.24702" lon="5.62577">
        <ele>897.528076</ele>
        <time>2011-02-25T12:48:39Z</time>
      </trkpt>
      <trkpt lat="44.2469" lon="5.62581">
        <ele>895.605469</ele>
        <time>2011-02-25T12:48:42Z</time>
      </trkpt>
      <trkpt lat="44.24681" lon="5.62598">
        <ele>894.163574</ele>
        <time>2011-02-25T12:48:46Z</time>
      </trkpt>
      <trkpt lat="44.24677" lon="5.62615">
        <ele>891.76001</ele>
        <time>2011-02-25T12:48:49Z</time>
      </trkpt>
      <trkpt lat="44.24681" lon="5.62643">
        <ele>886.953369</ele>
        <time>2011-02-25T12:48:53Z</time>
      </trkpt>
      <trkpt lat="44.24685" lon="5.6266">
        <ele>885.031006</ele>
        <time>2011-02-25T12:48:55Z</time>
      </trkpt>
      <trkpt lat="44.24689" lon="5.62676">
        <ele>880.224365</ele>
        <time>2011-02-25T12:48:57Z</time>
      </trkpt>
      <trkpt lat="44.24692" lon="5.62684">
        <ele>880.224365</ele>
        <time>2011-02-25T12:48:58Z</time>
      </trkpt>
      <trkpt lat="44.24697" lon="5.62702">
        <ele>878.782471</ele>
        <time>2011-02-25T12:49:00Z</time>
      </trkpt>
      <trkpt lat="44.24706" lon="5.6273">
        <ele>875.898193</ele>
        <time>2011-02-25T12:49:03Z</time>
      </trkpt>
      <trkpt lat="44.24712" lon="5.62748">
        <ele>873.495117</ele>
        <time>2011-02-25T12:49:05Z</time>
      </trkpt>
      <trkpt lat="44.24718" lon="5.62766">
        <ele>871.572266</ele>
        <time>2011-02-25T12:49:07Z</time>
      </trkpt>
      <trkpt lat="44.24725" lon="5.62784">
        <ele>870.130371</ele>
        <time>2011-02-25T12:49:09Z</time>
      </trkpt>
      <trkpt lat="44.24736" lon="5.62825">
        <ele>867.727051</ele>
        <time>2011-02-25T12:49:14Z</time>
      </trkpt>
      <trkpt lat="44.24739" lon="5.62832">
        <ele>866.285156</ele>
        <time>2011-02-25T12:49:15Z</time>
      </trkpt>
      <trkpt lat="44.24742" lon="5.62866">
        <ele>864.843262</ele>
        <time>2011-02-25T12:49:19Z</time>
      </trkpt>
      <trkpt lat="44.24742" lon="5.62874">
        <ele>862.439941</ele>
        <time>2011-02-25T12:49:20Z</time>
      </trkpt>
      <trkpt lat="44.24739" lon="5.62897">
        <ele>860.998047</ele>
        <time>2011-02-25T12:49:23Z</time>
      </trkpt>
      <trkpt lat="44.24742" lon="5.62926">
        <ele>858.594482</ele>
        <time>2011-02-25T12:49:27Z</time>
      </trkpt>
      <trkpt lat="44.24744" lon="5.62932">
        <ele>858.114014</ele>
        <time>2011-02-25T12:49:28Z</time>
      </trkpt>
      <trkpt lat="44.24747" lon="5.62938">
        <ele>854.749268</ele>
        <time>2011-02-25T12:49:29Z</time>
      </trkpt>
      <trkpt lat="44.24765" lon="5.62979">
        <ele>852.345947</ele>
        <time>2011-02-25T12:49:35Z</time>
      </trkpt>
      <trkpt lat="44.24769" lon="5.63017">
        <ele>850.904053</ele>
        <time>2011-02-25T12:49:42Z</time>
      </trkpt>
      <trkpt lat="44.24755" lon="5.63013">
        <ele>848.020264</ele>
        <time>2011-02-25T12:49:47Z</time>
      </trkpt>
      <trkpt lat="44.24747" lon="5.63003">
        <ele>845.13623</ele>
        <time>2011-02-25T12:49:49Z</time>
      </trkpt>
      <trkpt lat="44.24734" lon="5.62986">
        <ele>841.771484</ele>
        <time>2011-02-25T12:49:52Z</time>
      </trkpt>
      <trkpt lat="44.24729" lon="5.62981">
        <ele>841.771484</ele>
        <time>2011-02-25T12:49:53Z</time>
      </trkpt>
      <trkpt lat="44.2472" lon="5.62969">
        <ele>837.445557</ele>
        <time>2011-02-25T12:49:55Z</time>
      </trkpt>
      <trkpt lat="44.24716" lon="5.62963">
        <ele>837.445557</ele>
        <time>2011-02-25T12:49:56Z</time>
      </trkpt>
      <trkpt lat="44.24705" lon="5.62951">
        <ele>836.964844</ele>
        <time>2011-02-25T12:49:59Z</time>
      </trkpt>
      <trkpt lat="44.24692" lon="5.62963">
        <ele>836.003662</ele>
        <time>2011-02-25T12:50:05Z</time>
      </trkpt>
      <trkpt lat="44.24693" lon="5.6297">
        <ele>834.081055</ele>
        <time>2011-02-25T12:50:06Z</time>
      </trkpt>
      <trkpt lat="44.24696" lon="5.63004">
        <ele>830.23584</ele>
        <time>2011-02-25T12:50:10Z</time>
      </trkpt>
      <trkpt lat="44.24696" lon="5.63077">
        <ele>826.390381</ele>
        <time>2011-02-25T12:50:18Z</time>
      </trkpt>
      <trkpt lat="44.24696" lon="5.63085">
        <ele>826.390381</ele>
        <time>2011-02-25T12:50:19Z</time>
      </trkpt>
      <trkpt lat="44.24696" lon="5.63093">
        <ele>824.948486</ele>
        <time>2011-02-25T12:50:20Z</time>
      </trkpt>
      <trkpt lat="44.24705" lon="5.63127">
        <ele>826.871094</ele>
        <time>2011-02-25T12:50:25Z</time>
      </trkpt>
      <trkpt lat="44.24725" lon="5.63169">
        <ele>824.948486</ele>
        <time>2011-02-25T12:50:30Z</time>
      </trkpt>
      <trkpt lat="44.24731" lon="5.63197">
        <ele>824.948486</ele>
        <time>2011-02-25T12:50:33Z</time>
      </trkpt>
      <trkpt lat="44.24731" lon="5.63246">
        <ele>820.622559</ele>
        <time>2011-02-25T12:50:38Z</time>
      </trkpt>
      <trkpt lat="44.24729" lon="5.63255">
        <ele>817.258057</ele>
        <time>2011-02-25T12:50:39Z</time>
      </trkpt>
      <trkpt lat="44.24728" lon="5.63264">
        <ele>817.258057</ele>
        <time>2011-02-25T12:50:40Z</time>
      </trkpt>
      <trkpt lat="44.24727" lon="5.63272">
        <ele>821.103271</ele>
        <time>2011-02-25T12:50:41Z</time>
      </trkpt>
      <trkpt lat="44.24726" lon="5.6328">
        <ele>821.103271</ele>
        <time>2011-02-25T12:50:42Z</time>
      </trkpt>
      <trkpt lat="44.24726" lon="5.63295">
        <ele>819.180664</ele>
        <time>2011-02-25T12:50:44Z</time>
      </trkpt>
      <trkpt lat="44.2473" lon="5.63308">
        <ele>814.374023</ele>
        <time>2011-02-25T12:50:46Z</time>
      </trkpt>
      <trkpt lat="44.24731" lon="5.63314">
        <ele>814.374023</ele>
        <time>2011-02-25T12:50:47Z</time>
      </trkpt>
      <trkpt lat="44.24736" lon="5.63329">
        <ele>816.296631</ele>
        <time>2011-02-25T12:50:49Z</time>
      </trkpt>
      <trkpt lat="44.24738" lon="5.63337">
        <ele>815.816162</ele>
        <time>2011-02-25T12:50:50Z</time>
      </trkpt>
      <trkpt lat="44.24744" lon="5.63363">
        <ele>811.48999</ele>
        <time>2011-02-25T12:50:53Z</time>
      </trkpt>
      <trkpt lat="44.24744" lon="5.63372">
        <ele>811.48999</ele>
        <time>2011-02-25T12:50:54Z</time>
      </trkpt>
      <trkpt lat="44.2474" lon="5.63389">
        <ele>810.528564</ele>
        <time>2011-02-25T12:50:56Z</time>
      </trkpt>
      <trkpt lat="44.24738" lon="5.63408">
        <ele>810.047852</ele>
        <time>2011-02-25T12:50:58Z</time>
      </trkpt>
      <trkpt lat="44.24739" lon="5.63444">
        <ele>805.722168</ele>
        <time>2011-02-25T12:51:02Z</time>
      </trkpt>
      <trkpt lat="44.24741" lon="5.63453">
        <ele>805.722168</ele>
        <time>2011-02-25T12:51:03Z</time>
      </trkpt>
      <trkpt lat="44.24744" lon="5.635">
        <ele>807.164063</ele>
        <time>2011-02-25T12:51:08Z</time>
      </trkpt>
      <trkpt lat="44.24738" lon="5.63535">
        <ele>806.68335</ele>
        <time>2011-02-25T12:51:12Z</time>
      </trkpt>
      <trkpt lat="44.24734" lon="5.6355">
        <ele>808.125488</ele>
        <time>2011-02-25T12:51:14Z</time>
      </trkpt>
      <trkpt lat="44.24718" lon="5.6363">
        <ele>807.164063</ele>
        <time>2011-02-25T12:51:29Z</time>
      </trkpt>
      <trkpt lat="44.247" lon="5.63648">
        <ele>803.799561</ele>
        <time>2011-02-25T12:51:34Z</time>
      </trkpt>
      <trkpt lat="44.24696" lon="5.63653">
        <ele>803.799561</ele>
        <time>2011-02-25T12:51:35Z</time>
      </trkpt>
      <trkpt lat="44.2469" lon="5.63663">
        <ele>801.876953</ele>
        <time>2011-02-25T12:51:37Z</time>
      </trkpt>
      <trkpt lat="44.2468" lon="5.63677">
        <ele>803.799561</ele>
        <time>2011-02-25T12:51:40Z</time>
      </trkpt>
      <trkpt lat="44.24664" lon="5.63702">
        <ele>801.39624</ele>
        <time>2011-02-25T12:51:46Z</time>
      </trkpt>
      <trkpt lat="44.24654" lon="5.63718">
        <ele>799.954346</ele>
        <time>2011-02-25T12:51:50Z</time>
      </trkpt>
      <trkpt lat="44.24644" lon="5.63734">
        <ele>796.109131</ele>
        <time>2011-02-25T12:51:53Z</time>
      </trkpt>
      <trkpt lat="44.24635" lon="5.63749">
        <ele>794.186279</ele>
        <time>2011-02-25T12:51:56Z</time>
      </trkpt>
      <trkpt lat="44.24608" lon="5.63796">
        <ele>790.821533</ele>
        <time>2011-02-25T12:52:06Z</time>
      </trkpt>
      <trkpt lat="44.24603" lon="5.63807">
        <ele>790.341064</ele>
        <time>2011-02-25T12:52:08Z</time>
      </trkpt>
      <trkpt lat="44.24599" lon="5.63817">
        <ele>788.418457</ele>
        <time>2011-02-25T12:52:10Z</time>
      </trkpt>
      <trkpt lat="44.24574" lon="5.63852">
        <ele>785.053955</ele>
        <time>2011-02-25T12:52:20Z</time>
      </trkpt>
      <trkpt lat="44.24558" lon="5.63867">
        <ele>783.611816</ele>
        <time>2011-02-25T12:52:26Z</time>
      </trkpt>
      <trkpt lat="44.24539" lon="5.63881">
        <ele>781.689209</ele>
        <time>2011-02-25T12:52:31Z</time>
      </trkpt>
      <trkpt lat="44.24531" lon="5.63887">
        <ele>780.247314</ele>
        <time>2011-02-25T12:52:33Z</time>
      </trkpt>
      <trkpt lat="44.24523" lon="5.63893">
        <ele>778.324463</ele>
        <time>2011-02-25T12:52:35Z</time>
      </trkpt>
      <trkpt lat="44.24497" lon="5.6392">
        <ele>774.959961</ele>
        <time>2011-02-25T12:52:43Z</time>
      </trkpt>
      <trkpt lat="44.24491" lon="5.63929">
        <ele>773.998535</ele>
        <time>2011-02-25T12:52:45Z</time>
      </trkpt>
      <trkpt lat="44.24482" lon="5.63943">
        <ele>770.634033</ele>
        <time>2011-02-25T12:52:48Z</time>
      </trkpt>
      <trkpt lat="44.24479" lon="5.63948">
        <ele>770.634033</ele>
        <time>2011-02-25T12:52:49Z</time>
      </trkpt>
      <trkpt lat="44.24471" lon="5.63962">
        <ele>768.711426</ele>
        <time>2011-02-25T12:52:52Z</time>
      </trkpt>
      <trkpt lat="44.24455" lon="5.63982">
        <ele>765.346924</ele>
        <time>2011-02-25T12:52:57Z</time>
      </trkpt>
      <trkpt lat="44.24451" lon="5.63983">
        <ele>764.385498</ele>
        <time>2011-02-25T12:52:58Z</time>
      </trkpt>
      <trkpt lat="44.24434" lon="5.63989">
        <ele>763.424072</ele>
        <time>2011-02-25T12:53:01Z</time>
      </trkpt>
      <trkpt lat="44.244" lon="5.63999">
        <ele>760.059326</ele>
        <time>2011-02-25T12:53:06Z</time>
      </trkpt>
      <trkpt lat="44.24386" lon="5.64004">
        <ele>757.65625</ele>
        <time>2011-02-25T12:53:08Z</time>
      </trkpt>
      <trkpt lat="44.24373" lon="5.64008">
        <ele>757.65625</ele>
        <time>2011-02-25T12:53:10Z</time>
      </trkpt>
      <trkpt lat="44.24357" lon="5.64019">
        <ele>759.098145</ele>
        <time>2011-02-25T12:53:13Z</time>
      </trkpt>
      <trkpt lat="44.24336" lon="5.64008">
        <ele>757.65625</ele>
        <time>2011-02-25T12:53:19Z</time>
      </trkpt>
      <trkpt lat="44.24342" lon="5.63993">
        <ele>753.811035</ele>
        <time>2011-02-25T12:53:21Z</time>
      </trkpt>
      <trkpt lat="44.24347" lon="5.63989">
        <ele>753.811035</ele>
        <time>2011-02-25T12:53:22Z</time>
      </trkpt>
      <trkpt lat="44.2437" lon="5.63969">
        <ele>753.330322</ele>
        <time>2011-02-25T12:53:26Z</time>
      </trkpt>
      <trkpt lat="44.24387" lon="5.63947">
        <ele>750.446533</ele>
        <time>2011-02-25T12:53:29Z</time>
      </trkpt>
      <trkpt lat="44.24391" lon="5.63936">
        <ele>750.446533</ele>
        <time>2011-02-25T12:53:30Z</time>
      </trkpt>
      <trkpt lat="44.24401" lon="5.63902">
        <ele>748.523682</ele>
        <time>2011-02-25T12:53:33Z</time>
      </trkpt>
      <trkpt lat="44.24407" lon="5.63878">
        <ele>745.158936</ele>
        <time>2011-02-25T12:53:35Z</time>
      </trkpt>
      <trkpt lat="44.2441" lon="5.63866">
        <ele>745.158936</ele>
        <time>2011-02-25T12:53:36Z</time>
      </trkpt>
      <trkpt lat="44.24416" lon="5.63844">
        <ele>744.678223</ele>
        <time>2011-02-25T12:53:38Z</time>
      </trkpt>
      <trkpt lat="44.24419" lon="5.63795">
        <ele>743.717041</ele>
        <time>2011-02-25T12:53:43Z</time>
      </trkpt>
      <trkpt lat="44.24413" lon="5.63776">
        <ele>741.794434</ele>
        <time>2011-02-25T12:53:45Z</time>
      </trkpt>
      <trkpt lat="44.24402" lon="5.6376">
        <ele>739.871826</ele>
        <time>2011-02-25T12:53:47Z</time>
      </trkpt>
      <trkpt lat="44.24385" lon="5.63742">
        <ele>738.910645</ele>
        <time>2011-02-25T12:53:50Z</time>
      </trkpt>
      <trkpt lat="44.24373" lon="5.63731">
        <ele>737.468506</ele>
        <time>2011-02-25T12:53:52Z</time>
      </trkpt>
      <trkpt lat="44.24358" lon="5.63727">
        <ele>736.026611</ele>
        <time>2011-02-25T12:53:54Z</time>
      </trkpt>
      <trkpt lat="44.2435" lon="5.63727">
        <ele>734.584717</ele>
        <time>2011-02-25T12:53:55Z</time>
      </trkpt>
      <trkpt lat="44.24318" lon="5.63727">
        <ele>733.623291</ele>
        <time>2011-02-25T12:53:59Z</time>
      </trkpt>
      <trkpt lat="44.24298" lon="5.63727">
        <ele>734.584717</ele>
        <time>2011-02-25T12:54:02Z</time>
      </trkpt>
      <trkpt lat="44.24274" lon="5.63713">
        <ele>732.181396</ele>
        <time>2011-02-25T12:54:06Z</time>
      </trkpt>
      <trkpt lat="44.24263" lon="5.637">
        <ele>729.777832</ele>
        <time>2011-02-25T12:54:08Z</time>
      </trkpt>
      <trkpt lat="44.24252" lon="5.63685">
        <ele>727.374756</ele>
        <time>2011-02-25T12:54:10Z</time>
      </trkpt>
      <trkpt lat="44.24246" lon="5.63678">
        <ele>727.855225</ele>
        <time>2011-02-25T12:54:11Z</time>
      </trkpt>
      <trkpt lat="44.24213" lon="5.636">
        <ele>723.529541</ele>
        <time>2011-02-25T12:54:21Z</time>
      </trkpt>
      <trkpt lat="44.2421" lon="5.63592">
        <ele>723.529541</ele>
        <time>2011-02-25T12:54:22Z</time>
      </trkpt>
      <trkpt lat="44.24202" lon="5.63558">
        <ele>721.606689</ele>
        <time>2011-02-25T12:54:26Z</time>
      </trkpt>
      <trkpt lat="44.24164" lon="5.63537">
        <ele>720.164795</ele>
        <time>2011-02-25T12:54:33Z</time>
      </trkpt>
      <trkpt lat="44.24153" lon="5.63551">
        <ele>718.242188</ele>
        <time>2011-02-25T12:54:35Z</time>
      </trkpt>
      <trkpt lat="44.24147" lon="5.63554">
        <ele>718.242188</ele>
        <time>2011-02-25T12:54:36Z</time>
      </trkpt>
      <trkpt lat="44.24131" lon="5.63561">
        <ele>715.358154</ele>
        <time>2011-02-25T12:54:39Z</time>
      </trkpt>
      <trkpt lat="44.24126" lon="5.63563">
        <ele>715.358154</ele>
        <time>2011-02-25T12:54:40Z</time>
      </trkpt>
      <trkpt lat="44.24103" lon="5.63578">
        <ele>714.396729</ele>
        <time>2011-02-25T12:54:51Z</time>
      </trkpt>
      <trkpt lat="44.24103" lon="5.63578">
        <ele>717.281006</ele>
        <time>2011-02-25T12:54:59Z</time>
      </trkpt>
      <trkpt lat="44.24103" lon="5.63578">
        <ele>715.838867</ele>
        <time>2011-02-25T12:55:01Z</time>
      </trkpt>
      <trkpt lat="44.24103" lon="5.63578">
        <ele>717.281006</ele>
        <time>2011-02-25T12:55:03Z</time>
      </trkpt>
      <trkpt lat="44.24103" lon="5.63578">
        <ele>715.358154</ele>
        <time>2011-02-25T12:55:05Z</time>
      </trkpt>
      <trkpt lat="44.24103" lon="5.63578">
        <ele>714.877441</ele>
        <time>2011-02-25T12:56:04Z</time>
      </trkpt>
      <trkpt lat="44.24103" lon="5.63578">
        <ele>715.838867</ele>
        <time>2011-02-25T12:56:41Z</time>
      </trkpt>
      <trkpt lat="44.24103" lon="5.63578">
        <ele>717.281006</ele>
        <time>2011-02-25T12:57:19Z</time>
      </trkpt>
      <trkpt lat="44.24103" lon="5.63578">
        <ele>718.7229</ele>
        <time>2011-02-25T12:57:25Z</time>
      </trkpt>
      <trkpt lat="44.24095" lon="5.6358">
        <ele>716.800293</ele>
        <time>2011-02-25T12:57:48Z</time>
      </trkpt>
      <trkpt lat="44.24099" lon="5.63585">
        <ele>715.838867</ele>
        <time>2011-02-25T12:57:52Z</time>
      </trkpt>
      <trkpt lat="44.24117" lon="5.63611">
        <ele>714.877441</ele>
        <time>2011-02-25T12:58:00Z</time>
      </trkpt>
      <trkpt lat="44.24161" lon="5.63707">
        <ele>714.877441</ele>
        <time>2011-02-25T12:58:19Z</time>
      </trkpt>
      <trkpt lat="44.24184" lon="5.63777">
        <ele>711.993652</ele>
        <time>2011-02-25T12:58:31Z</time>
      </trkpt>
      <trkpt lat="44.24202" lon="5.63827">
        <ele>712.954834</ele>
        <time>2011-02-25T12:58:38Z</time>
      </trkpt>
      <trkpt lat="44.24196" lon="5.63858">
        <ele>711.512939</ele>
        <time>2011-02-25T12:58:43Z</time>
      </trkpt>
      <trkpt lat="44.24193" lon="5.63872">
        <ele>713.916016</ele>
        <time>2011-02-25T12:58:45Z</time>
      </trkpt>
      <trkpt lat="44.24196" lon="5.6383">
        <ele>709.590332</ele>
        <time>2011-02-25T12:58:48Z</time>
      </trkpt>
      <trkpt lat="44.24128" lon="5.6398">
        <ele>712.954834</ele>
        <time>2011-02-25T12:59:03Z</time>
      </trkpt>
      <trkpt lat="44.24124" lon="5.63985">
        <ele>712.954834</ele>
        <time>2011-02-25T12:59:04Z</time>
      </trkpt>
      <trkpt lat="44.2412" lon="5.63992">
        <ele>712.954834</ele>
        <time>2011-02-25T12:59:05Z</time>
      </trkpt>
      <trkpt lat="44.24112" lon="5.64013">
        <ele>711.512939</ele>
        <time>2011-02-25T12:59:08Z</time>
      </trkpt>
      <trkpt lat="44.24093" lon="5.64061">
        <ele>710.070801</ele>
        <time>2011-02-25T12:59:15Z</time>
      </trkpt>
      <trkpt lat="44.24083" lon="5.64092">
        <ele>711.032227</ele>
        <time>2011-02-25T12:59:20Z</time>
      </trkpt>
      <trkpt lat="44.24079" lon="5.64105">
        <ele>709.109619</ele>
        <time>2011-02-25T12:59:22Z</time>
      </trkpt>
      <trkpt lat="44.24066" lon="5.64141">
        <ele>709.109619</ele>
        <time>2011-02-25T12:59:28Z</time>
      </trkpt>
      <trkpt lat="44.24059" lon="5.64158">
        <ele>710.070801</ele>
        <time>2011-02-25T12:59:31Z</time>
      </trkpt>
      <trkpt lat="44.24054" lon="5.64169">
        <ele>711.512939</ele>
        <time>2011-02-25T12:59:33Z</time>
      </trkpt>
      <trkpt lat="44.24033" lon="5.64207">
        <ele>711.993652</ele>
        <time>2011-02-25T12:59:40Z</time>
      </trkpt>
      <trkpt lat="44.24024" lon="5.6424">
        <ele>712.474121</ele>
        <time>2011-02-25T12:59:45Z</time>
      </trkpt>
      <trkpt lat="44.24023" lon="5.64255">
        <ele>712.474121</ele>
        <time>2011-02-25T12:59:47Z</time>
      </trkpt>
      <trkpt lat="44.24036" lon="5.64325">
        <ele>710.070801</ele>
        <time>2011-02-25T12:59:56Z</time>
      </trkpt>
      <trkpt lat="44.2405" lon="5.64375">
        <ele>710.551514</ele>
        <time>2011-02-25T13:00:02Z</time>
      </trkpt>
      <trkpt lat="44.24097" lon="5.64447">
        <ele>708.628906</ele>
        <time>2011-02-25T13:00:13Z</time>
      </trkpt>
      <trkpt lat="44.24177" lon="5.64543">
        <ele>709.109619</ele>
        <time>2011-02-25T13:00:30Z</time>
      </trkpt>
      <trkpt lat="44.24236" lon="5.6466">
        <ele>709.590332</ele>
        <time>2011-02-25T13:00:46Z</time>
      </trkpt>
      <trkpt lat="44.24247" lon="5.64691">
        <ele>709.590332</ele>
        <time>2011-02-25T13:00:50Z</time>
      </trkpt>
      <trkpt lat="44.24253" lon="5.64776">
        <ele>710.070801</ele>
        <time>2011-02-25T13:01:00Z</time>
      </trkpt>
      <trkpt lat="44.24296" lon="5.64866">
        <ele>709.109619</ele>
        <time>2011-02-25T13:01:12Z</time>
      </trkpt>
      <trkpt lat="44.24299" lon="5.64875">
        <ele>709.109619</ele>
        <time>2011-02-25T13:01:13Z</time>
      </trkpt>
      <trkpt lat="44.24344" lon="5.65027">
        <ele>709.109619</ele>
        <time>2011-02-25T13:01:32Z</time>
      </trkpt>
      <trkpt lat="44.24353" lon="5.65089">
        <ele>708.148438</ele>
        <time>2011-02-25T13:01:40Z</time>
      </trkpt>
      <trkpt lat="44.24345" lon="5.65187">
        <ele>706.225586</ele>
        <time>2011-02-25T13:01:53Z</time>
      </trkpt>
      <trkpt lat="44.24332" lon="5.65244">
        <ele>706.225586</ele>
        <time>2011-02-25T13:02:01Z</time>
      </trkpt>
      <trkpt lat="44.24326" lon="5.65301">
        <ele>706.225586</ele>
        <time>2011-02-25T13:02:08Z</time>
      </trkpt>
      <trkpt lat="44.2434" lon="5.65365">
        <ele>704.303223</ele>
        <time>2011-02-25T13:02:15Z</time>
      </trkpt>
      <trkpt lat="44.24442" lon="5.6557">
        <ele>702.861084</ele>
        <time>2011-02-25T13:02:37Z</time>
      </trkpt>
      <trkpt lat="44.24465" lon="5.65626">
        <ele>700.938477</ele>
        <time>2011-02-25T13:02:43Z</time>
      </trkpt>
      <trkpt lat="44.24486" lon="5.65715">
        <ele>701.419189</ele>
        <time>2011-02-25T13:02:52Z</time>
      </trkpt>
      <trkpt lat="44.24475" lon="5.65762">
        <ele>699.496338</ele>
        <time>2011-02-25T13:02:57Z</time>
      </trkpt>
      <trkpt lat="44.2442" lon="5.65829">
        <ele>698.054443</ele>
        <time>2011-02-25T13:03:07Z</time>
      </trkpt>
      <trkpt lat="44.24397" lon="5.65851">
        <ele>699.977051</ele>
        <time>2011-02-25T13:03:11Z</time>
      </trkpt>
      <trkpt lat="44.24392" lon="5.65857">
        <ele>699.015625</ele>
        <time>2011-02-25T13:03:12Z</time>
      </trkpt>
      <trkpt lat="44.24366" lon="5.65929">
        <ele>695.651123</ele>
        <time>2011-02-25T13:03:20Z</time>
      </trkpt>
      <trkpt lat="44.24367" lon="5.65939">
        <ele>695.651123</ele>
        <time>2011-02-25T13:03:21Z</time>
      </trkpt>
      <trkpt lat="44.24383" lon="5.65986">
        <ele>694.689697</ele>
        <time>2011-02-25T13:03:26Z</time>
      </trkpt>
      <trkpt lat="44.24391" lon="5.66003">
        <ele>692.767334</ele>
        <time>2011-02-25T13:03:28Z</time>
      </trkpt>
      <trkpt lat="44.24409" lon="5.66037">
        <ele>689.883301</ele>
        <time>2011-02-25T13:03:32Z</time>
      </trkpt>
      <trkpt lat="44.24416" lon="5.66067">
        <ele>690.844482</ele>
        <time>2011-02-25T13:03:35Z</time>
      </trkpt>
      <trkpt lat="44.24422" lon="5.66153">
        <ele>691.325195</ele>
        <time>2011-02-25T13:03:44Z</time>
      </trkpt>
      <trkpt lat="44.2443" lon="5.66185">
        <ele>691.325195</ele>
        <time>2011-02-25T13:03:48Z</time>
      </trkpt>
      <trkpt lat="44.2447" lon="5.66256">
        <ele>688.922119</ele>
        <time>2011-02-25T13:03:59Z</time>
      </trkpt>
      <trkpt lat="44.24491" lon="5.66293">
        <ele>689.402588</ele>
        <time>2011-02-25T13:04:05Z</time>
      </trkpt>
      <trkpt lat="44.24522" lon="5.66341">
        <ele>688.922119</ele>
        <time>2011-02-25T13:04:13Z</time>
      </trkpt>
      <trkpt lat="44.24548" lon="5.66362">
        <ele>689.883301</ele>
        <time>2011-02-25T13:04:18Z</time>
      </trkpt>
      <trkpt lat="44.24566" lon="5.6637">
        <ele>688.441406</ele>
        <time>2011-02-25T13:04:21Z</time>
      </trkpt>
      <trkpt lat="44.24579" lon="5.66371">
        <ele>689.402588</ele>
        <time>2011-02-25T13:04:23Z</time>
      </trkpt>
      <trkpt lat="44.24657" lon="5.66367">
        <ele>687.960693</ele>
        <time>2011-02-25T13:04:34Z</time>
      </trkpt>
      <trkpt lat="44.24703" lon="5.66414">
        <ele>688.441406</ele>
        <time>2011-02-25T13:04:43Z</time>
      </trkpt>
      <trkpt lat="44.24704" lon="5.66423">
        <ele>688.441406</ele>
        <time>2011-02-25T13:04:44Z</time>
      </trkpt>
      <trkpt lat="44.24707" lon="5.66439">
        <ele>687.960693</ele>
        <time>2011-02-25T13:04:46Z</time>
      </trkpt>
      <trkpt lat="44.24707" lon="5.66457">
        <ele>688.441406</ele>
        <time>2011-02-25T13:04:48Z</time>
      </trkpt>
      <trkpt lat="44.24704" lon="5.66483">
        <ele>687.960693</ele>
        <time>2011-02-25T13:04:51Z</time>
      </trkpt>
      <trkpt lat="44.24688" lon="5.66536">
        <ele>686.999268</ele>
        <time>2011-02-25T13:04:57Z</time>
      </trkpt>
      <trkpt lat="44.24647" lon="5.666">
        <ele>688.922119</ele>
        <time>2011-02-25T13:05:06Z</time>
      </trkpt>
      <trkpt lat="44.24646" lon="5.66652">
        <ele>687.47998</ele>
        <time>2011-02-25T13:05:14Z</time>
      </trkpt>
      <trkpt lat="44.24663" lon="5.66661">
        <ele>687.960693</ele>
        <time>2011-02-25T13:05:17Z</time>
      </trkpt>
      <trkpt lat="44.24674" lon="5.66665">
        <ele>689.402588</ele>
        <time>2011-02-25T13:05:19Z</time>
      </trkpt>
      <trkpt lat="44.24699" lon="5.6667">
        <ele>687.47998</ele>
        <time>2011-02-25T13:05:23Z</time>
      </trkpt>
      <trkpt lat="44.24718" lon="5.66674">
        <ele>687.960693</ele>
        <time>2011-02-25T13:05:26Z</time>
      </trkpt>
      <trkpt lat="44.24742" lon="5.66681">
        <ele>686.518799</ele>
        <time>2011-02-25T13:05:30Z</time>
      </trkpt>
      <trkpt lat="44.24759" lon="5.66696">
        <ele>688.441406</ele>
        <time>2011-02-25T13:05:33Z</time>
      </trkpt>
      <trkpt lat="44.24764" lon="5.66702">
        <ele>687.47998</ele>
        <time>2011-02-25T13:05:34Z</time>
      </trkpt>
      <trkpt lat="44.24773" lon="5.66717">
        <ele>686.518799</ele>
        <time>2011-02-25T13:05:36Z</time>
      </trkpt>
      <trkpt lat="44.24785" lon="5.66749">
        <ele>687.47998</ele>
        <time>2011-02-25T13:05:40Z</time>
      </trkpt>
      <trkpt lat="44.24789" lon="5.66768">
        <ele>686.038086</ele>
        <time>2011-02-25T13:05:42Z</time>
      </trkpt>
      <trkpt lat="44.24783" lon="5.66824">
        <ele>684.596191</ele>
        <time>2011-02-25T13:05:48Z</time>
      </trkpt>
      <trkpt lat="44.24754" lon="5.66907">
        <ele>685.557373</ele>
        <time>2011-02-25T13:05:58Z</time>
      </trkpt>
      <trkpt lat="44.24737" lon="5.66949">
        <ele>683.153809</ele>
        <time>2011-02-25T13:06:03Z</time>
      </trkpt>
      <trkpt lat="44.24706" lon="5.67085">
        <ele>681.711914</ele>
        <time>2011-02-25T13:06:18Z</time>
      </trkpt>
      <trkpt lat="44.24703" lon="5.67131">
        <ele>680.750732</ele>
        <time>2011-02-25T13:06:23Z</time>
      </trkpt>
      <trkpt lat="44.24697" lon="5.67158">
        <ele>679.308594</ele>
        <time>2011-02-25T13:06:26Z</time>
      </trkpt>
      <trkpt lat="44.24688" lon="5.67173">
        <ele>680.27002</ele>
        <time>2011-02-25T13:06:28Z</time>
      </trkpt>
      <trkpt lat="44.24644" lon="5.67272">
        <ele>679.308594</ele>
        <time>2011-02-25T13:06:42Z</time>
      </trkpt>
      <trkpt lat="44.24634" lon="5.67324">
        <ele>680.27002</ele>
        <time>2011-02-25T13:06:54Z</time>
      </trkpt>
      <trkpt lat="44.24608" lon="5.67405">
        <ele>678.828125</ele>
        <time>2011-02-25T13:06:58Z</time>
      </trkpt>
      <trkpt lat="44.24601" lon="5.67422">
        <ele>681.231445</ele>
        <time>2011-02-25T13:07:00Z</time>
      </trkpt>
      <trkpt lat="44.2458" lon="5.67457">
        <ele>681.231445</ele>
        <time>2011-02-25T13:07:05Z</time>
      </trkpt>
      <trkpt lat="44.24546" lon="5.67513">
        <ele>683.634521</ele>
        <time>2011-02-25T13:07:14Z</time>
      </trkpt>
      <trkpt lat="44.24542" lon="5.67535">
        <ele>683.634521</ele>
        <time>2011-02-25T13:07:17Z</time>
      </trkpt>
      <trkpt lat="44.24544" lon="5.67598">
        <ele>679.789307</ele>
        <time>2011-02-25T13:07:24Z</time>
      </trkpt>
      <trkpt lat="44.24544" lon="5.67617">
        <ele>677.866699</ele>
        <time>2011-02-25T13:07:26Z</time>
      </trkpt>
      <trkpt lat="44.24544" lon="5.67638">
        <ele>676.424805</ele>
        <time>2011-02-25T13:07:28Z</time>
      </trkpt>
      <trkpt lat="44.24537" lon="5.67687">
        <ele>678.347412</ele>
        <time>2011-02-25T13:07:33Z</time>
      </trkpt>
      <trkpt lat="44.24527" lon="5.67748">
        <ele>676.905518</ele>
        <time>2011-02-25T13:07:40Z</time>
      </trkpt>
      <trkpt lat="44.24518" lon="5.6784">
        <ele>675.463379</ele>
        <time>2011-02-25T13:07:51Z</time>
      </trkpt>
      <trkpt lat="44.24524" lon="5.68029">
        <ele>673.060303</ele>
        <time>2011-02-25T13:08:10Z</time>
      </trkpt>
      <trkpt lat="44.24553" lon="5.68179">
        <ele>673.541016</ele>
        <time>2011-02-25T13:08:25Z</time>
      </trkpt>
      <trkpt lat="44.24572" lon="5.6826">
        <ele>673.060303</ele>
        <time>2011-02-25T13:08:33Z</time>
      </trkpt>
      <trkpt lat="44.24612" lon="5.68439">
        <ele>673.541016</ele>
        <time>2011-02-25T13:08:51Z</time>
      </trkpt>
      <trkpt lat="44.24622" lon="5.68624">
        <ele>671.618164</ele>
        <time>2011-02-25T13:09:09Z</time>
      </trkpt>
      <trkpt lat="44.24628" lon="5.68689">
        <ele>670.17627</ele>
        <time>2011-02-25T13:09:15Z</time>
      </trkpt>
      <trkpt lat="44.24652" lon="5.68895">
        <ele>671.137695</ele>
        <time>2011-02-25T13:09:36Z</time>
      </trkpt>
      <trkpt lat="44.24675" lon="5.69089">
        <ele>668.734375</ele>
        <time>2011-02-25T13:09:57Z</time>
      </trkpt>
      <trkpt lat="44.24678" lon="5.69105">
        <ele>665.850342</ele>
        <time>2011-02-25T13:09:59Z</time>
      </trkpt>
      <trkpt lat="44.2468" lon="5.6912">
        <ele>668.734375</ele>
        <time>2011-02-25T13:10:01Z</time>
      </trkpt>
      <trkpt lat="44.24689" lon="5.69156">
        <ele>670.656982</ele>
        <time>2011-02-25T13:10:06Z</time>
      </trkpt>
      <trkpt lat="44.24743" lon="5.69278">
        <ele>668.734375</ele>
        <time>2011-02-25T13:10:24Z</time>
      </trkpt>
      <trkpt lat="44.24788" lon="5.69416">
        <ele>669.695801</ele>
        <time>2011-02-25T13:10:44Z</time>
      </trkpt>
      <trkpt lat="44.24797" lon="5.69469">
        <ele>670.656982</ele>
        <time>2011-02-25T13:10:52Z</time>
      </trkpt>
      <trkpt lat="44.24796" lon="5.69506">
        <ele>670.17627</ele>
        <time>2011-02-25T13:10:57Z</time>
      </trkpt>
      <trkpt lat="44.24765" lon="5.69638">
        <ele>667.772705</ele>
        <time>2011-02-25T13:11:13Z</time>
      </trkpt>
      <trkpt lat="44.24737" lon="5.69734">
        <ele>668.253662</ele>
        <time>2011-02-25T13:11:26Z</time>
      </trkpt>
      <trkpt lat="44.24716" lon="5.69857">
        <ele>667.772705</ele>
        <time>2011-02-25T13:11:41Z</time>
      </trkpt>
      <trkpt lat="44.24719" lon="5.69896">
        <ele>667.772705</ele>
        <time>2011-02-25T13:11:46Z</time>
      </trkpt>
      <trkpt lat="44.24758" lon="5.69992">
        <ele>669.215088</ele>
        <time>2011-02-25T13:12:01Z</time>
      </trkpt>
      <trkpt lat="44.24763" lon="5.70002">
        <ele>668.253662</ele>
        <time>2011-02-25T13:12:03Z</time>
      </trkpt>
      <trkpt lat="44.24778" lon="5.70028">
        <ele>667.772705</ele>
        <time>2011-02-25T13:12:08Z</time>
      </trkpt>
      <trkpt lat="44.24834" lon="5.70094">
        <ele>667.292236</ele>
        <time>2011-02-25T13:12:21Z</time>
      </trkpt>
      <trkpt lat="44.24846" lon="5.70122">
        <ele>666.811523</ele>
        <time>2011-02-25T13:12:25Z</time>
      </trkpt>
      <trkpt lat="44.24849" lon="5.70146">
        <ele>666.330811</ele>
        <time>2011-02-25T13:12:28Z</time>
      </trkpt>
      <trkpt lat="44.24853" lon="5.70227">
        <ele>666.330811</ele>
        <time>2011-02-25T13:12:39Z</time>
      </trkpt>
      <trkpt lat="44.24832" lon="5.70301">
        <ele>665.850342</ele>
        <time>2011-02-25T13:12:50Z</time>
      </trkpt>
      <trkpt lat="44.24803" lon="5.7036">
        <ele>665.850342</ele>
        <time>2011-02-25T13:13:00Z</time>
      </trkpt>
      <trkpt lat="44.24783" lon="5.70442">
        <ele>665.369629</ele>
        <time>2011-02-25T13:13:12Z</time>
      </trkpt>
      <trkpt lat="44.24773" lon="5.70458">
        <ele>665.369629</ele>
        <time>2011-02-25T13:13:15Z</time>
      </trkpt>
      <trkpt lat="44.24744" lon="5.70493">
        <ele>668.253662</ele>
        <time>2011-02-25T13:13:24Z</time>
      </trkpt>
      <trkpt lat="44.2469" lon="5.70556">
        <ele>671.137695</ele>
        <time>2011-02-25T13:13:43Z</time>
      </trkpt>
      <trkpt lat="44.24702" lon="5.70592">
        <ele>671.618164</ele>
        <time>2011-02-25T13:13:53Z</time>
      </trkpt>
      <trkpt lat="44.24744" lon="5.70625">
        <ele>671.137695</ele>
        <time>2011-02-25T13:14:09Z</time>
      </trkpt>
      <trkpt lat="44.24752" lon="5.70666">
        <ele>672.57959</ele>
        <time>2011-02-25T13:14:20Z</time>
      </trkpt>
      <trkpt lat="44.24744" lon="5.70677">
        <ele>674.021484</ele>
        <time>2011-02-25T13:14:24Z</time>
      </trkpt>
      <trkpt lat="44.2471" lon="5.70685">
        <ele>676.424805</ele>
        <time>2011-02-25T13:14:37Z</time>
      </trkpt>
      <trkpt lat="44.2466" lon="5.70695">
        <ele>677.866699</ele>
        <time>2011-02-25T13:14:56Z</time>
      </trkpt>
      <trkpt lat="44.2463" lon="5.70697">
        <ele>681.231445</ele>
        <time>2011-02-25T13:15:09Z</time>
      </trkpt>
      <trkpt lat="44.24628" lon="5.70698">
        <ele>681.231445</ele>
        <time>2011-02-25T13:15:10Z</time>
      </trkpt>
      <trkpt lat="44.24627" lon="5.70726">
        <ele>683.634521</ele>
        <time>2011-02-25T13:15:20Z</time>
      </trkpt>
      <trkpt lat="44.2466" lon="5.708">
        <ele>685.076904</ele>
        <time>2011-02-25T13:15:42Z</time>
      </trkpt>
      <trkpt lat="44.24677" lon="5.70819">
        <ele>683.153809</ele>
        <time>2011-02-25T13:15:48Z</time>
      </trkpt>
      <trkpt lat="44.24685" lon="5.70825">
        <ele>682.67334</ele>
        <time>2011-02-25T13:15:50Z</time>
      </trkpt>
      <trkpt lat="44.24718" lon="5.70849">
        <ele>679.308594</ele>
        <time>2011-02-25T13:15:58Z</time>
      </trkpt>
      <trkpt lat="44.24797" lon="5.7091">
        <ele>680.27002</ele>
        <time>2011-02-25T13:16:14Z</time>
      </trkpt>
      <trkpt lat="44.24882" lon="5.71005">
        <ele>678.828125</ele>
        <time>2011-02-25T13:16:35Z</time>
      </trkpt>
      <trkpt lat="44.24899" lon="5.71027">
        <ele>676.905518</ele>
        <time>2011-02-25T13:16:39Z</time>
      </trkpt>
      <trkpt lat="44.24949" lon="5.71097">
        <ele>674.021484</ele>
        <time>2011-02-25T13:16:50Z</time>
      </trkpt>
      <trkpt lat="44.24975" lon="5.71134">
        <ele>672.57959</ele>
        <time>2011-02-25T13:16:55Z</time>
      </trkpt>
      <trkpt lat="44.25019" lon="5.71197">
        <ele>669.695801</ele>
        <time>2011-02-25T13:17:03Z</time>
      </trkpt>
      <trkpt lat="44.2504" lon="5.71235">
        <ele>667.772705</ele>
        <time>2011-02-25T13:17:07Z</time>
      </trkpt>
      <trkpt lat="44.25047" lon="5.71257">
        <ele>666.330811</ele>
        <time>2011-02-25T13:17:09Z</time>
      </trkpt>
      <trkpt lat="44.25063" lon="5.713">
        <ele>663.92749</ele>
        <time>2011-02-25T13:17:13Z</time>
      </trkpt>
      <trkpt lat="44.25114" lon="5.71414">
        <ele>665.850342</ele>
        <time>2011-02-25T13:17:25Z</time>
      </trkpt>
      <trkpt lat="44.25125" lon="5.71432">
        <ele>667.772705</ele>
        <time>2011-02-25T13:17:28Z</time>
      </trkpt>
      <trkpt lat="44.25202" lon="5.71514">
        <ele>668.734375</ele>
        <time>2011-02-25T13:17:45Z</time>
      </trkpt>
      <trkpt lat="44.25215" lon="5.71529">
        <ele>668.734375</ele>
        <time>2011-02-25T13:17:48Z</time>
      </trkpt>
      <trkpt lat="44.2523" lon="5.71544">
        <ele>668.253662</ele>
        <time>2011-02-25T13:17:51Z</time>
      </trkpt>
      <trkpt lat="44.25308" lon="5.7163">
        <ele>666.330811</ele>
        <time>2011-02-25T13:18:07Z</time>
      </trkpt>
      <trkpt lat="44.25387" lon="5.71704">
        <ele>665.850342</ele>
        <time>2011-02-25T13:18:23Z</time>
      </trkpt>
      <trkpt lat="44.25403" lon="5.71712">
        <ele>664.408203</ele>
        <time>2011-02-25T13:18:26Z</time>
      </trkpt>
      <trkpt lat="44.25515" lon="5.71784">
        <ele>664.888916</ele>
        <time>2011-02-25T13:18:48Z</time>
      </trkpt>
      <trkpt lat="44.25554" lon="5.71813">
        <ele>663.447021</ele>
        <time>2011-02-25T13:18:56Z</time>
      </trkpt>
      <trkpt lat="44.25572" lon="5.7183">
        <ele>664.888916</ele>
        <time>2011-02-25T13:19:00Z</time>
      </trkpt>
      <trkpt lat="44.25667" lon="5.71909">
        <ele>661.524414</ele>
        <time>2011-02-25T13:19:20Z</time>
      </trkpt>
      <trkpt lat="44.25704" lon="5.71926">
        <ele>663.447021</ele>
        <time>2011-02-25T13:19:27Z</time>
      </trkpt>
      <trkpt lat="44.25732" lon="5.71955">
        <ele>661.524414</ele>
        <time>2011-02-25T13:19:33Z</time>
      </trkpt>
      <trkpt lat="44.25832" lon="5.72026">
        <ele>661.524414</ele>
        <time>2011-02-25T13:19:52Z</time>
      </trkpt>
      <trkpt lat="44.25852" lon="5.72041">
        <ele>662.005127</ele>
        <time>2011-02-25T13:19:56Z</time>
      </trkpt>
      <trkpt lat="44.25861" lon="5.72048">
        <ele>663.92749</ele>
        <time>2011-02-25T13:20:04Z</time>
      </trkpt>
      <trkpt lat="44.25861" lon="5.72048">
        <ele>663.92749</ele>
        <time>2011-02-25T13:21:12Z</time>
      </trkpt>
      <trkpt lat="44.25896" lon="5.72075">
        <ele>662.485596</ele>
        <time>2011-02-25T13:21:24Z</time>
      </trkpt>
      <trkpt lat="44.25948" lon="5.72151">
        <ele>663.92749</ele>
        <time>2011-02-25T13:21:42Z</time>
      </trkpt>
      <trkpt lat="44.25987" lon="5.72228">
        <ele>664.408203</ele>
        <time>2011-02-25T13:21:58Z</time>
      </trkpt>
      <trkpt lat="44.25994" lon="5.72244">
        <ele>663.447021</ele>
        <time>2011-02-25T13:22:01Z</time>
      </trkpt>
      <trkpt lat="44.26005" lon="5.72266">
        <ele>663.92749</ele>
        <time>2011-02-25T13:22:05Z</time>
      </trkpt>
      <trkpt lat="44.26014" lon="5.72283">
        <ele>663.92749</ele>
        <time>2011-02-25T13:22:08Z</time>
      </trkpt>
      <trkpt lat="44.26054" lon="5.72366">
        <ele>662.005127</ele>
        <time>2011-02-25T13:22:22Z</time>
      </trkpt>
      <trkpt lat="44.26077" lon="5.72424">
        <ele>661.524414</ele>
        <time>2011-02-25T13:22:31Z</time>
      </trkpt>
      <trkpt lat="44.26081" lon="5.72437">
        <ele>662.966309</ele>
        <time>2011-02-25T13:22:33Z</time>
      </trkpt>
      <trkpt lat="44.26087" lon="5.72464">
        <ele>663.447021</ele>
        <time>2011-02-25T13:22:37Z</time>
      </trkpt>
      <trkpt lat="44.26116" lon="5.72576">
        <ele>666.330811</ele>
        <time>2011-02-25T13:22:55Z</time>
      </trkpt>
      <trkpt lat="44.26143" lon="5.72692">
        <ele>663.447021</ele>
        <time>2011-02-25T13:23:13Z</time>
      </trkpt>
      <trkpt lat="44.26147" lon="5.7271">
        <ele>662.005127</ele>
        <time>2011-02-25T13:23:15Z</time>
      </trkpt>
      <trkpt lat="44.26155" lon="5.72745">
        <ele>661.043701</ele>
        <time>2011-02-25T13:23:19Z</time>
      </trkpt>
      <trkpt lat="44.26164" lon="5.72834">
        <ele>656.717773</ele>
        <time>2011-02-25T13:23:28Z</time>
      </trkpt>
      <trkpt lat="44.26163" lon="5.72844">
        <ele>656.717773</ele>
        <time>2011-02-25T13:23:29Z</time>
      </trkpt>
      <trkpt lat="44.26158" lon="5.7301">
        <ele>653.353271</ele>
        <time>2011-02-25T13:23:44Z</time>
      </trkpt>
      <trkpt lat="44.26158" lon="5.73093">
        <ele>649.0271</ele>
        <time>2011-02-25T13:23:51Z</time>
      </trkpt>
      <trkpt lat="44.26159" lon="5.73105">
        <ele>649.0271</ele>
        <time>2011-02-25T13:23:52Z</time>
      </trkpt>
      <trkpt lat="44.26195" lon="5.73223">
        <ele>649.0271</ele>
        <time>2011-02-25T13:24:04Z</time>
      </trkpt>
      <trkpt lat="44.26246" lon="5.73376">
        <ele>648.546387</ele>
        <time>2011-02-25T13:24:24Z</time>
      </trkpt>
      <trkpt lat="44.26252" lon="5.73398">
        <ele>649.507813</ele>
        <time>2011-02-25T13:24:27Z</time>
      </trkpt>
      <trkpt lat="44.26279" lon="5.73561">
        <ele>647.104492</ele>
        <time>2011-02-25T13:24:46Z</time>
      </trkpt>
      <trkpt lat="44.26302" lon="5.7372">
        <ele>646.143311</ele>
        <time>2011-02-25T13:25:05Z</time>
      </trkpt>
      <trkpt lat="44.26319" lon="5.7387">
        <ele>648.546387</ele>
        <time>2011-02-25T13:25:26Z</time>
      </trkpt>
      <trkpt lat="44.26327" lon="5.74036">
        <ele>648.546387</ele>
        <time>2011-02-25T13:25:50Z</time>
      </trkpt>
      <trkpt lat="44.26329" lon="5.74066">
        <ele>646.624023</ele>
        <time>2011-02-25T13:25:54Z</time>
      </trkpt>
      <trkpt lat="44.2634" lon="5.74243">
        <ele>647.585205</ele>
        <time>2011-02-25T13:26:18Z</time>
      </trkpt>
      <trkpt lat="44.26343" lon="5.74299">
        <ele>646.624023</ele>
        <time>2011-02-25T13:26:25Z</time>
      </trkpt>
      <trkpt lat="44.26353" lon="5.74373">
        <ele>646.143311</ele>
        <time>2011-02-25T13:26:34Z</time>
      </trkpt>
      <trkpt lat="44.26359" lon="5.74391">
        <ele>644.220703</ele>
        <time>2011-02-25T13:26:36Z</time>
      </trkpt>
      <trkpt lat="44.26362" lon="5.7441">
        <ele>642.298096</ele>
        <time>2011-02-25T13:26:38Z</time>
      </trkpt>
      <trkpt lat="44.26361" lon="5.74441">
        <ele>640.855957</ele>
        <time>2011-02-25T13:26:41Z</time>
      </trkpt>
      <trkpt lat="44.26348" lon="5.74467">
        <ele>640.855957</ele>
        <time>2011-02-25T13:26:44Z</time>
      </trkpt>
      <trkpt lat="44.26337" lon="5.74481">
        <ele>640.375488</ele>
        <time>2011-02-25T13:26:46Z</time>
      </trkpt>
      <trkpt lat="44.26287" lon="5.7459">
        <ele>641.33667</ele>
        <time>2011-02-25T13:27:00Z</time>
      </trkpt>
      <trkpt lat="44.26281" lon="5.74646">
        <ele>639.414063</ele>
        <time>2011-02-25T13:27:06Z</time>
      </trkpt>
      <trkpt lat="44.26284" lon="5.74656">
        <ele>637.972168</ele>
        <time>2011-02-25T13:27:07Z</time>
      </trkpt>
      <trkpt lat="44.26292" lon="5.74675">
        <ele>637.010742</ele>
        <time>2011-02-25T13:27:09Z</time>
      </trkpt>
      <trkpt lat="44.26299" lon="5.74694">
        <ele>635.568604</ele>
        <time>2011-02-25T13:27:11Z</time>
      </trkpt>
      <trkpt lat="44.26318" lon="5.74741">
        <ele>633.645996</ele>
        <time>2011-02-25T13:27:16Z</time>
      </trkpt>
      <trkpt lat="44.26335" lon="5.74778">
        <ele>633.165283</ele>
        <time>2011-02-25T13:27:20Z</time>
      </trkpt>
      <trkpt lat="44.26359" lon="5.74822">
        <ele>633.165283</ele>
        <time>2011-02-25T13:27:25Z</time>
      </trkpt>
      <trkpt lat="44.26369" lon="5.74839">
        <ele>631.723389</ele>
        <time>2011-02-25T13:27:27Z</time>
      </trkpt>
      <trkpt lat="44.26379" lon="5.74859">
        <ele>629.800781</ele>
        <time>2011-02-25T13:27:29Z</time>
      </trkpt>
      <trkpt lat="44.26421" lon="5.74981">
        <ele>627.878174</ele>
        <time>2011-02-25T13:27:40Z</time>
      </trkpt>
      <trkpt lat="44.26437" lon="5.75012">
        <ele>626.436279</ele>
        <time>2011-02-25T13:27:43Z</time>
      </trkpt>
      <trkpt lat="44.26522" lon="5.75153">
        <ele>627.878174</ele>
        <time>2011-02-25T13:28:00Z</time>
      </trkpt>
      <trkpt lat="44.26568" lon="5.75229">
        <ele>627.397705</ele>
        <time>2011-02-25T13:28:10Z</time>
      </trkpt>
      <trkpt lat="44.26578" lon="5.75255">
        <ele>625.955566</ele>
        <time>2011-02-25T13:28:13Z</time>
      </trkpt>
      <trkpt lat="44.26634" lon="5.75389">
        <ele>624.513672</ele>
        <time>2011-02-25T13:28:29Z</time>
      </trkpt>
      <trkpt lat="44.26646" lon="5.75412">
        <ele>625.955566</ele>
        <time>2011-02-25T13:28:32Z</time>
      </trkpt>
      <trkpt lat="44.26672" lon="5.75511">
        <ele>625.955566</ele>
        <time>2011-02-25T13:28:44Z</time>
      </trkpt>
      <trkpt lat="44.26686" lon="5.75609">
        <ele>628.358887</ele>
        <time>2011-02-25T13:28:59Z</time>
      </trkpt>
      <trkpt lat="44.26716" lon="5.75648">
        <ele>629.800781</ele>
        <time>2011-02-25T13:29:10Z</time>
      </trkpt>
      <trkpt lat="44.26718" lon="5.75683">
        <ele>628.358887</ele>
        <time>2011-02-25T13:29:16Z</time>
      </trkpt>
      <trkpt lat="44.26706" lon="5.75701">
        <ele>627.397705</ele>
        <time>2011-02-25T13:29:19Z</time>
      </trkpt>
      <trkpt lat="44.2669" lon="5.75752">
        <ele>625.955566</ele>
        <time>2011-02-25T13:29:26Z</time>
      </trkpt>
      <trkpt lat="44.267" lon="5.75854">
        <ele>624.032959</ele>
        <time>2011-02-25T13:29:39Z</time>
      </trkpt>
      <trkpt lat="44.26712" lon="5.75895">
        <ele>624.994385</ele>
        <time>2011-02-25T13:29:45Z</time>
      </trkpt>
      <trkpt lat="44.26769" lon="5.76002">
        <ele>626.436279</ele>
        <time>2011-02-25T13:30:03Z</time>
      </trkpt>
      <trkpt lat="44.26849" lon="5.7611">
        <ele>626.436279</ele>
        <time>2011-02-25T13:30:23Z</time>
      </trkpt>
      <trkpt lat="44.26865" lon="5.76168">
        <ele>625.955566</ele>
        <time>2011-02-25T13:30:31Z</time>
      </trkpt>
      <trkpt lat="44.26868" lon="5.76192">
        <ele>626.916992</ele>
        <time>2011-02-25T13:30:34Z</time>
      </trkpt>
      <trkpt lat="44.26865" lon="5.76223">
        <ele>626.436279</ele>
        <time>2011-02-25T13:30:38Z</time>
      </trkpt>
      <trkpt lat="44.26853" lon="5.76258">
        <ele>626.436279</ele>
        <time>2011-02-25T13:30:43Z</time>
      </trkpt>
      <trkpt lat="44.26826" lon="5.76285">
        <ele>625.955566</ele>
        <time>2011-02-25T13:30:49Z</time>
      </trkpt>
      <trkpt lat="44.26733" lon="5.76318">
        <ele>625.474854</ele>
        <time>2011-02-25T13:31:07Z</time>
      </trkpt>
      <trkpt lat="44.26666" lon="5.76352">
        <ele>625.955566</ele>
        <time>2011-02-25T13:31:21Z</time>
      </trkpt>
      <trkpt lat="44.26584" lon="5.76382">
        <ele>626.436279</ele>
        <time>2011-02-25T13:31:36Z</time>
      </trkpt>
      <trkpt lat="44.26558" lon="5.76411">
        <ele>625.955566</ele>
        <time>2011-02-25T13:31:42Z</time>
      </trkpt>
      <trkpt lat="44.26542" lon="5.76448">
        <ele>626.436279</ele>
        <time>2011-02-25T13:31:48Z</time>
      </trkpt>
      <trkpt lat="44.26558" lon="5.76486">
        <ele>625.474854</ele>
        <time>2011-02-25T13:31:55Z</time>
      </trkpt>
      <trkpt lat="44.26587" lon="5.76504">
        <ele>624.513672</ele>
        <time>2011-02-25T13:32:00Z</time>
      </trkpt>
      <trkpt lat="44.26607" lon="5.7654">
        <ele>624.513672</ele>
        <time>2011-02-25T13:32:05Z</time>
      </trkpt>
      <trkpt lat="44.26618" lon="5.76566">
        <ele>623.55249</ele>
        <time>2011-02-25T13:32:08Z</time>
      </trkpt>
      <trkpt lat="44.26626" lon="5.76582">
        <ele>623.071777</ele>
        <time>2011-02-25T13:32:10Z</time>
      </trkpt>
      <trkpt lat="44.26625" lon="5.76615">
        <ele>622.591064</ele>
        <time>2011-02-25T13:32:14Z</time>
      </trkpt>
      <trkpt lat="44.26613" lon="5.76667">
        <ele>621.14917</ele>
        <time>2011-02-25T13:32:20Z</time>
      </trkpt>
      <trkpt lat="44.26599" lon="5.76703">
        <ele>618.745605</ele>
        <time>2011-02-25T13:32:24Z</time>
      </trkpt>
      <trkpt lat="44.2658" lon="5.7672">
        <ele>617.78418</ele>
        <time>2011-02-25T13:32:27Z</time>
      </trkpt>
      <trkpt lat="44.2656" lon="5.76749">
        <ele>616.822998</ele>
        <time>2011-02-25T13:32:31Z</time>
      </trkpt>
      <trkpt lat="44.26546" lon="5.76785">
        <ele>614.900391</ele>
        <time>2011-02-25T13:32:35Z</time>
      </trkpt>
      <trkpt lat="44.26537" lon="5.76806">
        <ele>613.458496</ele>
        <time>2011-02-25T13:32:37Z</time>
      </trkpt>
      <trkpt lat="44.26509" lon="5.76831">
        <ele>611.535889</ele>
        <time>2011-02-25T13:32:41Z</time>
      </trkpt>
      <trkpt lat="44.26469" lon="5.76849">
        <ele>612.49707</ele>
        <time>2011-02-25T13:32:47Z</time>
      </trkpt>
      <trkpt lat="44.2646" lon="5.76884">
        <ele>612.977783</ele>
        <time>2011-02-25T13:32:54Z</time>
      </trkpt>
      <trkpt lat="44.26481" lon="5.769">
        <ele>611.055176</ele>
        <time>2011-02-25T13:32:58Z</time>
      </trkpt>
      <trkpt lat="44.26488" lon="5.769">
        <ele>609.613281</ele>
        <time>2011-02-25T13:32:59Z</time>
      </trkpt>
      <trkpt lat="44.26502" lon="5.76901">
        <ele>608.171387</ele>
        <time>2011-02-25T13:33:01Z</time>
      </trkpt>
      <trkpt lat="44.26535" lon="5.76904">
        <ele>605.768066</ele>
        <time>2011-02-25T13:33:05Z</time>
      </trkpt>
      <trkpt lat="44.26607" lon="5.76919">
        <ele>603.845215</ele>
        <time>2011-02-25T13:33:14Z</time>
      </trkpt>
      <trkpt lat="44.26678" lon="5.76944">
        <ele>605.768066</ele>
        <time>2011-02-25T13:33:26Z</time>
      </trkpt>
      <trkpt lat="44.26687" lon="5.76951">
        <ele>605.768066</ele>
        <time>2011-02-25T13:33:28Z</time>
      </trkpt>
      <trkpt lat="44.26709" lon="5.77003">
        <ele>605.287354</ele>
        <time>2011-02-25T13:33:36Z</time>
      </trkpt>
      <trkpt lat="44.26709" lon="5.77025">
        <ele>605.287354</ele>
        <time>2011-02-25T13:33:39Z</time>
      </trkpt>
      <trkpt lat="44.26709" lon="5.77062">
        <ele>606.729248</ele>
        <time>2011-02-25T13:33:44Z</time>
      </trkpt>
      <trkpt lat="44.26709" lon="5.77069">
        <ele>607.209961</ele>
        <time>2011-02-25T13:33:45Z</time>
      </trkpt>
      <trkpt lat="44.26701" lon="5.77095">
        <ele>605.768066</ele>
        <time>2011-02-25T13:33:49Z</time>
      </trkpt>
      <trkpt lat="44.26691" lon="5.77112">
        <ele>606.729248</ele>
        <time>2011-02-25T13:33:52Z</time>
      </trkpt>
      <trkpt lat="44.26622" lon="5.77199">
        <ele>606.248535</ele>
        <time>2011-02-25T13:34:09Z</time>
      </trkpt>
      <trkpt lat="44.26604" lon="5.77216">
        <ele>606.248535</ele>
        <time>2011-02-25T13:34:13Z</time>
      </trkpt>
      <trkpt lat="44.26598" lon="5.77261">
        <ele>605.768066</ele>
        <time>2011-02-25T13:34:21Z</time>
      </trkpt>
      <trkpt lat="44.26621" lon="5.77286">
        <ele>605.287354</ele>
        <time>2011-02-25T13:34:27Z</time>
      </trkpt>
      <trkpt lat="44.26633" lon="5.77298">
        <ele>605.768066</ele>
        <time>2011-02-25T13:34:30Z</time>
      </trkpt>
      <trkpt lat="44.26658" lon="5.77326">
        <ele>606.729248</ele>
        <time>2011-02-25T13:34:36Z</time>
      </trkpt>
      <trkpt lat="44.26675" lon="5.77363">
        <ele>606.248535</ele>
        <time>2011-02-25T13:34:42Z</time>
      </trkpt>
      <trkpt lat="44.26679" lon="5.77384">
        <ele>605.768066</ele>
        <time>2011-02-25T13:34:45Z</time>
      </trkpt>
      <trkpt lat="44.2673" lon="5.77484">
        <ele>606.729248</ele>
        <time>2011-02-25T13:35:02Z</time>
      </trkpt>
      <trkpt lat="44.26769" lon="5.77543">
        <ele>606.248535</ele>
        <time>2011-02-25T13:35:14Z</time>
      </trkpt>
      <trkpt lat="44.26802" lon="5.77551">
        <ele>605.768066</ele>
        <time>2011-02-25T13:35:22Z</time>
      </trkpt>
      <trkpt lat="44.26857" lon="5.7752">
        <ele>607.690674</ele>
        <time>2011-02-25T13:35:33Z</time>
      </trkpt>
      <trkpt lat="44.26921" lon="5.77469">
        <ele>608.171387</ele>
        <time>2011-02-25T13:35:45Z</time>
      </trkpt>
      <trkpt lat="44.26959" lon="5.77452">
        <ele>606.729248</ele>
        <time>2011-02-25T13:35:51Z</time>
      </trkpt>
      <trkpt lat="44.26984" lon="5.77438">
        <ele>607.209961</ele>
        <time>2011-02-25T13:35:55Z</time>
      </trkpt>
      <trkpt lat="44.27023" lon="5.77455">
        <ele>605.287354</ele>
        <time>2011-02-25T13:36:02Z</time>
      </trkpt>
      <trkpt lat="44.27055" lon="5.7749">
        <ele>605.287354</ele>
        <time>2011-02-25T13:36:10Z</time>
      </trkpt>
      <trkpt lat="44.27066" lon="5.77492">
        <ele>605.768066</ele>
        <time>2011-02-25T13:36:12Z</time>
      </trkpt>
      <trkpt lat="44.27081" lon="5.775">
        <ele>607.209961</ele>
        <time>2011-02-25T13:36:15Z</time>
      </trkpt>
      <trkpt lat="44.27085" lon="5.77506">
        <ele>607.209961</ele>
        <time>2011-02-25T13:36:16Z</time>
      </trkpt>
      <trkpt lat="44.27106" lon="5.7755">
        <ele>603.845215</ele>
        <time>2011-02-25T13:36:22Z</time>
      </trkpt>
      <trkpt lat="44.27118" lon="5.77613">
        <ele>601.922607</ele>
        <time>2011-02-25T13:36:29Z</time>
      </trkpt>
      <trkpt lat="44.27126" lon="5.7766">
        <ele>601.922607</ele>
        <time>2011-02-25T13:36:34Z</time>
      </trkpt>
      <trkpt lat="44.27151" lon="5.77701">
        <ele>602.883789</ele>
        <time>2011-02-25T13:36:40Z</time>
      </trkpt>
      <trkpt lat="44.27217" lon="5.77748">
        <ele>600.480713</ele>
        <time>2011-02-25T13:36:50Z</time>
      </trkpt>
      <trkpt lat="44.27261" lon="5.77738">
        <ele>600.961182</ele>
        <time>2011-02-25T13:36:56Z</time>
      </trkpt>
      <trkpt lat="44.27283" lon="5.77737">
        <ele>598.557861</ele>
        <time>2011-02-25T13:36:59Z</time>
      </trkpt>
      <trkpt lat="44.27299" lon="5.77767">
        <ele>599.038574</ele>
        <time>2011-02-25T13:37:04Z</time>
      </trkpt>
      <trkpt lat="44.27297" lon="5.77783">
        <ele>599.519287</ele>
        <time>2011-02-25T13:37:06Z</time>
      </trkpt>
      <trkpt lat="44.27319" lon="5.77822">
        <ele>599.519287</ele>
        <time>2011-02-25T13:37:12Z</time>
      </trkpt>
      <trkpt lat="44.27346" lon="5.77846">
        <ele>597.115967</ele>
        <time>2011-02-25T13:37:17Z</time>
      </trkpt>
      <trkpt lat="44.27356" lon="5.77858">
        <ele>595.674072</ele>
        <time>2011-02-25T13:37:19Z</time>
      </trkpt>
      <trkpt lat="44.27397" lon="5.77913">
        <ele>595.674072</ele>
        <time>2011-02-25T13:37:29Z</time>
      </trkpt>
      <trkpt lat="44.27409" lon="5.77957">
        <ele>597.115967</ele>
        <time>2011-02-25T13:37:35Z</time>
      </trkpt>
      <trkpt lat="44.27409" lon="5.77991">
        <ele>596.635498</ele>
        <time>2011-02-25T13:37:39Z</time>
      </trkpt>
      <trkpt lat="44.27414" lon="5.78022">
        <ele>594.712646</ele>
        <time>2011-02-25T13:37:43Z</time>
      </trkpt>
      <trkpt lat="44.27432" lon="5.78056">
        <ele>596.635498</ele>
        <time>2011-02-25T13:37:48Z</time>
      </trkpt>
      <trkpt lat="44.27531" lon="5.78174">
        <ele>595.193359</ele>
        <time>2011-02-25T13:38:08Z</time>
      </trkpt>
      <trkpt lat="44.27547" lon="5.78204">
        <ele>594.712646</ele>
        <time>2011-02-25T13:38:12Z</time>
      </trkpt>
      <trkpt lat="44.2755" lon="5.78241">
        <ele>593.751465</ele>
        <time>2011-02-25T13:38:16Z</time>
      </trkpt>
      <trkpt lat="44.27529" lon="5.78284">
        <ele>594.232178</ele>
        <time>2011-02-25T13:38:23Z</time>
      </trkpt>
      <trkpt lat="44.27513" lon="5.78293">
        <ele>593.270752</ele>
        <time>2011-02-25T13:38:26Z</time>
      </trkpt>
      <trkpt lat="44.27488" lon="5.78315">
        <ele>592.790283</ele>
        <time>2011-02-25T13:38:31Z</time>
      </trkpt>
      <trkpt lat="44.27475" lon="5.7833">
        <ele>594.232178</ele>
        <time>2011-02-25T13:38:34Z</time>
      </trkpt>
      <trkpt lat="44.27476" lon="5.78379">
        <ele>593.751465</ele>
        <time>2011-02-25T13:38:41Z</time>
      </trkpt>
      <trkpt lat="44.27509" lon="5.78409">
        <ele>591.828857</ele>
        <time>2011-02-25T13:38:47Z</time>
      </trkpt>
      <trkpt lat="44.27563" lon="5.78416">
        <ele>591.828857</ele>
        <time>2011-02-25T13:38:55Z</time>
      </trkpt>
      <trkpt lat="44.27577" lon="5.78407">
        <ele>590.386963</ele>
        <time>2011-02-25T13:38:57Z</time>
      </trkpt>
      <trkpt lat="44.27618" lon="5.78379">
        <ele>587.021973</ele>
        <time>2011-02-25T13:39:03Z</time>
      </trkpt>
      <trkpt lat="44.27624" lon="5.78374">
        <ele>587.021973</ele>
        <time>2011-02-25T13:39:04Z</time>
      </trkpt>
      <trkpt lat="44.2765" lon="5.78354">
        <ele>588.464355</ele>
        <time>2011-02-25T13:39:08Z</time>
      </trkpt>
      <trkpt lat="44.27664" lon="5.78344">
        <ele>589.90625</ele>
        <time>2011-02-25T13:39:10Z</time>
      </trkpt>
      <trkpt lat="44.27671" lon="5.7834">
        <ele>589.90625</ele>
        <time>2011-02-25T13:39:11Z</time>
      </trkpt>
      <trkpt lat="44.27757" lon="5.78248">
        <ele>587.021973</ele>
        <time>2011-02-25T13:39:24Z</time>
      </trkpt>
      <trkpt lat="44.27771" lon="5.78234">
        <ele>585.580078</ele>
        <time>2011-02-25T13:39:26Z</time>
      </trkpt>
      <trkpt lat="44.27791" lon="5.78213">
        <ele>586.060791</ele>
        <time>2011-02-25T13:39:29Z</time>
      </trkpt>
      <trkpt lat="44.2783" lon="5.78189">
        <ele>585.099609</ele>
        <time>2011-02-25T13:39:34Z</time>
      </trkpt>
      <trkpt lat="44.27887" lon="5.78213">
        <ele>585.099609</ele>
        <time>2011-02-25T13:39:42Z</time>
      </trkpt>
      <trkpt lat="44.27912" lon="5.78258">
        <ele>583.657471</ele>
        <time>2011-02-25T13:39:47Z</time>
      </trkpt>
      <trkpt lat="44.27944" lon="5.78379">
        <ele>582.696289</ele>
        <time>2011-02-25T13:39:59Z</time>
      </trkpt>
      <trkpt lat="44.27964" lon="5.78514">
        <ele>582.215576</ele>
        <time>2011-02-25T13:40:13Z</time>
      </trkpt>
      <trkpt lat="44.27964" lon="5.78534">
        <ele>580.292969</ele>
        <time>2011-02-25T13:40:15Z</time>
      </trkpt>
      <trkpt lat="44.27958" lon="5.78605">
        <ele>579.812256</ele>
        <time>2011-02-25T13:40:23Z</time>
      </trkpt>
      <trkpt lat="44.27947" lon="5.78634">
        <ele>582.215576</ele>
        <time>2011-02-25T13:40:27Z</time>
      </trkpt>
      <trkpt lat="44.27938" lon="5.78653">
        <ele>581.254395</ele>
        <time>2011-02-25T13:40:30Z</time>
      </trkpt>
      <trkpt lat="44.27931" lon="5.78694">
        <ele>581.254395</ele>
        <time>2011-02-25T13:40:36Z</time>
      </trkpt>
      <trkpt lat="44.27932" lon="5.78716">
        <ele>583.176758</ele>
        <time>2011-02-25T13:40:39Z</time>
      </trkpt>
      <trkpt lat="44.27935" lon="5.78738">
        <ele>583.176758</ele>
        <time>2011-02-25T13:40:42Z</time>
      </trkpt>
      <trkpt lat="44.27963" lon="5.78854">
        <ele>584.138184</ele>
        <time>2011-02-25T13:40:58Z</time>
      </trkpt>
      <trkpt lat="44.27956" lon="5.78962">
        <ele>584.138184</ele>
        <time>2011-02-25T13:41:14Z</time>
      </trkpt>
      <trkpt lat="44.27944" lon="5.78985">
        <ele>584.618896</ele>
        <time>2011-02-25T13:41:18Z</time>
      </trkpt>
      <trkpt lat="44.27936" lon="5.78992">
        <ele>584.138184</ele>
        <time>2011-02-25T13:41:20Z</time>
      </trkpt>
      <trkpt lat="44.27911" lon="5.79012">
        <ele>585.580078</ele>
        <time>2011-02-25T13:41:26Z</time>
      </trkpt>
      <trkpt lat="44.27891" lon="5.79018">
        <ele>583.176758</ele>
        <time>2011-02-25T13:41:30Z</time>
      </trkpt>
      <trkpt lat="44.27858" lon="5.79017">
        <ele>584.138184</ele>
        <time>2011-02-25T13:41:38Z</time>
      </trkpt>
      <trkpt lat="44.27829" lon="5.78999">
        <ele>585.580078</ele>
        <time>2011-02-25T13:41:46Z</time>
      </trkpt>
      <trkpt lat="44.27815" lon="5.79001">
        <ele>587.502686</ele>
        <time>2011-02-25T13:41:50Z</time>
      </trkpt>
      <trkpt lat="44.27809" lon="5.79007">
        <ele>587.502686</ele>
        <time>2011-02-25T13:41:52Z</time>
      </trkpt>
      <trkpt lat="44.27818" lon="5.79068">
        <ele>587.502686</ele>
        <time>2011-02-25T13:41:59Z</time>
      </trkpt>
      <trkpt lat="44.27832" lon="5.79083">
        <ele>587.502686</ele>
        <time>2011-02-25T13:42:02Z</time>
      </trkpt>
      <trkpt lat="44.27844" lon="5.79113">
        <ele>585.099609</ele>
        <time>2011-02-25T13:42:06Z</time>
      </trkpt>
      <trkpt lat="44.2785" lon="5.79134">
        <ele>587.021973</ele>
        <time>2011-02-25T13:42:08Z</time>
      </trkpt>
      <trkpt lat="44.27864" lon="5.79158">
        <ele>586.541504</ele>
        <time>2011-02-25T13:42:11Z</time>
      </trkpt>
      <trkpt lat="44.27863" lon="5.79191">
        <ele>582.696289</ele>
        <time>2011-02-25T13:42:14Z</time>
      </trkpt>
      <trkpt lat="44.27861" lon="5.79213">
        <ele>580.773682</ele>
        <time>2011-02-25T13:42:16Z</time>
      </trkpt>
      <trkpt lat="44.27849" lon="5.79251">
        <ele>579.331543</ele>
        <time>2011-02-25T13:42:20Z</time>
      </trkpt>
      <trkpt lat="44.27827" lon="5.79298">
        <ele>579.331543</ele>
        <time>2011-02-25T13:42:25Z</time>
      </trkpt>
      <trkpt lat="44.27818" lon="5.79317">
        <ele>577.40918</ele>
        <time>2011-02-25T13:42:27Z</time>
      </trkpt>
      <trkpt lat="44.27806" lon="5.79329">
        <ele>574.044434</ele>
        <time>2011-02-25T13:42:29Z</time>
      </trkpt>
      <trkpt lat="44.278" lon="5.79333">
        <ele>574.044434</ele>
        <time>2011-02-25T13:42:30Z</time>
      </trkpt>
      <trkpt lat="44.27786" lon="5.79334">
        <ele>571.640869</ele>
        <time>2011-02-25T13:42:32Z</time>
      </trkpt>
      <trkpt lat="44.27755" lon="5.79346">
        <ele>572.121826</ele>
        <time>2011-02-25T13:42:37Z</time>
      </trkpt>
      <trkpt lat="44.27707" lon="5.79421">
        <ele>575.005859</ele>
        <time>2011-02-25T13:42:47Z</time>
      </trkpt>
      <trkpt lat="44.27685" lon="5.7953">
        <ele>569.718506</ele>
        <time>2011-02-25T13:42:56Z</time>
      </trkpt>
      <trkpt lat="44.27683" lon="5.79543">
        <ele>569.718506</ele>
        <time>2011-02-25T13:42:57Z</time>
      </trkpt>
      <trkpt lat="44.27679" lon="5.79584">
        <ele>568.276367</ele>
        <time>2011-02-25T13:43:00Z</time>
      </trkpt>
      <trkpt lat="44.27676" lon="5.79711">
        <ele>565.873291</ele>
        <time>2011-02-25T13:43:09Z</time>
      </trkpt>
      <trkpt lat="44.27677" lon="5.79725">
        <ele>565.873291</ele>
        <time>2011-02-25T13:43:10Z</time>
      </trkpt>
      <trkpt lat="44.27668" lon="5.79775">
        <ele>562.989258</ele>
        <time>2011-02-25T13:43:14Z</time>
      </trkpt>
      <trkpt lat="44.2765" lon="5.79839">
        <ele>566.35376</ele>
        <time>2011-02-25T13:43:20Z</time>
      </trkpt>
      <trkpt lat="44.27647" lon="5.7985">
        <ele>566.35376</ele>
        <time>2011-02-25T13:43:21Z</time>
      </trkpt>
      <trkpt lat="44.27638" lon="5.79881">
        <ele>566.834473</ele>
        <time>2011-02-25T13:43:24Z</time>
      </trkpt>
      <trkpt lat="44.27617" lon="5.79967">
        <ele>566.35376</ele>
        <time>2011-02-25T13:43:32Z</time>
      </trkpt>
      <trkpt lat="44.27612" lon="5.79989">
        <ele>564.911865</ele>
        <time>2011-02-25T13:43:34Z</time>
      </trkpt>
      <trkpt lat="44.27604" lon="5.80008">
        <ele>564.911865</ele>
        <time>2011-02-25T13:43:36Z</time>
      </trkpt>
      <trkpt lat="44.27527" lon="5.80159">
        <ele>562.989258</ele>
        <time>2011-02-25T13:43:52Z</time>
      </trkpt>
      <trkpt lat="44.27508" lon="5.80188">
        <ele>561.06665</ele>
        <time>2011-02-25T13:43:55Z</time>
      </trkpt>
      <trkpt lat="44.2747" lon="5.80261">
        <ele>561.06665</ele>
        <time>2011-02-25T13:44:02Z</time>
      </trkpt>
      <trkpt lat="44.27455" lon="5.80299">
        <ele>559.624756</ele>
        <time>2011-02-25T13:44:05Z</time>
      </trkpt>
      <trkpt lat="44.27446" lon="5.80325">
        <ele>558.182861</ele>
        <time>2011-02-25T13:44:07Z</time>
      </trkpt>
      <trkpt lat="44.27441" lon="5.80338">
        <ele>554.817871</ele>
        <time>2011-02-25T13:44:08Z</time>
      </trkpt>
      <trkpt lat="44.27436" lon="5.80352">
        <ele>554.817871</ele>
        <time>2011-02-25T13:44:09Z</time>
      </trkpt>
      <trkpt lat="44.27429" lon="5.80379">
        <ele>553.375977</ele>
        <time>2011-02-25T13:44:11Z</time>
      </trkpt>
      <trkpt lat="44.27394" lon="5.80476">
        <ele>553.856689</ele>
        <time>2011-02-25T13:44:19Z</time>
      </trkpt>
      <trkpt lat="44.27342" lon="5.80568">
        <ele>554.337402</ele>
        <time>2011-02-25T13:44:29Z</time>
      </trkpt>
      <trkpt lat="44.27329" lon="5.80639">
        <ele>553.856689</ele>
        <time>2011-02-25T13:44:36Z</time>
      </trkpt>
      <trkpt lat="44.27329" lon="5.8067">
        <ele>553.375977</ele>
        <time>2011-02-25T13:44:39Z</time>
      </trkpt>
      <trkpt lat="44.27315" lon="5.80708">
        <ele>550.972656</ele>
        <time>2011-02-25T13:44:43Z</time>
      </trkpt>
      <trkpt lat="44.27301" lon="5.80738">
        <ele>549.530762</ele>
        <time>2011-02-25T13:44:46Z</time>
      </trkpt>
      <trkpt lat="44.27254" lon="5.80886">
        <ele>549.530762</ele>
        <time>2011-02-25T13:45:00Z</time>
      </trkpt>
      <trkpt lat="44.27249" lon="5.80908">
        <ele>548.088867</ele>
        <time>2011-02-25T13:45:02Z</time>
      </trkpt>
      <trkpt lat="44.27221" lon="5.81055">
        <ele>546.646851</ele>
        <time>2011-02-25T13:45:17Z</time>
      </trkpt>
      <trkpt lat="44.2722" lon="5.81074">
        <ele>548.569336</ele>
        <time>2011-02-25T13:45:19Z</time>
      </trkpt>
      <trkpt lat="44.27222" lon="5.81136">
        <ele>548.569336</ele>
        <time>2011-02-25T13:45:27Z</time>
      </trkpt>
      <trkpt lat="44.27234" lon="5.81166">
        <ele>548.088867</ele>
        <time>2011-02-25T13:45:33Z</time>
      </trkpt>
      <trkpt lat="44.27248" lon="5.81178">
        <ele>549.530762</ele>
        <time>2011-02-25T13:45:37Z</time>
      </trkpt>
      <trkpt lat="44.27273" lon="5.81204">
        <ele>550.011475</ele>
        <time>2011-02-25T13:45:44Z</time>
      </trkpt>
      <trkpt lat="44.27282" lon="5.81216">
        <ele>548.569336</ele>
        <time>2011-02-25T13:45:47Z</time>
      </trkpt>
      <trkpt lat="44.27296" lon="5.81233">
        <ele>550.011475</ele>
        <time>2011-02-25T13:45:51Z</time>
      </trkpt>
      <trkpt lat="44.27309" lon="5.81255">
        <ele>547.127441</ele>
        <time>2011-02-25T13:45:55Z</time>
      </trkpt>
      <trkpt lat="44.27313" lon="5.81261">
        <ele>547.127441</ele>
        <time>2011-02-25T13:45:56Z</time>
      </trkpt>
      <trkpt lat="44.27321" lon="5.81273">
        <ele>545.685547</ele>
        <time>2011-02-25T13:45:58Z</time>
      </trkpt>
      <trkpt lat="44.27336" lon="5.81295">
        <ele>545.204834</ele>
        <time>2011-02-25T13:46:02Z</time>
      </trkpt>
      <trkpt lat="44.2735" lon="5.81309">
        <ele>547.127441</ele>
        <time>2011-02-25T13:46:05Z</time>
      </trkpt>
      <trkpt lat="44.27415" lon="5.8135">
        <ele>544.243652</ele>
        <time>2011-02-25T13:46:17Z</time>
      </trkpt>
      <trkpt lat="44.27477" lon="5.81392">
        <ele>545.685547</ele>
        <time>2011-02-25T13:46:28Z</time>
      </trkpt>
      <trkpt lat="44.27556" lon="5.81485">
        <ele>546.646851</ele>
        <time>2011-02-25T13:46:46Z</time>
      </trkpt>
      <trkpt lat="44.27592" lon="5.81528">
        <ele>548.088867</ele>
        <time>2011-02-25T13:46:56Z</time>
      </trkpt>
      <trkpt lat="44.27626" lon="5.81571">
        <ele>550.972656</ele>
        <time>2011-02-25T13:47:06Z</time>
      </trkpt>
      <trkpt lat="44.27696" lon="5.81654">
        <ele>548.569336</ele>
        <time>2011-02-25T13:47:24Z</time>
      </trkpt>
      <trkpt lat="44.277" lon="5.81659">
        <ele>549.050049</ele>
        <time>2011-02-25T13:47:25Z</time>
      </trkpt>
      <trkpt lat="44.27712" lon="5.81673">
        <ele>549.530762</ele>
        <time>2011-02-25T13:47:28Z</time>
      </trkpt>
      <trkpt lat="44.27735" lon="5.81701">
        <ele>549.530762</ele>
        <time>2011-02-25T13:47:34Z</time>
      </trkpt>
      <trkpt lat="44.27773" lon="5.81725">
        <ele>552.895264</ele>
        <time>2011-02-25T13:47:43Z</time>
      </trkpt>
      <trkpt lat="44.27789" lon="5.81735">
        <ele>551.453369</ele>
        <time>2011-02-25T13:47:47Z</time>
      </trkpt>
      <trkpt lat="44.27804" lon="5.81745">
        <ele>551.934082</ele>
        <time>2011-02-25T13:47:51Z</time>
      </trkpt>
      <trkpt lat="44.27816" lon="5.81753">
        <ele>554.817871</ele>
        <time>2011-02-25T13:47:54Z</time>
      </trkpt>
      <trkpt lat="44.27823" lon="5.81758">
        <ele>553.375977</ele>
        <time>2011-02-25T13:47:56Z</time>
      </trkpt>
      <trkpt lat="44.27898" lon="5.81807">
        <ele>552.895264</ele>
        <time>2011-02-25T13:48:15Z</time>
      </trkpt>
      <trkpt lat="44.27951" lon="5.81841">
        <ele>551.934082</ele>
        <time>2011-02-25T13:48:28Z</time>
      </trkpt>
      <trkpt lat="44.27989" lon="5.81866">
        <ele>553.375977</ele>
        <time>2011-02-25T13:48:37Z</time>
      </trkpt>
      <trkpt lat="44.28017" lon="5.81883">
        <ele>554.337402</ele>
        <time>2011-02-25T13:48:43Z</time>
      </trkpt>
      <trkpt lat="44.28083" lon="5.81925">
        <ele>553.856689</ele>
        <time>2011-02-25T13:48:58Z</time>
      </trkpt>
      <trkpt lat="44.28163" lon="5.81978">
        <ele>555.298584</ele>
        <time>2011-02-25T13:49:18Z</time>
      </trkpt>
      <trkpt lat="44.28189" lon="5.81994">
        <ele>556.740723</ele>
        <time>2011-02-25T13:49:24Z</time>
      </trkpt>
      <trkpt lat="44.28243" lon="5.8202">
        <ele>554.337402</ele>
        <time>2011-02-25T13:49:36Z</time>
      </trkpt>
      <trkpt lat="44.28281" lon="5.82022">
        <ele>554.817871</ele>
        <time>2011-02-25T13:49:45Z</time>
      </trkpt>
      <trkpt lat="44.28351" lon="5.82024">
        <ele>554.337402</ele>
        <time>2011-02-25T13:50:01Z</time>
      </trkpt>
      <trkpt lat="44.28365" lon="5.82024">
        <ele>555.779297</ele>
        <time>2011-02-25T13:50:04Z</time>
      </trkpt>
      <trkpt lat="44.28374" lon="5.82024">
        <ele>557.702148</ele>
        <time>2011-02-25T13:50:06Z</time>
      </trkpt>
      <trkpt lat="44.28408" lon="5.82028">
        <ele>555.779297</ele>
        <time>2011-02-25T13:50:13Z</time>
      </trkpt>
      <trkpt lat="44.28437" lon="5.82037">
        <ele>556.26001</ele>
        <time>2011-02-25T13:50:20Z</time>
      </trkpt>
      <trkpt lat="44.28444" lon="5.8204">
        <ele>557.702148</ele>
        <time>2011-02-25T13:50:22Z</time>
      </trkpt>
      <trkpt lat="44.28519" lon="5.82076">
        <ele>560.585938</ele>
        <time>2011-02-25T13:50:43Z</time>
      </trkpt>
      <trkpt lat="44.28538" lon="5.82085">
        <ele>562.028076</ele>
        <time>2011-02-25T13:50:48Z</time>
      </trkpt>
      <trkpt lat="44.28594" lon="5.82112">
        <ele>565.873291</ele>
        <time>2011-02-25T13:51:05Z</time>
      </trkpt>
      <trkpt lat="44.28614" lon="5.82119">
        <ele>568.276367</ele>
        <time>2011-02-25T13:51:11Z</time>
      </trkpt>
      <trkpt lat="44.2862" lon="5.82121">
        <ele>566.35376</ele>
        <time>2011-02-25T13:51:13Z</time>
      </trkpt>
      <trkpt lat="44.28626" lon="5.82123">
        <ele>567.795654</ele>
        <time>2011-02-25T13:51:15Z</time>
      </trkpt>
      <trkpt lat="44.28632" lon="5.82124">
        <ele>563.950439</ele>
        <time>2011-02-25T13:51:17Z</time>
      </trkpt>
      <trkpt lat="44.28635" lon="5.82125">
        <ele>563.950439</ele>
        <time>2011-02-25T13:51:18Z</time>
      </trkpt>
      <trkpt lat="44.28644" lon="5.82128">
        <ele>568.276367</ele>
        <time>2011-02-25T13:51:21Z</time>
      </trkpt>
      <trkpt lat="44.28647" lon="5.82129">
        <ele>568.276367</ele>
        <time>2011-02-25T13:51:22Z</time>
      </trkpt>
      <trkpt lat="44.28706" lon="5.82145">
        <ele>569.718506</ele>
        <time>2011-02-25T13:51:40Z</time>
      </trkpt>
      <trkpt lat="44.2872" lon="5.82152">
        <ele>570.679688</ele>
        <time>2011-02-25T13:51:45Z</time>
      </trkpt>
      <trkpt lat="44.28758" lon="5.82175">
        <ele>571.1604</ele>
        <time>2011-02-25T13:51:59Z</time>
      </trkpt>
      <trkpt lat="44.28786" lon="5.82192">
        <ele>574.044434</ele>
        <time>2011-02-25T13:52:09Z</time>
      </trkpt>
      <trkpt lat="44.2883" lon="5.82225">
        <ele>573.083252</ele>
        <time>2011-02-25T13:52:25Z</time>
      </trkpt>
      <trkpt lat="44.28892" lon="5.8228">
        <ele>573.563965</ele>
        <time>2011-02-25T13:52:46Z</time>
      </trkpt>
      <trkpt lat="44.28911" lon="5.82287">
        <ele>572.602539</ele>
        <time>2011-02-25T13:52:51Z</time>
      </trkpt>
      <trkpt lat="44.28933" lon="5.8229">
        <ele>569.237793</ele>
        <time>2011-02-25T13:52:56Z</time>
      </trkpt>
      <trkpt lat="44.28937" lon="5.8229">
        <ele>569.237793</ele>
        <time>2011-02-25T13:52:57Z</time>
      </trkpt>
      <trkpt lat="44.29005" lon="5.82286">
        <ele>565.873291</ele>
        <time>2011-02-25T13:53:10Z</time>
      </trkpt>
      <trkpt lat="44.2901" lon="5.82286">
        <ele>565.873291</ele>
        <time>2011-02-25T13:53:11Z</time>
      </trkpt>
      <trkpt lat="44.29044" lon="5.82284">
        <ele>563.469971</ele>
        <time>2011-02-25T13:53:17Z</time>
      </trkpt>
      <trkpt lat="44.2905" lon="5.82284">
        <ele>568.276367</ele>
        <time>2011-02-25T13:53:18Z</time>
      </trkpt>
      <trkpt lat="44.29056" lon="5.82283">
        <ele>565.392578</ele>
        <time>2011-02-25T13:53:19Z</time>
      </trkpt>
      <trkpt lat="44.29136" lon="5.82268">
        <ele>565.873291</ele>
        <time>2011-02-25T13:53:34Z</time>
      </trkpt>
      <trkpt lat="44.29172" lon="5.82258">
        <ele>565.392578</ele>
        <time>2011-02-25T13:53:41Z</time>
      </trkpt>
      <trkpt lat="44.29195" lon="5.82257">
        <ele>566.834473</ele>
        <time>2011-02-25T13:53:45Z</time>
      </trkpt>
      <trkpt lat="44.29274" lon="5.82246">
        <ele>564.431152</ele>
        <time>2011-02-25T13:54:03Z</time>
      </trkpt>
      <trkpt lat="44.29277" lon="5.82244">
        <ele>564.431152</ele>
        <time>2011-02-25T13:54:04Z</time>
      </trkpt>
      <trkpt lat="44.29341" lon="5.82219">
        <ele>567.315186</ele>
        <time>2011-02-25T13:54:22Z</time>
      </trkpt>
      <trkpt lat="44.29374" lon="5.82224">
        <ele>566.834473</ele>
        <time>2011-02-25T13:54:27Z</time>
      </trkpt>
      <trkpt lat="44.29389" lon="5.82178">
        <ele>563.469971</ele>
        <time>2011-02-25T13:54:37Z</time>
      </trkpt>
      <trkpt lat="44.29427" lon="5.82135">
        <ele>565.392578</ele>
        <time>2011-02-25T13:54:47Z</time>
      </trkpt>
      <trkpt lat="44.29445" lon="5.82116">
        <ele>566.35376</ele>
        <time>2011-02-25T13:54:51Z</time>
      </trkpt>
      <trkpt lat="44.2946" lon="5.82106">
        <ele>565.873291</ele>
        <time>2011-02-25T13:54:54Z</time>
      </trkpt>
      <trkpt lat="44.29483" lon="5.82097">
        <ele>565.873291</ele>
        <time>2011-02-25T13:54:58Z</time>
      </trkpt>
      <trkpt lat="44.29515" lon="5.82099">
        <ele>564.911865</ele>
        <time>2011-02-25T13:55:04Z</time>
      </trkpt>
      <trkpt lat="44.2957" lon="5.82111">
        <ele>563.469971</ele>
        <time>2011-02-25T13:55:14Z</time>
      </trkpt>
      <trkpt lat="44.29661" lon="5.82172">
        <ele>562.989258</ele>
        <time>2011-02-25T13:55:29Z</time>
      </trkpt>
      <trkpt lat="44.29751" lon="5.82238">
        <ele>562.028076</ele>
        <time>2011-02-25T13:55:45Z</time>
      </trkpt>
      <trkpt lat="44.2978" lon="5.82247">
        <ele>561.547363</ele>
        <time>2011-02-25T13:55:50Z</time>
      </trkpt>
      <trkpt lat="44.29811" lon="5.8225">
        <ele>562.989258</ele>
        <time>2011-02-25T13:55:55Z</time>
      </trkpt>
      <trkpt lat="44.29912" lon="5.82294">
        <ele>562.508545</ele>
        <time>2011-02-25T13:56:12Z</time>
      </trkpt>
      <trkpt lat="44.29963" lon="5.8232">
        <ele>562.028076</ele>
        <time>2011-02-25T13:56:22Z</time>
      </trkpt>
      <trkpt lat="44.30019" lon="5.82341">
        <ele>562.508545</ele>
        <time>2011-02-25T13:56:34Z</time>
      </trkpt>
      <trkpt lat="44.30033" lon="5.82344">
        <ele>563.950439</ele>
        <time>2011-02-25T13:56:37Z</time>
      </trkpt>
      <trkpt lat="44.30067" lon="5.82347">
        <ele>562.028076</ele>
        <time>2011-02-25T13:56:44Z</time>
      </trkpt>
      <trkpt lat="44.30099" lon="5.82348">
        <ele>563.950439</ele>
        <time>2011-02-25T13:56:51Z</time>
      </trkpt>
      <trkpt lat="44.30127" lon="5.82345">
        <ele>562.028076</ele>
        <time>2011-02-25T13:56:57Z</time>
      </trkpt>
      <trkpt lat="44.3014" lon="5.82342">
        <ele>564.911865</ele>
        <time>2011-02-25T13:57:00Z</time>
      </trkpt>
      <trkpt lat="44.30152" lon="5.82343">
        <ele>566.834473</ele>
        <time>2011-02-25T13:57:02Z</time>
      </trkpt>
      <trkpt lat="44.30171" lon="5.82344">
        <ele>564.911865</ele>
        <time>2011-02-25T13:57:06Z</time>
      </trkpt>
      <trkpt lat="44.30209" lon="5.82346">
        <ele>565.873291</ele>
        <time>2011-02-25T13:57:14Z</time>
      </trkpt>
      <trkpt lat="44.30252" lon="5.82344">
        <ele>562.508545</ele>
        <time>2011-02-25T13:57:23Z</time>
      </trkpt>
      <trkpt lat="44.30284" lon="5.8234">
        <ele>562.508545</ele>
        <time>2011-02-25T13:57:30Z</time>
      </trkpt>
      <trkpt lat="44.30359" lon="5.82324">
        <ele>561.547363</ele>
        <time>2011-02-25T13:57:46Z</time>
      </trkpt>
      <trkpt lat="44.30427" lon="5.82316">
        <ele>560.105225</ele>
        <time>2011-02-25T13:58:02Z</time>
      </trkpt>
      <trkpt lat="44.3044" lon="5.82314">
        <ele>561.547363</ele>
        <time>2011-02-25T13:58:05Z</time>
      </trkpt>
      <trkpt lat="44.30459" lon="5.82312">
        <ele>563.950439</ele>
        <time>2011-02-25T13:58:09Z</time>
      </trkpt>
      <trkpt lat="44.30472" lon="5.82315">
        <ele>562.028076</ele>
        <time>2011-02-25T13:58:12Z</time>
      </trkpt>
      <trkpt lat="44.30537" lon="5.82314">
        <ele>565.392578</ele>
        <time>2011-02-25T13:58:27Z</time>
      </trkpt>
      <trkpt lat="44.30599" lon="5.82306">
        <ele>562.028076</ele>
        <time>2011-02-25T13:58:40Z</time>
      </trkpt>
      <trkpt lat="44.30607" lon="5.82303">
        <ele>561.06665</ele>
        <time>2011-02-25T13:58:42Z</time>
      </trkpt>
      <trkpt lat="44.30621" lon="5.82298">
        <ele>563.950439</ele>
        <time>2011-02-25T13:58:46Z</time>
      </trkpt>
      <trkpt lat="44.30643" lon="5.82285">
        <ele>563.950439</ele>
        <time>2011-02-25T13:58:53Z</time>
      </trkpt>
      <trkpt lat="44.3067" lon="5.82263">
        <ele>562.508545</ele>
        <time>2011-02-25T13:59:02Z</time>
      </trkpt>
      <trkpt lat="44.30688" lon="5.82242">
        <ele>562.989258</ele>
        <time>2011-02-25T13:59:09Z</time>
      </trkpt>
      <trkpt lat="44.30724" lon="5.82167">
        <ele>561.547363</ele>
        <time>2011-02-25T13:59:26Z</time>
      </trkpt>
      <trkpt lat="44.30738" lon="5.82129">
        <ele>562.508545</ele>
        <time>2011-02-25T13:59:33Z</time>
      </trkpt>
      <trkpt lat="44.30743" lon="5.82117">
        <ele>561.547363</ele>
        <time>2011-02-25T13:59:35Z</time>
      </trkpt>
      <trkpt lat="44.30768" lon="5.82084">
        <ele>561.06665</ele>
        <time>2011-02-25T13:59:42Z</time>
      </trkpt>
      <trkpt lat="44.30799" lon="5.8207">
        <ele>562.989258</ele>
        <time>2011-02-25T13:59:49Z</time>
      </trkpt>
      <trkpt lat="44.30808" lon="5.82068">
        <ele>562.028076</ele>
        <time>2011-02-25T13:59:51Z</time>
      </trkpt>
      <trkpt lat="44.30848" lon="5.82059">
        <ele>561.06665</ele>
        <time>2011-02-25T14:00:00Z</time>
      </trkpt>
      <trkpt lat="44.30869" lon="5.82054">
        <ele>559.144043</ele>
        <time>2011-02-25T14:00:05Z</time>
      </trkpt>
      <trkpt lat="44.30891" lon="5.8205">
        <ele>558.182861</ele>
        <time>2011-02-25T14:00:10Z</time>
      </trkpt>
      <trkpt lat="44.30905" lon="5.82048">
        <ele>558.182861</ele>
        <time>2011-02-25T14:00:13Z</time>
      </trkpt>
      <trkpt lat="44.30929" lon="5.82044">
        <ele>557.221436</ele>
        <time>2011-02-25T14:00:18Z</time>
      </trkpt>
      <trkpt lat="44.30959" lon="5.82047">
        <ele>558.182861</ele>
        <time>2011-02-25T14:00:24Z</time>
      </trkpt>
      <trkpt lat="44.30989" lon="5.82067">
        <ele>558.182861</ele>
        <time>2011-02-25T14:00:31Z</time>
      </trkpt>
      <trkpt lat="44.31028" lon="5.82113">
        <ele>557.702148</ele>
        <time>2011-02-25T14:00:42Z</time>
      </trkpt>
      <trkpt lat="44.31041" lon="5.8213">
        <ele>558.66333</ele>
        <time>2011-02-25T14:00:46Z</time>
      </trkpt>
      <trkpt lat="44.31067" lon="5.82165">
        <ele>557.702148</ele>
        <time>2011-02-25T14:00:54Z</time>
      </trkpt>
      <trkpt lat="44.31119" lon="5.82232">
        <ele>559.624756</ele>
        <time>2011-02-25T14:01:10Z</time>
      </trkpt>
      <trkpt lat="44.31152" lon="5.8227">
        <ele>562.028076</ele>
        <time>2011-02-25T14:01:21Z</time>
      </trkpt>
      <trkpt lat="44.31157" lon="5.82277">
        <ele>560.585938</ele>
        <time>2011-02-25T14:01:23Z</time>
      </trkpt>
      <trkpt lat="44.31205" lon="5.82276">
        <ele>561.547363</ele>
        <time>2011-02-25T14:01:37Z</time>
      </trkpt>
      <trkpt lat="44.31277" lon="5.82267">
        <ele>563.950439</ele>
        <time>2011-02-25T14:01:58Z</time>
      </trkpt>
      <trkpt lat="44.31316" lon="5.82269">
        <ele>566.834473</ele>
        <time>2011-02-25T14:02:12Z</time>
      </trkpt>
      <trkpt lat="44.31333" lon="5.82269">
        <ele>569.718506</ele>
        <time>2011-02-25T14:02:19Z</time>
      </trkpt>
      <trkpt lat="44.31335" lon="5.8227">
        <ele>569.718506</ele>
        <time>2011-02-25T14:02:20Z</time>
      </trkpt>
      <trkpt lat="44.31353" lon="5.82276">
        <ele>570.198975</ele>
        <time>2011-02-25T14:02:28Z</time>
      </trkpt>
      <trkpt lat="44.31359" lon="5.82282">
        <ele>572.602539</ele>
        <time>2011-02-25T14:02:32Z</time>
      </trkpt>
      <trkpt lat="44.31367" lon="5.82285">
        <ele>570.198975</ele>
        <time>2011-02-25T14:02:35Z</time>
      </trkpt>
      <trkpt lat="44.31395" lon="5.82303">
        <ele>570.679688</ele>
        <time>2011-02-25T14:02:48Z</time>
      </trkpt>
      <trkpt lat="44.31423" lon="5.82318">
        <ele>573.083252</ele>
        <time>2011-02-25T14:02:58Z</time>
      </trkpt>
      <trkpt lat="44.31425" lon="5.82325">
        <ele>571.640869</ele>
        <time>2011-02-25T14:03:07Z</time>
      </trkpt>
      <trkpt lat="44.31425" lon="5.82325">
        <ele>573.563965</ele>
        <time>2011-02-25T14:03:26Z</time>
      </trkpt>
      <trkpt lat="44.31425" lon="5.82325">
        <ele>572.121826</ele>
        <time>2011-02-25T14:03:28Z</time>
      </trkpt>
      <trkpt lat="44.31425" lon="5.82325">
        <ele>572.602539</ele>
        <time>2011-02-25T14:03:49Z</time>
      </trkpt>
      <trkpt lat="44.31426" lon="5.82331">
        <ele>572.121826</ele>
        <time>2011-02-25T14:03:52Z</time>
      </trkpt>
      <trkpt lat="44.31426" lon="5.82331">
        <ele>570.198975</ele>
        <time>2011-02-25T14:04:04Z</time>
      </trkpt>
      <trkpt lat="44.31426" lon="5.82331">
        <ele>572.121826</ele>
        <time>2011-02-25T14:04:06Z</time>
      </trkpt>
      <trkpt lat="44.31437" lon="5.82354">
        <ele>570.679688</ele>
        <time>2011-02-25T14:04:14Z</time>
      </trkpt>
      <trkpt lat="44.31444" lon="5.82362">
        <ele>571.640869</ele>
        <time>2011-02-25T14:04:18Z</time>
      </trkpt>
      <trkpt lat="44.31495" lon="5.82319">
        <ele>575.005859</ele>
        <time>2011-02-25T14:04:36Z</time>
      </trkpt>
      <trkpt lat="44.31509" lon="5.82317">
        <ele>573.083252</ele>
        <time>2011-02-25T14:04:41Z</time>
      </trkpt>
      <trkpt lat="44.31515" lon="5.82332">
        <ele>573.083252</ele>
        <time>2011-02-25T14:04:45Z</time>
      </trkpt>
      <trkpt lat="44.3152" lon="5.82348">
        <ele>574.044434</ele>
        <time>2011-02-25T14:04:50Z</time>
      </trkpt>
      <trkpt lat="44.31551" lon="5.82369">
        <ele>575.005859</ele>
        <time>2011-02-25T14:05:05Z</time>
      </trkpt>
      <trkpt lat="44.31551" lon="5.82369">
        <ele>575.005859</ele>
        <time>2011-02-25T14:05:29Z</time>
      </trkpt>
      <trkpt lat="44.31551" lon="5.82369">
        <ele>576.447754</ele>
        <time>2011-02-25T14:05:31Z</time>
      </trkpt>
    </trkseg>
  </trk>
</gpx>